[[{"header":{"parameterUnit":"m.s-1","parameterCategory":1,"la1":31.0,"la2":29.5877,"lo1":-88.7671,"lo2":-86.6584,"dy":0.0162,"dx":0.0185,"nx":115,"ny":88,"refTime":"2024-09-26T18:00:00:Z","depth":0,"parameterNumber":2,"parameterNumberName":"U-component_of_WINDS"},"data":[0.0,0.0,0.0,0.0,0.0,0.0,0.0,0.0,0.0,0.0,0.0,0.0,0.0,0.0,0.0,0.0,0.0,0.0,0.0,0.0,0.0,0.0,0.0,0.0,0.0,0.0,0.0,0.0,0.0,0.0,0.0,0.0,0.0,0.0,0.0,0.0,0.0,0.0,0.0,0.0,0.0,0.0,0.0,0.0,0.0,0.0,0.0,0.0,0.0,0.0,0.0,0.0,0.0,0.0,0.0,0.0,0.0,0.0,0.0,0.0,0.0,0.0,0.0,0.0,0.0,0.0,0.0,0.0,0.0,0.0,0.0,0.0,0.0,0.0,0.0,0.0,0.0,0.0,0.0,0.0,0.0,0.0,0.0,0.0,0.0,0.0,0.0,0.0,0.0,0.0,0.0,0.0,0.0,0.0,0.0,0.0,0.0,0.0,0.0,0.0,0.0,0.0,0.0,0.0,0.0,0.0,0.0,0.0,0.0,0.0,0.0,0.0,0.0,0.0,0.0,0.0,0.0,0.0,0.0,0.0,0.0,0.0,0.0,0.0,0.0,0.0,0.0,0.0,0.0,0.0,0.0,0.0,0.0,0.0,0.0,0.0,0.0,0.0,0.0,0.0,0.0,0.0,0.0,0.0,0.0,0.0,0.0,0.0,0.0,0.0,0.0,0.0,0.0,0.0,0.0,0.0,0.0,0.0,0.0,0.0,0.0,0.0,0.0,0.0,0.0,0.0,0.0,0.0,0.0,0.0,0.0,0.0,0.0,0.0,0.0,0.0,0.0,0.0,0.0,0.0,0.0,0.0,0.0,0.0,0.0,0.0,0.0,0.0,0.0,0.0,0.0,0.0,0.0,0.0,0.0,0.0,0.0,0.0,0.0,0.0,0.0,0.0,0.0,0.0,0.0,0.0,0.0,0.0,0.0,0.0,0.0,0.0,0.0,0.0,0.0,0.0,0.0,0.0,0.0,0.0,0.0,0.0,0.0,0.0,0.0,0.0,0.0,0.0,0.0,0.0,0.0,0.0,0.0,0.0,0.0,0.0,0.0,0.0,0.0,0.0,0.0,0.0,0.0,0.0,0.0,0.0,0.0,0.0,0.0,0.0,0.0,0.0,0.0,0.0,0.0,0.0,0.0,0.0,0.0,0.0,0.0,0.0,0.0,0.0,0.0,0.0,0.0,0.0,0.0,0.0,0.0,0.0,0.0,0.0,0.0,0.0,0.0,0.0,0.0,0.0,0.0,0.0,0.0,0.0,0.0,0.0,0.0,0.0,0.0,0.0,0.0,0.0,0.0,0.0,0.0,0.0,0.0,0.0,0.0,0.0,0.0,0.0,0.0,0.0,0.0,0.0,0.0,0.0,0.0,0.0,0.0,0.0,0.0,0.0,0.0,0.0,0.0,0.0,0.0,0.0,0.0,0.0,0.0,0.0,0.0,0.0,0.0,0.0,0.0,0.0,0.0,0.0,0.0,0.0,0.0,0.0,0.0,0.0,0.0,0.0,0.0,0.0,0.0,0.0,0.0,0.0,0.0,0.0,0.0,0.0,0.0,0.0,0.0,0.0,0.0,0.0,0.0,0.0,0.0,0.0,0.0,0.0,0.0,0.0,0.0,0.0,0.0,0.0,0.0,0.0,0.0,0.0,0.0,0.0,0.0,0.0,0.0,0.0,0.0,0.0,0.0,0.0,0.0,0.0,0.0,0.0,0.0,0.0,0.0,0.0,0.0,0.0,0.0,0.0,0.0,0.0,0.0,0.0,0.0,0.0,0.0,0.0,0.0,0.0,0.0,0.0,0.0,0.0,0.0,0.0,0.0,0.0,0.0,0.0,0.0,0.0,0.0,0.0,0.0,0.0,0.0,0.0,0.0,0.0,0.0,0.0,0.0,0.0,0.0,0.0,0.0,0.0,0.0,0.0,0.0,0.0,0.0,0.0,0.0,0.0,0.0,0.0,0.0,0.0,0.0,0.0,0.0,0.0,0.0,0.0,0.0,0.0,0.0,0.0,0.0,0.0,0.0,0.0,0.0,0.0,0.0,0.0,0.0,0.0,0.0,0.0,0.0,0.0,0.0,0.0,0.0,0.0,0.0,0.0,0.0,0.0,0.0,0.0,0.0,0.0,0.0,0.0,0.0,0.0,0.0,0.0,0.0,0.0,0.0,0.0,0.0,0.0,0.0,0.0,0.0,0.0,0.0,0.0,0.0,0.0,0.0,0.0,0.0,0.0,0.0,0.0,0.0,0.0,0.0,0.0,0.0,0.0,0.0,0.0,0.0,0.0,0.0,0.0,0.0,0.0,0.0,0.0,0.0,0.0,0.0,0.0,0.0,0.0,0.0,0.0,0.0,0.0,0.0,0.0,0.0,0.0,0.0,0.0,0.0,0.0,0.0,0.0,0.0,0.0,0.0,0.0,0.0,0.0,0.0,0.0,0.0,0.0,0.0,0.0,0.0,0.0,0.0,0.0,0.0,0.0,0.0,0.0,0.0,0.0,0.0,0.0,0.0,0.0,0.0,0.0,0.0,0.0,0.0,0.0,0.0,0.0,0.0,0.0,0.0,0.0,0.0,0.0,0.0,0.0,0.0,0.0,0.0,0.0,0.0,0.0,0.0,0.0,0.0,0.0,0.0,0.0,0.0,0.0,0.0,0.0,0.0,0.0,0.0,0.0,0.0,0.0,0.0,0.0,0.0,0.0,0.0,0.0,0.0,0.0,0.0,0.0,0.0,0.0,0.0,0.0,0.0,0.0,0.0,0.0,0.0,0.0,0.0,0.0,0.0,0.0,0.0,0.0,0.0,0.0,0.0,0.0,0.0,0.0,0.0,0.0,0.0,0.0,0.0,0.0,0.0,0.0,0.0,0.0,0.0,0.0,0.0,0.0,0.0,0.0,0.0,0.0,0.0,0.0,0.0,0.0,0.0,0.0,0.0,0.0,0.0,0.0,0.0,0.0,0.0,0.0,0.0,0.0,0.0,0.0,0.0,0.0,0.0,0.0,0.0,0.0,0.0,0.0,0.0,0.0,0.0,0.0,0.0,0.0,0.0,0.0,0.0,0.0,0.0,0.0,0.0,0.0,0.0,0.0,0.0,0.0,0.0,0.0,0.0,0.0,0.0,0.0,0.0,0.0,0.0,0.0,0.0,0.0,0.0,0.0,0.0,0.0,0.0,0.0,0.0,0.0,0.0,0.0,0.0,0.0,0.0,0.0,0.0,0.0,0.0,0.0,0.0,0.0,0.0,0.0,0.0,0.0,0.0,0.0,0.0,0.0,0.0,0.0,0.0,0.0,0.0,0.0,0.0,0.0,0.0,0.0,0.0,0.0,0.0,0.0,0.0,0.0,0.0,0.0,0.0,0.0,0.0,0.0,0.0,0.0,0.0,0.0,0.0,0.0,0.0,0.0,0.0,0.0,0.0,0.0,0.0,0.0,0.0,0.0,0.0,0.0,0.0,0.0,0.0,0.0,0.0,0.0,0.0,0.0,0.0,0.0,0.0,0.0,0.0,0.0,0.0,0.0,0.0,0.0,0.0,0.0,0.0,0.0,0.0,0.0,0.0,0.0,0.0,0.0,0.0,0.0,0.0,0.0,0.0,0.0,0.0,0.0,0.0,0.0,0.0,0.0,0.0,0.0,0.0,0.0,0.0,0.0,0.0,0.0,0.0,0.0,0.0,0.0,0.0,0.0,0.0,0.0,0.0,0.0,0.0,0.0,0.0,0.0,0.0,0.0,0.0,0.0,0.0,0.0,0.0,0.0,0.0,0.0,0.0,0.0,0.0,0.0,0.0,0.0,0.0,0.0,0.0,0.0,0.0,0.0,0.0,0.0,0.0,0.0,0.0,0.0,0.0,0.0,0.0,0.0,0.0,0.0,0.0,0.0,0.0,0.0,0.0,0.0,0.0,0.0,0.0,0.0,0.0,0.0,0.0,0.0,0.0,0.0,0.0,0.0,0.0,0.0,0.0,0.0,0.0,0.0,0.0,0.0,0.0,0.0,0.0,0.0,0.0,0.0,0.0,0.0,0.0,0.0,0.0,0.0,0.0,0.0,0.0,0.0,0.0,0.0,0.0,0.0,0.0,0.0,0.0,0.0,0.0,0.0,0.0,0.0,0.0,0.0,0.0,0.0,0.0,0.0,0.0,0.0,0.0,0.0,0.0,0.0,0.0,0.0,0.0,0.0,0.0,0.0,0.0,0.0,0.0,0.0,0.0,0.0,0.0,0.0,0.0,0.0,0.0,0.0,0.0,0.0,0.0,0.0,0.0,0.0,1.7678,0.0,0.0,0.0,0.0,0.0,0.0,0.0,0.0,0.0,0.0,0.0,0.0,0.0,0.0,0.0,0.0,0.0,0.0,0.0,0.0,0.0,0.0,0.0,0.0,0.0,0.0,0.0,0.0,0.0,0.0,0.0,0.0,0.0,0.0,0.0,0.0,0.0,0.0,0.0,0.0,0.0,0.0,0.0,0.0,0.0,0.0,0.0,0.0,0.0,0.0,0.0,0.0,0.0,0.0,0.0,0.0,0.0,0.0,0.0,0.0,0.0,0.0,0.0,0.0,0.0,0.0,0.0,0.0,0.0,0.0,0.0,0.0,0.0,0.0,0.0,0.0,0.0,0.0,0.0,0.0,0.0,0.0,0.0,0.0,0.0,0.0,0.0,0.0,0.0,0.0,0.0,0.0,0.0,0.0,0.0,0.0,0.0,0.0,0.0,0.0,0.0,0.0,0.0,0.0,0.0,0.0,0.0,0.0,0.0,0.0,2.0288,2.0269,1.8602,1.7697,1.7678,0.0,0.0,0.0,0.0,0.0,0.0,0.0,0.0,0.0,0.0,0.0,0.0,0.0,0.0,0.0,0.0,0.0,0.0,0.0,0.0,0.0,0.0,0.0,0.0,0.0,0.0,0.0,0.0,0.0,0.0,0.0,0.0,0.0,0.0,0.0,0.0,0.0,0.0,0.0,0.0,0.0,0.0,0.0,0.0,0.0,0.0,0.0,0.0,0.0,0.0,0.0,0.0,0.0,0.0,0.0,0.0,0.0,0.0,0.0,0.0,0.0,0.0,0.0,0.0,0.0,0.0,0.0,0.0,0.0,0.0,0.0,0.0,0.0,0.0,0.0,0.0,0.0,0.0,0.0,0.0,0.0,0.0,0.0,0.0,0.0,0.0,0.0,0.0,0.0,0.0,0.0,0.0,0.0,0.0,0.0,0.0,0.0,0.0,0.0,0.0,0.0,0.0,0.0,0.0,0.0,0.0,0.0,0.0,0.0,0.0,0.0,0.0,1.9072,1.8091,1.7723,0.0,0.0,0.0,0.0,0.0,0.0,0.0,0.0,0.0,0.0,0.0,0.0,0.0,0.0,0.0,0.0,0.0,0.0,0.0,0.0,0.0,0.0,0.0,0.0,0.0,0.0,0.0,0.0,0.0,0.0,0.0,0.0,0.0,0.0,0.0,0.0,0.0,0.0,0.0,0.0,0.0,0.0,0.0,0.0,0.0,0.0,0.0,0.0,0.0,0.0,0.0,0.0,0.0,0.0,0.0,0.0,0.0,0.0,0.0,0.0,0.0,0.0,0.0,0.0,0.0,0.0,0.0,0.0,0.0,0.0,0.0,0.0,0.0,0.0,0.0,0.0,0.0,0.0,0.0,0.0,0.0,0.0,0.0,0.0,0.0,0.0,0.0,0.0,0.0,0.0,0.0,0.0,0.0,0.0,0.0,0.0,0.0,0.0,0.0,0.0,0.0,0.0,0.0,0.0,0.0,0.0,0.0,0.0,0.0,0.0,2.0649,2.1354,2.0454,0.0,1.7886,0.0,0.0,0.0,0.0,0.0,0.0,0.0,0.0,0.0,0.0,0.0,0.0,0.0,0.0,0.0,0.0,0.0,0.0,0.0,0.0,0.0,0.0,0.0,0.0,0.0,0.0,0.0,0.0,0.0,0.0,0.0,0.0,0.0,0.0,0.0,0.0,0.0,0.0,0.0,0.0,0.0,0.0,0.0,0.0,0.0,0.0,0.0,0.0,0.0,0.0,0.0,0.0,0.0,0.0,0.0,0.0,0.0,0.0,0.0,0.0,0.0,0.0,0.0,0.0,0.0,0.0,0.0,0.0,0.0,0.0,0.0,0.0,0.0,0.0,0.0,0.0,0.0,0.0,0.0,0.0,0.0,0.0,0.0,0.0,0.0,0.0,0.0,0.0,0.0,0.0,0.0,0.0,0.0,0.0,0.0,0.0,0.0,0.0,0.0,0.0,0.0,0.0,0.0,0.0,0.0,0.0,0.0,0.0,0.0,0.0,2.0396,2.0715,1.9917,1.8922,0.0,0.0,0.0,0.0,0.0,0.0,0.0,0.0,0.0,0.0,0.0,0.0,0.0,0.0,0.0,0.0,0.0,0.0,0.0,0.0,0.0,0.0,0.0,0.0,0.0,0.0,0.0,0.0,0.0,0.0,0.0,0.0,0.0,0.0,0.0,0.0,0.0,0.0,0.0,0.0,0.0,0.0,0.0,0.0,0.0,0.0,0.0,0.0,0.0,0.0,0.0,0.0,0.0,0.0,0.0,0.0,0.0,0.0,0.0,0.0,0.0,0.0,0.0,0.0,0.0,0.0,0.0,0.0,0.0,0.0,0.0,0.0,0.0,0.0,0.0,0.0,0.0,0.0,0.0,0.0,0.0,0.0,0.0,0.0,0.0,0.0,0.0,0.0,0.0,0.0,0.0,0.0,0.0,0.0,0.0,0.0,0.0,0.0,0.0,0.0,0.0,0.0,0.0,0.0,0.0,0.0,0.0,0.0,0.0,0.0,1.9845,2.0329,2.0509,1.9751,1.8815,1.7714,0.0,0.0,0.0,0.0,0.0,0.0,0.0,0.0,0.0,0.0,0.0,0.0,0.0,0.0,0.0,0.0,0.0,0.0,0.0,0.0,0.0,0.0,0.0,0.0,0.0,0.0,0.0,0.0,0.0,0.0,0.0,0.0,0.0,0.0,0.0,0.0,0.0,0.0,0.0,0.0,0.0,0.0,0.0,0.0,0.0,0.0,0.0,0.0,0.0,0.0,0.0,0.0,0.0,0.0,0.0,0.0,0.0,0.0,0.0,0.0,0.0,0.0,0.0,0.0,0.0,0.0,0.0,0.0,0.0,0.0,0.0,0.0,0.0,0.0,0.0,0.0,0.0,0.0,0.0,0.0,0.0,0.0,0.0,0.0,0.0,0.0,0.0,0.0,0.0,0.0,0.0,0.0,0.0,0.0,0.0,0.0,0.0,0.0,0.0,0.0,0.0,0.0,0.0,0.0,0.0,0.0,0.0,0.0,0.0,2.1007,2.0657,2.1394,2.058,1.9344,0.0,0.0,0.0,0.0,0.0,0.0,0.0,0.0,0.0,0.0,0.0,0.0,0.0,0.0,0.0,0.0,0.0,0.0,0.0,0.0,0.0,0.0,0.0,0.0,0.0,0.0,0.0,0.0,0.0,0.0,0.0,0.0,0.0,0.0,0.0,0.0,0.0,0.0,0.0,0.0,0.0,0.0,0.0,0.0,0.0,0.0,0.0,0.0,0.0,0.0,0.0,0.0,0.0,0.0,0.0,0.0,0.0,0.0,0.0,0.0,0.0,0.0,0.0,0.0,0.0,0.0,0.0,0.0,0.0,0.0,0.0,0.0,0.0,0.0,0.0,0.0,0.0,0.0,0.0,0.0,0.0,0.0,0.0,0.0,0.0,0.0,0.0,0.0,0.0,0.0,0.0,0.0,0.0,0.0,0.0,0.0,0.0,0.0,0.0,0.0,0.0,0.0,0.0,0.0,0.0,0.0,0.0,0.0,0.0,1.7851,1.8354,1.9795,2.2062,1.9898,1.8546,0.0,0.0,0.0,0.0,0.0,0.0,0.0,0.0,0.0,0.0,0.0,0.0,0.0,0.0,0.0,0.0,0.0,0.0,0.0,0.0,0.0,0.0,0.0,0.0,0.0,0.0,0.0,0.0,0.0,0.0,0.0,0.0,0.0,0.0,0.0,0.0,0.0,0.0,0.0,0.0,0.0,0.0,0.0,0.0,0.0,0.0,0.0,0.0,0.0,0.0,0.0,0.0,0.0,0.0,0.0,0.0,0.0,0.0,0.0,0.0,0.0,0.0,0.0,0.0,0.0,0.0,0.0,0.0,0.0,0.0,0.0,0.0,0.0,0.0,0.0,0.0,0.0,0.0,0.0,0.0,0.0,0.0,0.0,0.0,0.0,0.0,0.0,0.0,0.0,0.0,0.0,0.0,0.0,0.0,0.0,0.0,0.0,0.0,0.0,0.0,0.0,0.0,0.0,0.0,0.0,0.0,0.0,0.0,0.0,1.6768,0.0,2.0153,0.0,1.9655,1.8182,0.0,0.0,0.0,0.0,0.0,0.0,0.0,0.0,0.0,0.0,0.0,0.0,0.0,0.0,0.0,0.0,0.0,0.0,0.0,0.0,0.0,0.0,0.0,0.0,0.0,0.0,0.0,0.0,0.0,0.0,0.0,0.0,0.0,0.0,0.0,0.0,0.0,0.0,0.0,0.0,0.0,0.0,0.0,0.0,0.0,0.0,0.0,0.0,0.0,0.0,0.0,0.0,0.0,0.0,0.0,0.0,0.0,0.0,0.0,0.0,0.0,0.0,0.0,0.0,0.0,0.0,0.0,0.0,0.0,0.0,0.0,0.0,0.0,0.0,0.0,0.0,0.0,0.0,0.0,0.0,0.0,0.0,0.0,0.0,0.0,0.0,0.0,0.0,0.0,0.0,0.0,0.0,0.0,0.0,0.0,0.0,0.0,0.0,0.0,0.0,0.0,0.0,0.0,0.0,0.0,0.0,0.0,0.0,1.6856,2.0,2.168,2.1779,2.0346,2.004,1.8377,0.0,0.0,0.0,0.0,0.0,0.0,0.0,0.0,0.0,0.0,0.0,0.0,0.0,0.0,0.0,0.0,0.0,0.0,0.0,0.0,0.0,0.0,0.0,0.0,0.0,0.0,0.0,0.0,0.0,0.0,0.0,0.0,0.0,0.0,0.0,0.0,0.0,0.0,0.0,0.0,0.0,0.0,0.0,0.0,0.0,0.0,0.0,0.0,0.0,0.0,0.0,0.0,0.0,0.0,0.0,0.0,0.0,0.0,0.0,0.0,0.0,0.0,0.0,0.0,0.0,0.0,0.0,0.0,0.0,0.0,0.0,0.0,0.0,0.0,0.0,0.0,0.0,0.0,0.0,0.0,0.0,0.0,0.0,0.0,0.0,0.0,0.0,0.0,0.0,0.0,0.0,0.0,0.0,0.0,0.0,0.0,0.0,0.0,0.0,0.0,0.0,0.0,0.0,0.0,0.0,0.0,0.0,0.0,0.0,1.9285,2.0392,2.1555,2.2598,1.9887,1.8382,0.0,0.0,0.0,0.0,0.0,0.0,0.0,0.0,0.0,0.0,0.0,0.0,0.0,0.0,0.0,0.0,0.0,0.0,0.0,0.0,0.0,0.0,0.0,0.0,0.0,0.0,0.0,0.0,0.0,0.0,0.0,0.0,0.0,0.0,0.0,0.0,0.0,0.0,0.0,0.0,0.0,0.0,0.0,0.0,0.0,0.0,0.0,0.0,0.0,0.0,0.0,0.0,0.0,0.0,0.0,0.0,0.0,0.0,0.0,0.0,0.0,0.0,0.0,0.0,0.0,0.0,0.0,0.0,0.0,0.0,0.0,0.0,0.0,0.0,0.0,0.0,0.0,0.0,0.0,0.0,0.0,0.0,0.0,0.0,0.0,0.0,0.0,0.0,0.0,0.0,0.0,0.0,0.0,0.0,0.0,0.0,0.0,0.0,0.0,0.0,0.0,0.0,0.0,0.0,0.0,0.0,0.0,0.0,0.0,2.263,2.3155,2.3868,2.4822,2.1933,1.9938,1.9041,0.0,0.0,0.0,0.0,0.0,0.0,0.0,0.0,0.0,0.0,0.0,0.0,0.0,0.0,0.0,0.0,0.0,0.0,0.0,0.0,0.0,0.0,0.0,0.0,0.0,0.0,0.0,0.0,0.0,0.0,0.0,0.0,0.0,0.0,0.0,0.0,0.0,0.0,0.0,0.0,0.0,0.0,0.0,0.0,0.0,0.0,0.0,0.0,0.0,0.0,0.0,0.0,0.0,0.0,0.0,0.0,0.0,0.0,0.0,0.0,0.0,0.0,0.0,0.0,0.0,0.0,0.0,0.0,0.0,0.0,0.0,0.0,0.0,0.0,0.0,0.0,0.0,0.0,0.0,0.0,0.0,0.0,0.0,0.0,0.0,0.0,0.0,0.0,0.0,0.0,0.0,0.0,0.0,0.0,0.0,0.0,0.0,0.0,0.0,0.0,0.0,0.0,0.0,0.0,0.0,0.0,0.0,0.0,2.9131,2.9317,2.8635,2.6995,2.575,2.2891,0.0,0.0,0.0,0.0,0.0,0.0,0.0,0.0,0.0,0.0,0.0,0.0,0.0,0.0,0.0,0.0,0.0,0.0,0.0,0.0,0.0,0.0,0.0,0.0,0.0,0.0,0.0,0.0,0.0,0.0,0.0,0.0,0.0,0.0,0.0,0.0,0.0,0.0,0.0,0.0,0.0,0.0,0.0,0.0,0.0,0.0,0.0,0.0,0.0,0.0,0.0,0.0,0.0,0.0,0.0,0.0,0.0,0.0,0.0,0.0,0.0,0.0,0.0,0.0,0.0,0.0,0.0,0.0,0.0,0.0,0.0,0.0,0.0,0.0,0.0,0.0,0.0,0.0,0.0,0.0,0.0,0.0,0.0,0.0,0.0,0.0,0.0,0.0,0.0,0.0,0.0,0.0,0.0,0.0,0.0,0.0,0.0,0.0,0.0,0.0,0.0,0.0,0.0,0.0,0.0,0.0,0.0,0.0,0.0,3.2296,3.4566,3.4802,3.2898,2.893,2.5861,0.0,0.0,0.0,0.0,0.0,0.0,0.0,0.0,0.0,0.0,0.0,0.0,0.0,0.0,0.0,0.0,0.0,0.0,0.0,0.0,0.0,0.0,0.0,0.0,0.0,0.0,0.0,0.0,0.0,0.0,0.0,0.0,0.0,0.0,0.0,0.0,0.0,0.0,0.0,0.0,0.0,0.0,0.0,0.0,0.0,0.0,0.0,0.0,0.0,0.0,0.0,0.0,0.0,0.0,0.0,0.0,0.0,0.0,0.0,0.0,0.0,0.0,0.0,0.0,0.0,0.0,0.0,0.0,0.0,0.0,0.0,0.0,0.0,0.0,0.0,0.0,0.0,0.0,0.0,0.0,0.0,0.0,0.0,0.0,0.0,0.0,0.0,0.0,0.0,0.0,0.0,0.0,0.0,0.0,0.0,0.0,0.0,0.0,0.0,0.0,0.0,0.0,0.0,0.0,0.0,0.0,0.0,0.0,3.0753,3.4705,3.8465,3.988,3.8741,3.3301,2.8806,0.0,0.0,0.0,0.0,0.0,0.0,0.0,0.0,0.0,0.0,0.0,0.0,0.0,0.0,0.0,0.0,0.0,0.0,0.0,0.0,0.0,0.0,0.0,0.0,0.0,0.0,0.0,0.0,0.0,0.0,0.0,0.0,0.0,0.0,0.0,0.0,0.0,0.0,0.0,0.0,0.0,0.0,0.0,0.0,0.0,0.0,0.0,0.0,0.0,0.0,0.0,0.0,0.0,0.0,0.0,0.0,0.0,0.0,0.0,0.0,0.0,0.0,0.0,0.0,0.0,0.0,0.0,0.0,0.0,0.0,0.0,0.0,0.0,0.0,0.0,0.0,0.0,0.0,0.0,0.0,0.0,0.0,0.0,0.0,0.0,0.0,0.0,0.0,0.0,0.0,0.0,0.0,0.0,0.0,0.0,0.0,0.0,0.0,0.0,0.0,0.0,0.0,0.0,0.0,0.0,0.0,0.0,0.0,3.3944,3.6538,4.1161,4.3548,4.3327,3.7671,3.1695,0.0,0.0,0.0,0.0,0.0,0.0,0.0,0.0,0.0,0.0,0.0,0.0,0.0,0.0,0.0,0.0,0.0,0.0,0.0,0.0,0.0,0.0,0.0,0.0,0.0,0.0,0.0,0.0,0.0,0.0,0.0,0.0,0.0,0.0,0.0,0.0,0.0,0.0,0.0,0.0,0.0,0.0,0.0,0.0,0.0,0.0,0.0,0.0,0.0,0.0,0.0,0.0,0.0,0.0,0.0,0.0,0.0,0.0,0.0,0.0,0.0,0.0,0.0,0.0,0.0,0.0,0.0,0.0,0.0,0.0,0.0,0.0,0.0,0.0,0.0,0.0,0.0,0.0,0.0,0.0,0.0,0.0,0.0,0.0,0.0,0.0,0.0,0.0,0.0,0.0,0.0,0.0,0.0,0.0,0.0,0.0,0.0,0.0,0.0,0.0,0.0,0.0,0.0,0.0,0.0,0.0,0.0,0.0,3.4756,3.8799,4.1923,4.3323,4.2874,3.7927,3.3715,0.0,0.0,0.0,0.0,0.0,0.0,0.0,0.0,0.0,0.0,0.0,0.0,0.0,0.0,0.0,0.0,0.0,0.0,0.0,0.0,0.0,0.0,0.0,0.0,0.0,0.0,0.0,0.0,0.0,0.0,0.0,0.0,0.0,0.0,0.0,0.0,0.0,0.0,0.0,0.0,0.0,0.0,0.0,0.0,0.0,0.0,0.0,0.0,1.7642,0.0,0.0,0.0,0.0,0.0,0.0,0.0,0.0,0.0,0.0,0.0,0.0,0.0,0.0,0.0,0.0,0.0,0.0,0.0,0.0,0.0,0.0,0.0,0.0,0.0,0.0,0.0,0.0,0.0,0.0,0.0,0.0,0.0,0.0,0.0,0.0,0.0,0.0,0.0,0.0,0.0,0.0,0.0,0.0,0.0,0.0,0.0,0.0,0.0,0.0,0.0,0.0,0.0,0.0,0.0,0.0,0.0,0.0,0.0,3.6046,3.9843,4.2421,4.3608,4.3184,3.9203,3.5345,0.0,0.0,0.0,0.0,0.0,0.0,0.0,0.0,0.0,0.0,0.0,0.0,0.0,0.0,0.0,0.0,0.0,0.0,0.0,0.0,0.0,0.0,0.0,0.0,0.0,0.0,0.0,0.0,0.0,0.0,0.0,0.0,0.0,0.0,0.0,0.0,0.0,0.0,0.0,0.0,0.0,0.0,0.0,0.0,0.0,0.0,0.0,0.0,0.0,0.0,0.0,0.0,0.0,0.0,0.0,0.0,0.0,0.0,0.0,0.0,0.0,0.0,0.0,0.0,0.0,0.0,0.0,0.0,0.0,0.0,0.0,0.0,0.0,0.0,0.0,0.0,0.0,0.0,0.0,0.0,0.0,0.0,0.0,0.0,0.0,0.0,0.0,0.0,0.0,0.0,0.0,0.0,0.0,0.0,0.0,0.0,0.0,0.0,0.0,0.0,0.0,0.0,0.0,0.0,0.0,0.0,0.0,3.2755,3.7075,4.0768,4.2867,4.3926,4.3871,4.0513,3.6514,3.1896,0.0,0.0,0.0,0.0,0.0,0.0,0.0,0.0,0.0,0.0,0.0,0.0,0.0,0.0,0.0,0.0,0.0,0.0,0.0,0.0,0.0,0.0,0.0,0.0,0.0,0.0,0.0,0.0,0.0,0.0,0.0,0.0,0.0,0.0,0.0,0.0,0.0,0.0,1.7362,1.9893,0.0,0.0,0.0,0.0,0.0,0.0,0.0,0.0,2.0369,0.0,0.0,0.0,0.0,0.0,0.0,0.0,0.0,0.0,0.0,0.0,0.0,0.0,0.0,0.0,0.0,0.0,0.0,0.0,0.0,0.0,0.0,0.0,0.0,0.0,0.0,0.0,0.0,0.0,0.0,0.0,0.0,0.0,0.0,0.0,0.0,0.0,0.0,0.0,0.0,0.0,0.0,0.0,0.0,0.0,0.0,0.0,0.0,0.0,0.0,0.0,0.0,0.0,0.0,0.0,0.0,3.2905,3.3205,3.6548,4.3184,4.3507,4.3577,4.35,4.0409,3.671,3.2514,0.0,0.0,0.0,0.0,0.0,0.0,0.0,0.0,0.0,0.0,0.0,0.0,0.0,0.0,0.0,0.0,0.0,0.0,0.0,0.0,0.0,0.0,0.0,0.0,0.0,0.0,0.0,0.0,0.0,0.0,0.0,0.0,0.0,0.0,0.0,0.0,0.0,0.0,0.0,2.2523,2.3231,0.0,0.0,0.0,0.0,0.0,0.0,0.0,0.0,2.0569,0.0,0.0,0.0,0.0,0.0,0.0,0.0,0.0,0.0,0.0,0.0,0.0,0.0,0.0,0.0,0.0,0.0,0.0,0.0,0.0,0.0,0.0,0.0,0.0,0.0,0.0,0.0,0.0,0.0,0.0,0.0,0.0,0.0,0.0,0.0,0.0,0.0,0.0,0.0,0.0,0.0,0.0,0.0,0.0,0.0,0.0,0.0,0.0,0.0,0.0,0.0,0.0,0.0,0.0,0.0,3.2467,3.4813,3.8427,4.3515,4.3596,4.3483,4.3414,3.9574,3.573,0.0,0.0,0.0,0.0,0.0,0.0,0.0,0.0,0.0,0.0,0.0,0.0,0.0,0.0,0.0,0.0,0.0,0.0,0.0,0.0,0.0,0.0,0.0,0.0,0.0,0.0,0.0,0.0,0.0,0.0,0.0,0.0,0.0,0.0,0.0,0.0,0.0,0.0,0.0,0.0,2.455,2.5326,2.6128,0.0,0.0,0.0,0.0,0.0,0.0,2.2629,2.1448,0.0,0.0,0.0,0.0,0.0,0.0,0.0,0.0,0.0,0.0,0.0,0.0,0.0,0.0,0.0,0.0,0.0,0.0,0.0,0.0,0.0,0.0,0.0,0.0,0.0,0.0,0.0,0.0,0.0,0.0,0.0,0.0,0.0,0.0,0.0,0.0,0.0,0.0,0.0,0.0,0.0,0.0,0.0,0.0,0.0,0.0,0.0,0.0,0.0,0.0,0.0,0.0,0.0,0.0,0.0,3.1348,3.5916,3.9968,4.3304,4.3483,4.3483,4.3396,3.8656,3.4578,0.0,0.0,0.0,0.0,0.0,0.0,0.0,0.0,0.0,0.0,0.0,0.0,0.0,0.0,0.0,0.0,0.0,0.0,0.0,0.0,0.0,0.0,0.0,0.0,0.0,0.0,0.0,0.0,0.0,0.0,0.0,0.0,0.0,0.0,0.0,0.0,0.0,0.0,0.0,0.0,0.0,2.7366,2.6911,2.7098,0.0,0.0,0.0,0.0,2.5943,2.4845,0.0,0.0,0.0,0.0,0.0,0.0,0.0,0.0,0.0,0.0,0.0,0.0,0.0,0.0,0.0,0.0,0.0,0.0,0.0,0.0,0.0,0.0,0.0,0.0,0.0,0.0,0.0,0.0,0.0,0.0,0.0,0.0,0.0,0.0,0.0,0.0,0.0,0.0,0.0,0.0,0.0,0.0,0.0,0.0,0.0,0.0,0.0,0.0,0.0,0.0,0.0,0.0,0.0,0.0,0.0,0.0,3.1262,3.4929,3.8969,4.3221,4.3483,4.3483,4.3414,3.8094,3.3959,0.0,0.0,0.0,0.0,0.0,0.0,0.0,0.0,0.0,0.0,0.0,0.0,0.0,0.0,0.0,0.0,0.0,0.0,0.0,0.0,0.0,0.0,0.0,0.0,0.0,0.0,0.0,0.0,0.0,0.0,0.0,0.0,0.0,0.0,0.0,0.0,0.0,0.0,0.0,0.0,0.0,2.8606,2.9275,2.8171,2.7143,0.0,0.0,2.8026,2.864,2.9618,0.0,0.0,0.0,0.0,0.0,0.0,0.0,0.0,0.0,0.0,0.0,0.0,0.0,0.0,0.0,0.0,0.0,0.0,0.0,0.0,0.0,0.0,0.0,0.0,0.0,0.0,0.0,0.0,0.0,0.0,0.0,0.0,0.0,0.0,0.0,0.0,0.0,0.0,0.0,0.0,0.0,0.0,0.0,0.0,0.0,0.0,0.0,0.0,0.0,0.0,0.0,0.0,0.0,0.0,0.0,2.6835,3.1381,3.6481,4.0537,4.3363,4.3483,4.3286,4.2823,3.6817,3.2473,0.0,0.0,0.0,0.0,0.0,0.0,0.0,0.0,0.0,0.0,0.0,0.0,0.0,0.0,0.0,0.0,0.0,0.0,0.0,0.0,0.0,0.0,0.0,0.0,0.0,0.0,0.0,0.0,0.0,0.0,0.0,0.0,0.0,0.0,0.0,0.0,0.0,0.0,0.0,0.0,0.0,0.0,3.038,3.0441,0.0,0.0,0.0,3.0663,3.0145,0.0,0.0,0.0,0.0,0.0,0.0,0.0,0.0,0.0,0.0,0.0,0.0,0.0,0.0,0.0,0.0,0.0,0.0,0.0,0.0,0.0,0.0,0.0,0.0,0.0,0.0,0.0,0.0,0.0,0.0,0.0,0.0,0.0,0.0,0.0,0.0,0.0,0.0,0.0,0.0,0.0,0.0,0.0,0.0,0.0,0.0,0.0,0.0,0.0,0.0,0.0,0.0,0.0,0.0,0.0,0.0,0.0,3.1704,3.7835,4.1807,4.3363,4.3432,4.3043,4.2145,3.6486,0.0,0.0,0.0,0.0,0.0,0.0,0.0,0.0,0.0,0.0,0.0,0.0,0.0,0.0,0.0,0.0,0.0,0.0,0.0,0.0,0.0,0.0,0.0,0.0,0.0,0.0,0.0,1.0728,0.0,0.0,0.0,0.0,0.0,0.0,0.0,0.0,0.0,0.0,0.0,0.0,0.0,0.0,3.1955,3.1411,3.2564,3.3411,0.0,0.0,3.3178,3.2238,3.341,3.2622,0.0,0.0,0.0,0.0,0.0,0.0,0.0,0.0,0.0,0.0,0.0,0.0,0.0,0.0,0.0,0.0,0.0,0.0,0.0,0.0,0.0,0.0,0.0,0.0,0.0,0.0,0.0,0.0,0.0,0.0,0.0,0.0,0.0,0.0,0.0,0.0,0.0,0.0,0.0,0.0,0.0,0.0,0.0,0.0,0.0,0.0,0.0,0.0,0.0,0.0,0.0,0.0,0.0,0.0,0.0,3.2451,3.7954,4.16,4.316,4.3228,4.2831,4.1983,3.7963,3.3908,0.0,0.0,0.0,0.0,0.0,0.0,0.0,0.0,0.0,0.0,0.0,0.0,0.0,0.0,0.0,0.0,0.0,0.0,0.0,0.0,0.0,0.0,0.0,0.0,0.0,0.0,0.0,0.0,0.0,0.0,0.0,0.0,0.0,0.0,0.0,0.0,0.0,0.0,0.0,0.0,0.0,3.2823,3.2774,3.4114,3.5599,0.0,0.0,3.5332,3.5819,3.7852,3.7008,2.9904,0.0,0.0,0.0,0.0,0.0,0.0,0.0,0.0,0.0,0.0,0.0,0.0,0.0,0.0,0.0,0.0,0.0,0.0,0.0,0.0,0.0,0.0,0.0,0.0,0.0,0.0,0.0,0.0,0.0,0.0,0.0,0.0,0.0,0.0,0.0,0.0,0.0,0.0,0.0,0.0,0.0,0.0,0.0,0.0,0.0,0.0,0.0,0.0,0.0,0.0,0.0,0.0,0.0,2.8471,3.243,3.7959,4.156,4.3137,4.321,4.2572,4.1296,3.8267,3.432,0.0,0.0,0.0,0.0,0.0,0.0,0.0,0.0,0.0,0.0,0.0,0.0,0.0,0.0,0.0,0.0,0.0,0.0,0.0,0.0,0.0,0.0,0.0,0.0,0.0,0.0,0.0,0.0,1.6478,1.7677,1.8064,0.0,0.0,0.0,0.0,0.0,0.0,0.0,0.0,0.0,0.0,3.4364,3.6365,3.7083,0.0,0.0,3.8489,3.7882,3.7151,3.7393,3.5694,2.9919,2.7769,0.0,0.0,0.0,0.0,0.0,0.0,0.0,0.0,0.0,0.0,0.0,0.0,0.0,0.0,0.0,0.0,0.0,0.0,0.0,0.0,0.0,0.0,0.0,0.0,0.0,0.0,0.0,0.0,0.0,0.0,0.0,0.0,0.0,0.0,0.0,0.0,0.0,0.0,0.0,0.0,0.0,0.0,0.0,0.0,0.0,0.0,0.0,0.0,0.0,0.0,0.0,0.0,2.8503,3.2689,3.7992,4.1481,4.3069,4.311,4.2455,4.1068,3.8935,3.5369,0.0,0.0,0.0,0.0,0.0,0.0,0.0,0.0,0.0,0.0,0.0,0.0,0.0,0.0,0.0,0.0,0.0,0.0,0.0,0.0,0.0,0.0,0.0,0.0,0.0,0.0,0.0,0.0,1.8615,1.9443,1.7906,0.0,0.0,0.0,0.0,0.0,0.0,0.0,0.0,0.0,0.0,3.6229,3.8248,3.8434,3.8626,3.9437,3.8695,3.7766,3.6875,3.6457,3.4741,3.0403,0.0,0.0,0.0,0.0,0.0,0.0,0.0,0.0,0.0,0.0,0.0,0.0,0.0,0.0,0.0,0.0,0.0,0.0,0.0,0.0,0.0,0.0,0.0,0.0,0.0,0.0,0.0,0.0,0.0,0.0,1.4591,0.0,0.0,0.0,0.0,0.0,0.0,0.0,0.0,0.0,0.0,0.0,0.0,0.0,0.0,0.0,0.0,0.0,0.0,0.0,0.0,0.0,0.0,2.8693,3.3429,3.8133,4.1293,4.2865,4.2919,4.2511,4.1664,4.0166,3.7417,3.3306,0.0,0.0,0.0,0.0,0.0,0.0,0.0,0.0,0.0,0.0,0.0,0.0,0.0,0.0,0.0,0.0,0.0,0.0,0.0,0.0,0.0,0.0,0.0,0.0,0.0,0.0,1.4953,1.6929,1.7704,0.0,0.0,0.0,0.0,0.0,0.0,0.0,0.0,0.0,0.0,3.5125,3.8311,3.7621,3.7537,3.789,3.8687,3.6135,3.4282,3.509,3.5644,3.5012,0.0,0.0,0.0,0.0,0.0,0.0,0.0,0.0,0.0,0.0,0.0,0.0,0.0,0.0,0.0,0.0,0.0,0.0,0.0,0.0,0.0,0.0,0.0,0.0,0.0,0.0,0.0,1.9859,1.9581,0.0,0.0,0.0,0.0,0.0,0.0,0.0,0.0,0.0,0.0,0.0,3.0678,3.0433,0.0,0.0,0.0,0.0,0.0,0.0,0.0,0.0,0.0,0.0,0.0,0.0,2.9721,3.3473,3.8631,4.1827,4.2855,4.291,4.2502,4.1723,4.0677,3.7504,3.1969,0.0,0.0,0.0,0.0,0.0,0.0,0.0,0.0,0.0,0.0,0.0,0.0,0.0,0.0,0.0,0.0,0.0,0.0,0.0,0.0,0.0,0.0,0.0,0.0,0.0,1.7211,0.0,0.0,0.0,0.0,0.0,0.0,0.0,0.0,0.0,0.0,0.0,2.9482,3.3004,3.503,3.6479,3.7247,3.7863,3.8674,0.0,0.0,0.0,0.0,0.0,0.0,0.0,0.0,0.0,0.0,0.0,0.0,0.0,0.0,3.3462,2.7407,2.5863,2.5764,2.6558,0.0,0.0,0.0,0.0,0.0,0.0,0.0,0.0,0.0,0.0,0.0,0.0,0.0,0.0,0.0,0.0,2.3765,0.0,0.0,0.0,0.0,0.0,0.0,0.0,0.0,3.1015,3.3491,3.5914,3.5932,3.5805,0.0,3.3669,2.953,0.0,0.0,0.0,0.0,0.0,0.0,0.0,0.0,3.0641,3.3922,3.9021,4.2094,4.2855,4.291,4.2656,4.2112,4.0809,3.792,3.3223,2.9992,2.6937,0.0,0.0,0.0,0.0,0.0,0.0,0.0,0.0,0.0,0.0,0.0,0.0,0.0,0.0,0.0,0.0,0.0,0.0,0.0,0.0,0.0,0.0,0.0,1.872,0.0,0.0,0.0,0.0,0.0,0.0,0.0,0.0,0.0,2.732,2.9719,3.2577,3.5747,3.6632,3.7037,3.7247,0.0,0.0,0.0,0.0,0.0,0.0,0.0,3.3432,3.3916,3.3415,3.359,3.5632,3.7654,3.8827,3.829,0.0,0.0,3.2476,3.1237,3.1382,3.1905,3.222,3.2553,3.3073,3.3596,3.3895,0.0,0.0,0.0,0.0,0.0,0.0,0.0,0.0,3.2175,3.199,0.0,2.9594,0.0,0.0,0.0,0.0,0.0,3.0057,0.0,0.0,4.0047,4.2031,4.0718,4.0628,4.0288,3.9595,3.8752,3.6743,3.3597,2.8333,0.0,0.0,0.0,0.0,0.0,0.0,3.1523,3.4874,3.94,4.2135,4.2878,4.291,4.2892,4.2765,4.0682,3.8703,3.6995,3.3998,3.1238,2.8708,2.4219,0.0,0.0,0.0,0.0,0.0,0.0,0.0,0.0,0.0,0.0,0.0,0.0,0.0,0.0,0.0,0.0,0.0,0.0,0.0,0.0,1.8772,0.0,0.0,0.0,0.0,0.0,0.0,0.0,0.0,0.0,0.0,2.9366,3.3083,3.6532,3.8026,0.0,0.0,0.0,0.0,3.7606,3.5457,3.4366,3.3961,3.4044,3.5756,3.7072,3.714,0.0,0.0,4.0926,4.0709,4.0329,3.8788,4.108,4.2505,4.08,3.9103,3.8263,3.8259,3.7747,3.7366,3.7374,3.7553,3.7722,4.0567,0.0,0.0,0.0,0.0,3.4837,3.6228,3.8678,3.7761,3.6926,3.6073,3.4468,0.0,0.0,0.0,0.0,0.0,0.0,3.5718,3.8825,4.0514,4.2516,4.4738,4.4199,4.4114,4.4417,4.3073,4.1954,4.0967,3.8299,3.2733,2.4658,0.0,0.0,0.0,0.0,3.3969,3.7188,4.0741,4.267,4.291,4.291,4.2615,4.2058,4.1388,4.0057,3.7937,3.6951,3.4574,3.0499,2.7912,0.0,0.0,0.0,0.0,0.0,0.0,0.0,0.0,0.0,0.0,0.0,0.0,0.0,0.0,0.0,0.0,0.0,0.0,0.0,1.8717,2.0087,2.0822,0.0,0.0,0.0,0.0,0.0,0.0,0.0,0.0,0.0,3.5381,3.5218,3.544,0.0,0.0,3.6625,3.4758,3.6678,3.8466,3.8817,0.0,0.0,0.0,3.8909,3.8439,4.0088,4.2742,4.4323,4.3519,4.4295,4.4809,4.3935,4.4548,4.4854,4.3856,4.2997,4.241,4.2389,4.2235,4.2299,4.2806,4.2951,4.2963,4.8327,4.3439,4.0652,3.9917,4.0606,4.0408,4.1783,4.4094,4.3455,4.2888,4.2326,4.0763,3.8891,3.691,3.5676,0.0,0.0,0.0,3.9744,4.2891,4.291,4.4373,4.6843,4.6481,4.6494,4.6892,4.5671,4.5055,4.5037,4.3416,3.8825,3.1495,0.0,0.0,3.0175,3.3853,3.7037,3.9568,4.2077,4.3381,4.3376,4.3073,4.267,4.2185,4.1872,4.104,3.9641,3.8993,3.7186,3.398,3.1398,2.793,0.0,0.0,0.0,0.0,0.0,0.0,0.0,0.0,0.0,0.0,0.0,1.5214,1.22,0.0,0.0,0.0,1.7974,2.0138,2.1892,2.2866,0.0,0.0,0.0,0.0,0.0,0.0,0.0,3.1101,3.5038,3.8033,3.8955,3.8156,3.7896,3.8997,3.888,3.8188,3.687,0.0,4.069,4.094,4.1243,4.1708,4.2439,4.1533,4.1327,4.3145,4.4607,4.5484,4.5252,4.5981,4.6448,4.6201,4.6116,4.5952,4.546,4.5111,4.4766,4.4492,4.4671,4.5076,4.5553,4.5549,4.5487,5.452,5.3228,4.6815,4.4431,4.4908,4.5583,4.6659,4.8038,4.8757,4.9059,4.8878,4.7368,4.587,4.43,4.1456,0.0,4.1316,4.2792,4.4667,4.6776,4.6721,4.7073,4.7779,4.7707,4.7694,4.7694,4.6952,4.6607,4.6522,4.5096,4.319,4.0881,3.8721,3.7128,3.6286,3.8337,4.0274,4.1872,4.3348,4.4105,4.4087,4.3381,4.2982,4.2892,4.2112,4.1669,4.1565,4.0184,3.8961,3.7951,3.4411,3.0934,2.7664,0.0,0.0,0.0,0.0,0.0,0.0,0.0,0.0,0.0,0.0,0.0,0.0,0.0,0.0,0.0,2.3757,0.0,2.6608,2.668,0.0,0.0,0.0,2.9248,3.2436,3.4791,3.6449,3.719,0.0,0.0,4.0877,4.1533,4.2578,4.4173,4.3526,4.2611,4.1818,4.2935,4.359,4.2173,4.2638,4.2972,4.2849,4.3602,4.4648,4.5634,4.6116,4.6046,4.5944,4.5978,4.6031,4.5924,4.598,4.5955,4.5974,4.5833,4.5746,4.4952,4.5494,4.6076,4.6067,4.5889,4.5799,5.5305,5.449,5.2804,5.1505,5.0492,5.0063,5.0112,5.0457,5.0633,5.0385,4.9751,4.8775,4.8105,4.7707,4.6964,4.7078,4.7836,4.8217,4.8682,4.9195,4.8617,4.8426,4.8589,4.7996,4.7694,4.7689,4.7513,4.7417,4.7399,4.7019,4.5938,4.4222,4.3588,4.1728,3.8717,3.9672,4.1343,4.3516,4.3901,4.4105,4.4105,4.3901,4.3507,4.2914,4.2112,4.142,4.0809,3.9912,3.8445,3.6445,3.4892,3.2578,2.9361,2.3976,0.0,0.0,0.0,0.0,0.0,0.0,0.0,0.0,0.0,1.932,1.406,0.0,2.1498,0.0,2.4404,2.7946,3.0577,3.0275,0.0,0.0,3.2839,3.3509,3.7267,3.8699,3.9473,3.9636,4.1759,4.3485,4.4091,4.4326,4.5032,4.6553,4.4553,4.2615,4.1899,4.3256,4.4294,4.3994,4.4626,4.5281,4.5088,4.5423,4.575,4.6064,4.6103,4.598,4.5563,4.5498,4.5392,4.5039,4.4954,4.4947,4.4981,4.4954,4.4916,4.4762,4.5444,4.6116,4.6122,4.6033,4.601,5.6307,5.5903,5.554,5.4279,5.248,5.2408,5.2353,5.2341,5.1979,5.1586,5.1145,5.07,5.0301,4.9993,5.0338,5.0361,5.0142,5.0486,5.0432,5.0082,4.9642,4.9438,4.9396,4.8612,4.8232,4.8208,4.787,4.7694,4.7694,4.7694,4.7254,4.6395,4.6372,4.4973,4.2328,4.2145,4.2932,4.4607,4.4621,4.4644,4.4616,4.4081,4.3169,4.185,4.073,3.9362,3.7747,3.6931,3.5734,3.4101,3.303,3.1495,2.9318,2.499,2.2184,0.0,0.0,0.0,0.0,0.0,0.0,0.0,0.0,0.0,0.0,0.0,2.4734,2.4561,2.8872,3.2263,3.3702,3.4394,3.5729,3.8161,3.7934,3.8943,4.2221,4.2927,4.3307,4.3669,4.4892,4.5865,4.6305,4.6359,4.6579,4.7254,4.5818,4.4512,4.4194,4.4963,4.5499,4.5297,4.5722,4.5993,4.5787,4.555,4.5429,4.5418,4.5429,4.5317,4.5052,4.4974,4.4906,4.4661,4.4591,4.4591,4.4591,4.4591,4.4591,4.4675,4.5042,4.5383,4.5425,4.5606,4.5701,5.7188,5.714,5.6458,5.4967,5.315,5.3753,5.3579,5.2896,5.2196,5.2009,5.2214,5.2395,5.2123,5.1508,5.2178,5.1743,5.0463,5.1127,5.1079,5.0408,5.0305,5.0251,5.0227,4.9432,4.9065,4.901,4.8232,4.7857,4.7852,4.7743,4.7621,4.7447,4.7436,4.6805,4.5563,4.4535,4.4397,4.5093,4.5265,4.5255,4.5043,4.3876,4.226,4.0203,3.8592,3.6566,3.41,3.3152,3.2374,3.166,3.0584,2.9702,2.9024,2.6058,2.4141,0.0,2.1351,0.0,0.0,0.0,0.0,0.0,0.0,0.0,0.0,2.8023,2.9044,3.0726,3.4781,3.719,3.6876,3.8758,4.0619,4.2139,4.2936,4.425,4.6341,4.6662,4.6933,4.7616,4.7641,4.7599,4.7516,4.7567,4.7291,4.6891,4.6681,4.6421,4.6582,4.65,4.633,4.6067,4.5949,4.564,4.5274,4.4893,4.4644,4.4626,4.4665,4.4591,4.4633,4.4619,4.4598,4.4591,4.4591,4.4591,4.4591,4.4591,4.4591,4.4598,4.4654,4.4665,4.4709,4.4957,4.5055,5.7188,5.7188,5.7032,5.6706,5.6271,5.5782,5.2987,4.8829,4.8666,4.9353,5.0644,5.1924,5.2395,5.2286,5.2431,5.2347,5.2069,5.2196,5.2196,5.2033,5.1381,5.1073,5.1024,5.0245,4.9883,4.9805,4.907,4.8679,4.8661,4.8009,4.7165,4.6108,4.6085,4.5642,4.4741,0.0,0.0,0.0,4.5106,4.4995,4.372,4.2923,4.1144,3.8308,3.6358,0.0,3.2905,3.2034,3.1379,3.0879,3.0945,0.0,0.0,0.0,0.0,0.0,0.0,0.0,0.0,0.0,0.0,0.0,3.0785,2.9674,2.8578,3.1351,3.419,3.6411,3.806,3.9935,4.2307,4.2905,4.3847,4.5376,4.5725,4.625,4.735,4.7459,4.7544,4.7671,4.7331,4.7062,4.7079,4.6683,4.64,4.631,4.6256,4.6061,4.5678,4.5635,4.5588,4.5446,4.5189,4.4896,4.4738,4.4675,4.4591,4.4591,4.4591,4.4591,4.4591,4.4591,4.4591,4.4591,4.4591,4.4591,4.4591,4.4591,4.4591,4.4591,4.4591,4.4591,4.4591,4.4675,4.4706,5.6314,0.0,5.6635,5.6075,0.0,5.4905,5.2594,4.8961,5.0156,5.0886,5.1327,5.2142,5.2498,5.2468,5.2087,5.1912,5.1888,5.1495,5.155,5.187,5.1495,5.1508,5.187,5.1073,5.0686,5.0657,4.9872,4.916,4.8517,4.8111,4.7336,4.6303,4.6022,4.5687,4.5269,4.453,4.4213,4.4348,4.497,4.5104,4.4668,4.3744,4.1848,3.9034,0.0,0.0,0.0,0.0,0.0,0.0,0.0,0.0,0.0,0.0,0.0,3.1734,3.0892,3.1057,3.2614,3.31,3.4371,3.6721,3.7635,3.6725,3.3592,3.6639,3.9369,4.0954,4.2199,4.3552,4.5096,4.5635,4.6214,4.6988,4.7096,4.7272,4.7621,4.7694,4.7694,4.7678,4.745,4.7291,4.728,4.6816,4.6394,4.6117,4.5874,4.5535,4.5095,4.5165,4.5224,4.4988,4.4772,4.4598,4.4591,4.4591,4.4591,4.4591,4.4591,4.4591,4.4591,4.4591,4.4591,4.4591,4.4591,4.4591,4.4591,4.4591,4.4591,4.4591,4.4591,4.4591,4.4591,4.4591,4.4591,5.5451,5.5604,5.6087,5.5227,5.354,5.4079,5.312,5.1242,0.0,0.0,0.0,5.2444,5.2498,5.2444,5.1803,5.1513,5.1453,5.0825,5.0885,5.1508,5.1513,5.1806,5.228,5.1671,5.1294,5.1159,5.039,4.9433,4.8366,4.8075,4.756,4.6832,4.6253,4.59,4.578,4.5106,4.4747,4.4831,4.4797,4.501,4.5512,4.4393,4.2541,3.995,3.8328,3.5756,3.2172,3.1803,3.1205,3.009,3.0585,3.1217,3.1833,3.2663,3.3631,3.4782,3.5414,3.6328,3.7739,3.8581,3.9699,4.1248,4.3172,4.2923,3.9654,4.1823,4.3666,4.4463,4.5738,4.6535,4.6693,4.7296,4.7694,4.7694,4.762,4.7543,4.7538,4.7468,4.7369,4.7412,4.7252,4.7258,4.7169,4.6718,4.6346,4.5874,4.5425,4.5051,4.4762,4.4934,4.5008,4.4706,4.4612,4.4591,4.4591,4.4591,4.4591,4.4591,4.4591,4.4591,4.4591,4.4591,4.4591,4.4591,4.4591,4.4591,4.4591,4.4591,4.4591,4.4591,4.4591,4.4591,4.4591,4.4591,4.4591,5.5641,5.617,5.6263,5.6409,5.6581,5.6668,5.612,5.4985,5.2685,5.1586,5.1508,5.2196,5.2498,5.2498,5.2389,5.2335,5.2323,5.2214,5.2232,0.0,5.2317,5.2107,5.1737,5.1611,5.1291,5.0735,4.9971,4.9483,4.9189,4.7983,4.7059,4.6534,4.5786,4.5225,4.4862,4.5069,4.5007,4.4637,4.4358,4.3957,4.3437,4.2636,4.1118,3.8818,3.699,3.5092,3.3254,3.2603,3.2239,3.2327,3.2735,3.3748,3.5421,3.6236,3.7245,3.854,3.9482,4.0323,4.099,4.1782,4.2928,4.4458,4.4947,4.4856,4.439,4.4693,4.5309,4.6082,4.6408,4.6789,4.7422,4.7621,4.7694,4.7662,4.7298,4.7028,4.7034,4.6684,4.6436,4.6406,4.59,4.5753,4.5857,4.545,4.522,4.4934,4.5029,4.4729,4.4722,4.4661,4.4682,4.4612,4.4591,4.4591,4.4591,4.4591,4.4591,4.4591,4.4591,4.4591,4.4591,4.4591,4.4591,4.4591,4.4591,4.4591,4.4591,4.4591,4.4591,4.4591,4.4591,4.4591,4.4591,4.4591,4.4591,5.4875,5.4823,5.5137,5.542,5.5738,5.6423,5.6503,5.6026,5.4538,5.3627,5.3246,5.3186,5.315,5.3078,5.2232,5.1852,5.1839,5.1405,5.1251,5.1359,5.1365,5.1283,5.1121,5.11,5.0975,5.0676,5.0333,4.9804,4.911,4.8394,4.7541,4.6524,4.5686,4.5011,4.4487,4.4755,4.4721,4.4334,4.4371,4.4217,4.389,4.3535,4.2648,4.1205,4.0254,3.9145,3.7697,3.7297,3.7022,3.6769,3.6768,3.7253,3.8291,3.8761,3.9328,4.0121,4.1198,4.1918,4.2158,4.331,4.4295,4.5041,4.577,4.6162,4.6162,4.6039,4.6282,4.706,4.7145,4.729,4.7652,4.7694,4.7694,4.7694,4.7555,4.7325,4.6964,4.6819,4.6531,4.6196,4.6242,4.6327,4.6316,4.6273,4.6226,4.6171,4.5715,4.5234,4.5176,4.4838,4.4591,4.4591,4.4591,4.4591,4.4591,4.4591,4.4591,4.4591,4.4591,4.4591,4.4591,4.4591,4.4591,4.4591,4.4591,4.4591,4.4591,4.4591,4.4591,4.4591,4.4591,4.4591,4.4591,4.4591,4.4591,5.45,5.4014,5.4435,5.465,5.4711,5.5673,5.6087,5.6082,5.5889,5.5538,5.4945,5.412,5.3574,5.3181,5.1982,5.1335,5.11,5.0525,5.0319,5.0446,5.0474,5.0477,5.0503,5.0525,5.0463,5.0345,5.0324,4.9808,4.8929,4.8651,4.775,4.6357,4.562,4.4985,4.4381,4.4511,4.4464,4.4234,4.4429,4.4528,4.4485,4.4485,4.4191,4.3607,4.3388,4.2811,4.172,4.1539,4.1187,4.0644,4.0346,4.0385,4.0719,4.0916,4.1146,4.1497,4.2381,4.3051,4.3345,4.4384,4.5164,4.537,4.6305,4.6857,4.6729,4.6535,4.6717,4.7392,4.7464,4.7482,4.7515,4.7567,4.7626,4.774,4.7849,4.765,4.7179,4.71,4.6906,4.6414,4.6756,4.7076,4.7147,4.7289,4.7287,4.7113,4.6543,4.5988,4.5872,4.5304,4.4888,4.4821,4.4726,4.4591,4.4591,4.4591,4.4591,4.4591,4.4591,4.4591,4.4591,4.4591,4.4591,4.4591,4.4591,4.4591,4.4591,4.4591,4.4591,4.4591,4.4591,4.4591,4.4591,4.4591,4.4591,5.5477,5.5333,5.5337,5.5368,5.5246,5.5414,5.548,5.5487,5.5458,5.5412,5.5192,5.4305,5.3238,5.2151,5.1939,5.1473,5.0823,5.0689,5.064,5.0644,5.0673,5.042,5.0002,4.9974,4.9686,4.9258,4.9205,4.9178,4.8944,4.8135,4.6997,4.5652,4.5424,4.5161,4.4667,4.4604,4.4587,4.4542,4.4412,4.4267,4.4148,4.414,4.41,4.4057,4.3506,4.3159,4.297,4.249,4.2175,4.2113,4.2052,4.2227,4.2656,4.2948,4.3175,4.3353,4.3729,4.4366,4.5252,4.5552,4.587,4.6626,4.671,4.6654,4.6238,4.615,4.6371,4.6864,4.6984,4.7042,4.6967,4.7169,4.7522,4.7915,4.7839,4.7609,4.7485,4.7126,4.6801,4.675,4.6836,4.6833,4.6951,4.7073,4.7034,4.7182,4.6956,4.6694,4.6633,4.6075,4.5551,4.5449,4.5074,4.4658,4.4608,4.4591,4.4591,4.4591,4.4591,4.4591,4.4591,4.4591,4.4591,4.4591,4.4591,4.4591,4.4591,4.4591,4.4591,4.4591,4.4591,4.4591,4.4591,4.4591,4.4591,5.6052,5.5579,5.5153,5.4704,5.4343,5.4651,5.4811,5.4841,5.5254,5.5192,5.4787,5.4363,5.3836,5.319,5.233,5.1723,5.1386,5.0908,5.0521,5.0251,5.0216,4.993,4.9391,4.9273,4.9146,4.9001,4.8925,4.8916,4.882,4.804,4.7237,4.6599,4.6181,4.5772,4.542,4.5114,4.4869,4.465,4.4264,4.3974,4.3857,4.4083,4.4217,4.4191,4.3964,4.3799,4.3721,4.3482,4.3401,4.3444,4.308,4.2956,4.3217,4.2918,4.2784,4.2892,4.3392,4.408,4.499,4.5063,4.5191,4.5516,4.5798,4.5838,4.5684,4.5924,4.626,4.661,4.6894,4.7084,4.7124,4.7578,4.8015,4.8209,4.8244,4.8082,4.7634,4.7534,4.7327,4.6936,4.7175,4.7462,4.7522,4.7834,4.8071,4.8037,4.7784,4.7447,4.7404,4.6819,4.6194,4.5763,4.5408,4.5084,4.4719,4.4591,4.4591,4.4591,4.4591,4.4591,4.4591,4.4591,4.4591,4.4591,4.4591,4.4591,4.4591,4.4591,4.4591,4.4591,4.4591,4.4591,4.4591,4.4591,4.4591,5.6655,5.5902,5.4989,5.4304,5.383,5.4048,5.4147,5.4195,5.4676,5.4598,5.4171,5.4147,5.4091,5.3827,5.2589,5.1919,5.1623,5.0898,5.0308,4.9896,4.9695,4.9341,4.8885,4.8777,4.8777,4.8839,4.8753,4.8737,4.8709,4.8138,4.7627,4.7275,4.6767,4.6361,4.6089,4.5663,4.5284,4.4829,4.4401,4.4053,4.3848,4.4039,4.416,4.4124,4.416,4.4148,4.4063,4.4075,4.414,4.4215,4.3753,4.3547,4.3607,4.3179,4.2919,4.2953,4.342,4.4054,4.4732,4.4793,4.4793,4.4828,4.5125,4.523,4.5222,4.5647,4.6048,4.6282,4.6928,4.7373,4.7385,4.7885,4.829,4.8461,4.8677,4.8535,4.809,4.8119,4.7996,4.7547,4.7928,4.8199,4.8259,4.8605,4.89,4.8849,4.8503,4.8191,4.8107,4.7573,4.6836,4.6126,4.5848,4.5382,4.4753,4.4591,4.4591,4.4591,4.4591,4.4591,4.4591,4.4591,4.4591,4.4591,4.4591,4.4591,4.4591,4.4591,4.4591,4.4591,4.4591,4.4591,4.4591,4.4591,4.4591,5.7434,5.6579,5.5201,5.4583,5.449,5.3847,5.3543,5.3568,5.3618,5.3576,5.3559,5.3543,5.3542,5.3474,5.265,5.1915,5.1228,5.0545,5.0086,4.9839,4.9241,4.8762,4.8514,4.8498,4.8523,4.8563,4.8523,4.8428,4.8284,4.8169,4.782,4.7154,4.7104,4.6816,4.6409,4.6281,4.5901,4.5308,4.4995,4.4619,4.4185,4.4021,4.3937,4.3776,4.3829,4.3934,4.3927,4.4034,4.4097,4.4097,4.415,4.4219,4.424,4.4333,4.4374,4.4401,4.4475,4.4711,4.5097,4.5168,4.5181,4.5221,4.5188,4.5115,4.4884,4.5362,4.5797,4.5826,4.7107,4.7741,4.7705,4.793,4.8255,4.8645,4.8865,4.8896,4.8909,4.8824,4.8941,4.8815,4.8798,4.8832,4.89,4.896,4.9001,4.8994,4.8943,4.8868,4.8734,4.8261,4.7551,4.6763,4.6111,4.5449,4.477,4.4591,4.4591,4.4591,4.4591,4.4591,4.4591,4.4591,4.4591,4.4591,4.4591,4.4591,4.4591,4.4591,4.4591,4.4591,4.4591,4.4591,4.4591,4.4591,4.4567,5.7451,5.6713,5.5592,5.4848,5.4352,5.3763,5.3348,5.3144,5.3255,5.323,5.3144,5.3118,5.3127,5.3102,5.2824,5.2346,5.1747,5.1005,5.0326,4.9744,4.9434,4.9024,4.8516,4.8372,4.838,4.8475,4.8364,4.8276,4.8211,4.8195,4.8038,4.7767,4.7668,4.7567,4.7349,4.6917,4.6551,4.6244,4.5766,4.5375,4.5186,4.5158,4.4857,4.4315,4.4025,4.3846,4.3719,4.3754,4.3835,4.3954,4.4027,4.4083,4.4152,4.4234,4.4286,4.4294,4.4286,4.4388,4.4611,4.4659,4.4718,4.4814,4.4715,4.4917,4.521,4.5457,4.5934,4.6935,4.7498,4.8005,4.8427,4.8567,4.8672,4.8865,4.8961,4.9001,4.9018,4.9018,4.9018,4.9018,4.9018,4.9018,4.9018,4.9018,4.9018,4.8986,4.8916,4.8879,4.8846,4.861,4.8028,4.6956,4.6466,4.5974,4.4719,4.4608,4.4591,4.4591,4.4591,4.4591,4.4591,4.4577,4.457,4.4532,4.4546,4.4535,4.4521,4.4542,4.4549,4.4542,4.4549,4.4549,4.4591,4.4522,4.4464,5.7412,5.6862,5.6019,5.5242,5.4513,5.392,5.3397,5.3032,5.3067,5.3059,5.2981,5.2929,5.2894,5.2894,5.2894,5.2686,5.221,5.1573,5.0877,5.0234,4.9975,4.9558,4.9058,4.867,4.8561,4.8609,4.8295,4.8139,4.8139,4.8147,4.8082,4.8001,4.8001,4.8001,4.7901,4.7487,4.7156,4.6858,4.6402,4.6079,4.5855,4.5813,4.5581,4.51,4.4702,4.4197,4.3655,4.3615,4.3658,4.3785,4.3868,4.3971,4.4068,4.4097,4.4097,4.4097,4.4104,4.414,4.4217,4.4239,4.4399,4.4752,4.4707,4.4964,4.5784,4.5989,4.6636,4.7486,4.8005,4.835,4.867,4.8822,4.8877,4.897,4.9018,4.897,4.8949,4.8916,4.8924,4.8924,4.897,4.8994,4.9001,4.9018,4.8995,4.8949,4.8864,4.8785,4.8722,4.8656,4.8169,4.6791,4.6574,4.5923,4.4946,4.4528,4.457,4.4577,4.4591,4.4591,4.4563,4.4549,4.4521,4.449,4.4468,4.444,4.444,4.4485,4.4485,4.4464,4.4457,4.4426,4.4428,4.4398,4.435,5.7308,5.7159,5.6493,5.5707,5.4946,5.4244,5.3661,5.3134,5.2972,5.2972,5.3032,5.2938,5.285,5.286,5.2825,5.2747,5.2476,5.1997,5.1621,5.125,5.0684,5.0283,5.0014,4.9401,4.9061,4.9011,4.8348,4.8025,4.8017,4.8025,4.8009,4.8001,4.8001,4.8001,4.8001,4.7901,4.7603,4.7123,4.6932,4.6593,4.5938,4.5988,4.5955,4.5822,4.5764,4.5118,4.3804,4.3705,4.3679,4.3635,4.3778,4.3954,4.4032,4.4054,4.4068,4.4054,4.4075,4.4083,4.4114,4.4164,4.4516,4.5004,4.5171,4.5513,4.628,4.6859,4.7303,4.7609,4.8086,4.8506,4.8522,4.8547,4.8666,4.8924,4.8947,4.8902,4.8816,4.8785,4.8793,4.8801,4.8862,4.897,4.8986,4.8947,4.8885,4.8809,4.8755,4.8675,4.854,4.8516,4.7846,4.6773,4.6342,4.5925,4.5132,4.4447,4.4504,4.4563,4.4577,4.4584,4.4514,4.4478,4.4384,4.4355,4.4277,4.4248,4.4262,4.4301,4.4277,4.4262,4.4284,4.4298,4.4265,4.4245,4.4184,5.716,5.7187,5.6371,5.5562,5.4856,5.4246,5.3517,5.2691,5.2676,5.2676,5.264,5.257,5.256,5.2569,5.256,5.2533,5.2438,5.2251,5.1919,5.141,5.1136,5.0753,5.027,4.9971,4.9582,4.9036,4.8349,4.8001,4.8001,4.8001,4.8001,4.8001,4.8001,4.8001,4.8001,4.8001,4.7852,4.7694,4.7669,4.7537,4.7338,4.7305,4.7057,4.6617,4.6543,4.6079,4.5176,4.4629,4.4117,4.3679,4.3658,4.371,4.3771,4.3761,4.3761,4.3745,4.3745,4.3813,4.4023,4.4414,4.4818,4.5202,4.5534,4.6159,4.6889,4.7178,4.7553,4.8008,4.8374,4.8491,4.8491,4.8491,4.8539,4.8634,4.8674,4.8666,4.8611,4.8586,4.8595,4.8603,4.8626,4.8649,4.8657,4.8657,4.8657,4.8603,4.8492,4.8381,4.8332,4.8308,4.7716,4.6447,4.6268,4.5854,4.4833,4.4255,4.4305,4.4393,4.445,4.4454,4.4405,4.4327,4.4255,4.4145,4.409,4.4061,4.4083,4.4104,4.4104,4.4112,4.414,4.4133,4.4112,4.4059,4.4011,5.6968,5.7003,5.6447,5.5766,5.5051,5.4439,5.3696,5.2905,5.2624,5.2525,5.248,5.2418,5.24,5.24,5.24,5.24,5.24,5.24,5.2159,5.1771,5.1704,5.143,5.0982,5.0717,5.0038,4.9185,4.8622,4.8266,4.8001,4.8001,4.8001,4.8001,4.8001,4.8001,4.8001,4.8001,4.8001,4.8001,4.8001,4.8001,4.8001,4.8001,4.7785,4.7371,4.7313,4.6924,4.6236,4.5747,4.5185,4.4565,4.4408,4.4424,4.4408,4.4456,4.4408,4.4408,4.444,4.4502,4.4649,4.5056,4.5444,4.5795,4.614,4.669,4.7394,4.7522,4.7804,4.8192,4.8292,4.8324,4.83,4.83,4.8324,4.8333,4.846,4.846,4.8403,4.8388,4.8405,4.8404,4.846,4.8483,4.8491,4.8491,4.846,4.8396,4.8284,4.8155,4.8155,4.8139,4.7266,4.6491,4.6133,4.5417,4.4328,4.4054,4.4104,4.4184,4.4279,4.427,4.4241,4.4148,4.4061,4.3913,4.3818,4.3828,4.385,4.3952,4.3988,4.4003,4.3974,4.3945,4.3925,4.3872,4.3836,5.6699,5.6706,5.6699,5.6235,5.5494,5.4775,5.4114,5.3551,5.2754,5.248,5.2526,5.2445,5.24,5.24,5.24,5.24,5.24,5.24,5.2375,5.2317,5.2301,5.2218,5.2077,5.148,5.0494,4.94,4.9102,4.8672,4.8034,4.8001,4.8001,4.8001,4.8001,4.8001,4.8001,4.8001,4.8001,4.8001,4.8001,4.8001,4.8001,4.8001,4.7984,4.7934,4.7893,4.762,4.7065,4.6882,4.651,4.5888,4.5607,4.5574,4.5723,4.5789,4.564,4.5607,4.5756,4.5673,4.5747,4.5812,4.6127,4.6633,4.6889,4.7222,4.781,4.7917,4.7926,4.8041,4.805,4.8033,4.8042,4.8042,4.805,4.8033,4.826,4.8332,4.8219,4.8187,4.8195,4.8227,4.8348,4.8452,4.8412,4.842,4.834,4.8243,4.8171,4.8115,4.8049,4.7859,4.7255,4.6639,4.6026,4.5177,4.4158,4.3888,4.3915,4.3937,4.4017,4.4054,4.4054,4.3974,4.3886,4.3747,4.3656,4.3643,4.3665,4.3783,4.3813,4.3769,4.3747,4.3748,4.3741,4.3734,4.3726,5.6706,5.6706,5.6706,5.6282,5.5542,5.4823,5.4114,5.3447,5.2724,5.2427,5.2436,5.2409,5.24,5.24,5.24,5.24,5.24,5.24,5.24,5.24,5.24,5.24,5.2259,5.1654,5.085,4.9963,4.9392,4.8705,4.805,4.8017,4.8001,4.8001,4.8001,4.8001,4.8001,4.8001,4.8001,4.8001,4.8001,4.8001,4.8001,4.8001,4.8001,4.8001,4.8001,4.7901,4.7719,4.7719,4.7065,4.5922,4.5813,4.5813,4.5888,4.5905,4.5946,4.5946,4.5872,4.5847,4.5946,4.6336,4.6709,4.6908,4.7388,4.7777,4.7968,4.8001,4.8001,4.8001,4.8001,4.8001,4.8001,4.8001,4.8001,4.8001,4.8115,4.8131,4.8074,4.8058,4.8058,4.8066,4.8106,4.8164,4.8155,4.8155,4.8131,4.8074,4.8058,4.8058,4.8017,4.7951,4.7487,4.646,4.5703,4.4924,4.4251,4.3885,4.371,4.3702,4.3754,4.3813,4.382,4.3791,4.3717,4.3628,4.3635,4.3621,4.363,4.3682,4.3613,4.3613,4.3628,4.3674,4.3659,4.3652,4.3659,5.6706,5.6706,5.6706,5.6448,5.5942,5.4939,5.4243,5.3723,5.283,5.24,5.24,5.24,5.24,5.24,5.24,5.24,5.24,5.24,5.24,5.24,5.24,5.24,5.2284,5.1887,5.1364,5.0651,4.9897,4.9185,4.8522,4.8175,4.8017,4.8001,4.8001,4.8001,4.8001,4.8001,4.8001,4.8001,4.8001,4.8001,4.8001,4.8001,4.8001,4.8001,4.8001,4.8001,4.7993,4.8001,4.7554,4.6899,4.6733,4.6725,4.6709,4.6709,4.6717,4.6733,4.6725,4.675,4.68,4.7147,4.7346,4.7421,4.7819,4.7951,4.8001,4.8001,4.8001,4.8001,4.8001,4.8001,4.8001,4.8001,4.8001,4.8001,4.8001,4.8001,4.8001,4.8009,4.8001,4.8001,4.8001,4.8001,4.8001,4.8001,4.8001,4.8001,4.8017,4.8009,4.8001,4.7951,4.7669,4.6659,4.5847,4.5208,4.4479,4.4046,4.3707,4.3661,4.3628,4.3682,4.3689,4.3689,4.3643,4.3606,4.3622,4.3615,4.3615,4.3615,4.3615,4.3606,4.3615,4.3615,4.3615,4.3615,4.3615,5.6706,5.6706,5.6706,5.6706,5.6441,5.513,5.4475,5.421,5.2995,5.24,5.24,5.24,5.24,5.24,5.24,5.24,5.24,5.24,5.24,5.24,5.24,5.24,5.2384,5.2317,5.1845,5.1165,5.0526,4.9765,4.8986,4.8332,4.8034,4.8001,4.8001,4.8001,4.8001,4.8001,4.8001,4.8001,4.8001,4.8001,4.8001,4.8001,4.8001,4.8001,4.8001,4.8001,4.8001,4.8001,4.7918,4.7984,4.8001,4.7868,4.7885,4.7951,4.7918,4.7852,4.7769,4.7802,4.791,4.7852,4.7951,4.7934,4.7951,4.8001,4.8001,4.8001,4.8001,4.8001,4.8001,4.8001,4.8001,4.8001,4.8001,4.8001,4.8001,4.8001,4.8001,4.8001,4.8001,4.8001,4.8001,4.8001,4.8001,4.8001,4.8001,4.8001,4.8001,4.8001,4.8001,4.7984,4.762,4.6932,4.6236,4.5631,4.4902,4.4199,4.3876,4.3655,4.3622,4.3645,4.3645,4.3637,4.363,4.3615,4.3615,4.3615,4.3615,4.3615,4.3615,4.3615,4.3615,4.3615,4.3615,4.3615,4.3615,5.6706,5.6706,5.6706,5.6706,5.6458,5.513,5.4517,5.4385,5.3012,5.24,5.24,5.24,5.24,5.24,5.24,5.24,5.24,5.24,5.24,5.24,5.24,5.24,5.24,5.24,5.1994,5.1314,5.0559,4.9839,4.9135,4.8506,4.8001,4.8001,4.8001,4.8001,4.8001,4.8001,4.8001,4.8001,4.8001,4.8001,4.8001,4.8001,4.8001,4.8001,4.8001,4.8001,4.8001,4.8001,4.8001,4.8001,4.8001,4.8001,4.8001,4.8001,4.8001,4.8001,4.8001,4.8001,4.8001,4.8001,4.8001,4.8001,4.8001,4.8001,4.8001,4.8001,4.8001,4.8001,4.8001,4.8001,4.8001,4.8001,4.8001,4.8001,4.8001,4.8001,4.8001,4.8001,4.8001,4.8001,4.8001,4.8001,4.8001,4.8001,4.8001,4.8001,4.8001,4.8001,4.8001,4.8001,4.7653,4.7156,4.67,4.6054,4.516,4.4406,4.3911,4.3672,4.3631,4.3615,4.3615,4.3615,4.3615,4.3615,4.3615,4.3615,4.3615,4.3615,4.3615,4.3615,4.3615,4.3615,4.3615,4.3615,4.3456,5.6706,5.6706,5.6706,5.6706,5.6458,5.5163,5.4517,5.4236,5.3012,5.24,5.24,5.24,5.24,5.24,5.24,5.24,5.24,5.24,5.24,5.24,5.24,5.24,5.24,5.24,5.2143,5.1712,5.1074,5.0336,4.9615,4.8887,4.8349,4.8017,4.8001,4.8001,4.8001,4.8001,4.8001,4.8001,4.8001,4.8001,4.8001,4.8001,4.8001,4.8001,4.8001,4.8001,4.8001,4.8001,4.8001,4.8001,4.8001,4.8001,4.8001,4.8001,4.8001,4.8001,4.8001,4.8001,4.8001,4.8001,4.8001,4.8001,4.8001,4.8001,4.8001,4.8001,4.8001,4.8001,4.8001,4.8001,4.8001,4.8001,4.8001,4.8001,4.8001,4.8001,4.8001,4.8001,4.8001,4.8001,4.8001,4.8001,4.8001,4.8001,4.8001,4.8001,4.8001,4.8001,4.8001,4.7984,4.7893,4.7512,4.7106,4.6444,4.5467,4.4647,4.3928,4.3705,4.3615,4.3615,4.3615,4.3615,4.3615,4.3615,4.3615,4.3615,4.3615,4.3615,4.3615,4.3615,4.3615,4.3615,4.3592,4.3548,4.3297,5.6706,5.6706,5.6706,5.6706,5.6458,5.513,5.4517,5.4293,5.3012,5.24,5.24,5.24,5.24,5.24,5.24,5.24,5.24,5.24,5.24,5.24,5.24,5.24,5.24,5.24,5.2375,5.2317,5.1563,5.0875,5.0286,4.9524,4.8738,4.8266,4.8026,4.8017,4.8001,4.8001,4.8001,4.8001,4.8001,4.8001,4.8001,4.8001,4.8001,4.8001,4.8001,4.8001,4.8001,4.8001,4.8001,4.8001,4.8001,4.8001,4.8001,4.8001,4.8001,4.8001,4.8001,4.8001,4.8001,4.8001,4.8001,4.8001,4.8001,4.8001,4.8001,4.8001,4.8001,4.8001,4.8001,4.8001,4.8001,4.8001,4.8001,4.8001,4.8001,4.8001,4.8001,4.8001,4.8001,4.8001,4.8001,4.8001,4.8001,4.8001,4.8001,4.8001,4.8001,4.8001,4.8001,4.7984,4.791,4.7877,4.7496,4.6725,4.5732,4.487,4.415,4.3755,4.3648,4.3615,4.3615,4.3615,4.3615,4.3615,4.3615,4.3615,4.3615,4.3615,4.3615,4.3615,4.3561,4.3524,4.3486,4.3465,4.3089,5.6706,5.6706,5.6706,5.669,5.6458,5.513,5.4475,5.4269,5.2979,5.2417,5.24,5.24,5.24,5.24,5.24,5.24,5.24,5.24,5.24,5.24,5.24,5.24,5.24,5.24,5.24,5.2218,5.1737,5.1281,5.0784,4.9823,4.9185,4.8837,4.834,4.8084,4.8017,4.8001,4.8001,4.8001,4.8001,4.8001,4.8001,4.8001,4.8001,4.8001,4.8001,4.8001,4.8001,4.8001,4.8001,4.8001,4.8001,4.8001,4.8001,4.8001,4.8001,4.8001,4.8001,4.8001,4.8001,4.8001,4.8001,4.8001,4.8001,4.8001,4.8001,4.8001,4.8001,4.8001,4.8001,4.8001,4.8001,4.8001,4.8001,4.8001,4.8001,4.8001,4.8001,4.8001,4.8001,4.8001,4.8001,4.8001,4.8001,4.8001,4.8001,4.8001,4.8001,4.8001,4.8001,4.8001,4.7984,4.7959,4.791,4.699,4.5988,4.516,4.4406,4.3911,4.3722,4.3615,4.3615,4.3615,4.3615,4.3615,4.3615,4.3615,4.3615,4.3615,4.3501,4.3417,4.341,4.3425,4.3253,4.3078,4.2629,5.6706,5.6706,5.6706,5.6465,5.5984,5.4988,5.4276,5.3805,5.2863,5.24,5.24,5.24,5.24,5.24,5.24,5.24,5.24,5.24,5.24,5.24,5.24,5.24,5.24,5.24,5.24,5.2317,5.2027,5.1621,5.1273,5.0668,4.9815,4.9119,4.8688,4.839,4.8084,4.8001,4.8001,4.8001,4.8001,4.8001,4.8001,4.8001,4.8001,4.8001,4.8001,4.8001,4.8001,4.8001,4.8001,4.8001,4.8001,4.8001,4.8001,4.8001,4.8001,4.8001,4.8001,4.8001,4.8001,4.8001,4.8001,4.8001,4.8001,4.8001,4.8001,4.8001,4.8001,4.8001,4.8001,4.8001,4.8001,4.8001,4.8001,4.8001,4.8001,4.8001,4.8001,4.8001,4.8001,4.8001,4.8001,4.8001,4.8001,4.8001,4.8001,4.8001,4.8001,4.8001,4.8001,4.8001,4.8001,4.7926,4.786,4.7239,4.6336,4.559,4.4894,4.4366,4.3878,4.3771,4.3655,4.3688,4.3631,4.3615,4.3615,4.3615,4.3615,4.3607,4.3417,4.328,4.3371,4.3373,4.2996,4.2626,4.2304,5.6706,5.6706,5.6706,5.6282,5.5542,5.4823,5.4085,5.3358,5.2697,5.24,5.24,5.24,5.24,5.24,5.24,5.24,5.24,5.24,5.24,5.24,5.24,5.24,5.24,5.24,5.24,5.24,5.2325,5.2077,5.1671,5.1257,5.0486,4.9674,4.9251,4.8721,4.815,4.8001,4.8001,4.8001,4.8001,4.8001,4.8001,4.8001,4.8001,4.8001,4.8001,4.8001,4.8001,4.8001,4.8001,4.8001,4.8001,4.8001,4.8001,4.8001,4.8001,4.8001,4.8001,4.8001,4.8001,4.8001,4.8001,4.8001,4.8001,4.8001,4.8001,4.8001,4.8001,4.8001,4.8001,4.8001,4.8001,4.8001,4.8001,4.8001,4.8001,4.8001,4.8001,4.8001,4.8001,4.8001,4.8001,4.8001,4.8001,4.8001,4.8001,4.8001,4.8001,4.8001,4.8001,4.8001,4.7984,4.786,4.7678,4.7322,4.6684,4.6104,4.5507,4.506,4.4473,4.4117,4.3928,4.3771,4.3705,4.3615,4.3615,4.3615,4.3615,4.3591,4.347,4.3408,4.347,4.3281,4.2877,4.2668,4.2468,5.6706,5.6706,5.6706,5.6282,5.5518,5.4806,5.4078,5.3325,5.2664,5.2417,5.24,5.24,5.24,5.24,5.24,5.24,5.24,5.24,5.24,5.24,5.24,5.24,5.24,5.24,5.24,5.24,5.24,5.2375,5.2085,5.1621,5.0958,5.0145,4.9525,4.8763,4.8233,4.8183,4.8001,4.8017,4.8001,4.8001,4.8001,4.8001,4.8001,4.8001,4.8001,4.8001,4.8001,4.8001,4.8001,4.8001,4.8001,4.8001,4.8001,4.8001,4.8001,4.8001,4.8001,4.8001,4.8001,4.8001,4.8001,4.8001,4.8001,4.8001,4.8001,4.8001,4.8001,4.8001,4.8001,4.8001,4.8001,4.8001,4.8001,4.8001,4.8001,4.8001,4.8001,4.8001,4.8001,4.8001,4.8001,4.8001,4.8001,4.8001,4.8001,4.8001,4.8001,4.8001,4.8001,4.8001,4.8001,4.7918,4.7844,4.752,4.7156,4.6568,4.6137,4.5714,4.501,4.444,4.4217,4.3977,4.3688,4.3615,4.3615,4.3615,4.3615,4.3583,4.3529,4.3477,4.3432,4.3119,4.2726,4.2627,4.2676,5.6706,5.6706,5.6706,5.6017,5.5005,5.4607,5.3864,5.2929,5.2524,5.24,5.24,5.24,5.24,5.24,5.24,5.24,5.24,5.24,5.24,5.24,5.24,5.24,5.24,5.24,5.24,5.24,5.24,5.24,5.2251,5.2069,5.1538,5.0842,5.0428,4.9765,4.868,4.8605,4.8357,4.8142,4.8001,4.8001,4.8001,4.8001,4.8001,4.8001,4.8001,4.8001,4.8001,4.8001,4.8001,4.8001,4.8001,4.8001,4.8001,4.8001,4.8001,4.8001,4.8001,4.8001,4.8001,4.8001,4.8001,4.8001,4.8001,4.8001,4.8001,4.8001,4.8001,4.8001,4.8001,4.8001,4.8001,4.8001,4.8001,4.8001,4.8001,4.8001,4.8001,4.8001,4.8001,4.8001,4.8001,4.8001,4.8001,4.8001,4.8001,4.8001,4.8001,4.8001,4.8001,4.8001,4.8001,4.8001,4.7951,4.7852,4.7537,4.7106,4.6766,4.6236,4.5242,4.4745,4.4497,4.4241,4.3895,4.3648,4.3615,4.3615,4.3615,4.3561,4.35,4.3425,4.3342,4.3113,4.292,4.3128,4.3139,5.6706,5.6673,5.6498,5.566,5.4492,5.43,5.3533,5.2483,5.2417,5.24,5.24,5.24,5.24,5.24,5.24,5.24,5.24,5.24,5.24,5.24,5.24,5.24,5.24,5.24,5.24,5.24,5.24,5.24,5.24,5.2284,5.1953,5.134,5.1116,5.0361,4.9442,4.897,4.8705,4.8042,4.8001,4.8001,4.8001,4.8001,4.8001,4.8001,4.8001,4.8001,4.8001,4.8001,4.8001,4.8001,4.8001,4.8001,4.8001,4.8001,4.8001,4.8001,4.8001,4.8001,4.8001,4.8001,4.8001,4.8001,4.8001,4.8001,4.8001,4.8001,4.8001,4.8001,4.8001,4.8001,4.8001,4.8001,4.8001,4.8001,4.8001,4.8001,4.8001,4.8001,4.8001,4.8001,4.8001,4.8001,4.8001,4.8001,4.8001,4.8001,4.8001,4.8001,4.8001,4.8001,4.8001,4.8001,4.8001,4.7968,4.7819,4.752,4.7222,4.6825,4.5822,4.5185,4.5012,4.4515,4.4035,4.3837,4.3631,4.3615,4.3615,4.3546,4.3494,4.3462,4.3425,4.3295,4.325,4.3455,4.3522,5.6706,5.664,5.5932,5.522,5.4442,5.3756,5.3077,5.2417,5.24,5.24,5.24,5.24,5.24,5.24,5.24,5.24,5.24,5.24,5.24,5.24,5.24,5.24,5.24,5.24,5.24,5.24,5.24,5.24,5.24,5.24,5.1953,5.1422,5.1497,5.0461,4.9541,4.9028,4.8647,4.8117,4.8001,4.8001,4.8001,4.8001,4.8001,4.8001,4.8001,4.8001,4.8001,4.8001,4.8001,4.8001,4.8001,4.8001,4.8001,4.8001,4.8001,4.8001,4.8001,4.8001,4.8001,4.8001,4.8001,4.8001,4.8001,4.8001,4.8001,4.8001,4.8001,4.8001,4.8001,4.8001,4.8001,4.8001,4.8001,4.8001,4.8001,4.8001,4.8001,4.8001,4.8001,4.8001,4.8001,4.8001,4.8001,4.8001,4.8001,4.8001,4.8001,4.8001,4.8001,4.8001,4.8001,4.8001,4.8001,4.8001,4.8001,4.7785,4.762,4.7355,4.6676,4.6072,4.5675,4.5063,4.4233,4.3821,4.3615,4.3615,4.3615,4.3568,4.3553,4.3576,4.3522,4.3425,4.3402,4.3531,4.3583,5.6015,5.5909,5.4756,5.4343,5.4442,5.3697,5.301,5.2458,5.24,5.24,5.24,5.24,5.24,5.24,5.24,5.24,5.24,5.24,5.24,5.24,5.24,5.24,5.24,5.24,5.24,5.24,5.24,5.24,5.24,5.24,5.2317,5.2036,5.1861,5.1057,5.0121,4.8928,4.8332,4.815,4.8001,4.8001,4.8001,4.8001,4.8001,4.8001,4.8001,4.8001,4.8001,4.8001,4.8001,4.8001,4.8001,4.8001,4.8001,4.8001,4.8001,4.8001,4.8001,4.8001,4.8001,4.8001,4.8001,4.8001,4.8001,4.8001,4.8001,4.8001,4.8001,4.8001,4.8001,4.8001,4.8001,4.8001,4.8001,4.8001,4.8001,4.8001,4.8001,4.8001,4.8001,4.8001,4.8001,4.8001,4.8001,4.8001,4.8001,4.8001,4.8001,4.8001,4.8001,4.8001,4.8001,4.8001,4.8001,4.8001,4.8001,4.8001,4.8001,4.7736,4.7404,4.6701,4.5998,4.5194,4.4464,4.3994,4.3615,4.3615,4.3615,4.3615,4.3598,4.3598,4.3598,4.3576,4.36,4.3615,4.3615,5.526,5.5111,5.3903,5.368,5.4054,5.3408,5.2837,5.2467,5.24,5.24,5.24,5.24,5.24,5.24,5.24,5.24,5.24,5.24,5.24,5.24,5.24,5.24,5.24,5.24,5.24,5.24,5.24,5.24,5.24,5.24,5.2367,5.2292,5.2093,5.119,5.0162,4.8821,4.8017,4.8001,4.8001,4.8001,4.8001,4.8001,4.8001,4.8001,4.8001,4.8001,4.8001,4.8001,4.8001,4.8001,4.8001,4.8001,4.8001,4.8001,4.8001,4.8001,4.8001,4.8001,4.8001,4.8001,4.8001,4.8001,4.8001,4.8001,4.8001,4.8001,4.8001,4.8001,4.8001,4.8001,4.8001,4.8001,4.8001,4.8001,4.8001,4.8001,4.8001,4.8001,4.8001,4.8001,4.8001,4.8001,4.8001,4.8001,4.8001,4.8001,4.8001,4.8001,4.8001,4.8001,4.8001,4.8001,4.8001,4.8001,4.8001,4.8001,4.8001,4.7943,4.7545,4.6826,4.6098,4.5343,4.4556,4.3895,4.3615,4.3615,4.3615,4.3615,4.3615,4.3615,4.3615,4.3615,4.3615,4.3615,4.3615,5.4525,5.4442,5.3697,5.3382,5.3358,5.2714,5.2433,5.24,5.24,5.24,5.24,5.24,5.24,5.24,5.24,5.24,5.24,5.24,5.24,5.24,5.24,5.24,5.24,5.24,5.24,5.24,5.24,5.24,5.24,5.24,5.24,5.2126,5.167,5.0883,5.0104,4.8729,4.8042,4.8001,4.8001,4.8001,4.8001,4.8001,4.8001,4.8001,4.8001,4.8001,4.8001,4.8001,4.8001,4.8001,4.8001,4.8001,4.8001,4.8001,4.8001,4.8001,4.8001,4.8001,4.8001,4.8001,4.8001,4.8001,4.8001,4.8001,4.8001,4.8001,4.8001,4.8001,4.8001,4.8001,4.8001,4.8001,4.8001,4.8001,4.8001,4.8001,4.8001,4.8001,4.8001,4.8001,4.8001,4.8001,4.8001,4.8001,4.8001,4.8001,4.8001,4.8001,4.8001,4.8001,4.8001,4.8001,4.8001,4.8001,4.8001,4.8001,4.8001,4.7976,4.7695,4.7016,4.6371,4.5716,4.4872,4.3913,4.3615,4.3615,4.3615,4.3615,4.3615,4.3615,4.3615,4.3615,4.3615,4.3615,4.3615,5.378,5.3713,5.3019,5.273,5.2697,5.2524,5.24,5.24,5.24,5.24,5.24,5.24,5.24,5.24,5.24,5.24,5.24,5.24,5.24,5.24,5.24,5.24,5.24,5.24,5.24,5.24,5.24,5.24,5.24,5.24,5.24,5.2159,5.1181,5.0228,4.9433,4.8489,4.8017,4.8001,4.8001,4.8001,4.8001,4.8001,4.8001,4.8001,4.8001,4.8001,4.8001,4.8001,4.8001,4.8001,4.8001,4.8001,4.8001,4.8001,4.8001,4.8001,4.8001,4.8001,4.8001,4.8001,4.8001,4.8001,4.8001,4.8001,4.8001,4.8001,4.8001,4.8001,4.8001,4.8001,4.8001,4.8001,4.8001,4.8001,4.8001,4.8001,4.8001,4.8001,4.8001,4.8001,4.8001,4.8001,4.8001,4.8001,4.8001,4.8001,4.8001,4.8001,4.8001,4.8001,4.8001,4.8001,4.8001,4.8001,4.8001,4.8001,4.8001,4.8001,4.7744,4.7265,4.6644,4.5931,4.4987,4.392,4.3731,4.3615,4.3615,4.3615,4.3615,4.3615,4.3615,4.3615,4.3615,4.3615,4.3615,5.3069,5.2994,5.2581,5.24,5.24,5.24,5.24,5.24,5.24,5.24,5.24,5.24,5.24,5.24,5.24,5.24,5.24,5.24,5.24,5.24,5.24,5.24,5.24,5.24,5.24,5.24,5.24,5.24,5.24,5.24,5.2043,5.1388,5.0675,4.9731,4.8903,4.8208,4.8001,4.8001,4.8001,4.8001,4.8001,4.8001,4.8001,4.8001,4.8001,4.8001,4.8001,4.8001,4.8001,4.8001,4.8001,4.8001,4.8001,4.8001,4.8001,4.8001,4.8001,4.8001,4.8001,4.8001,4.8001,4.8001,4.8001,4.8001,4.8001,4.8001,4.8001,4.8001,4.8001,4.8001,4.8001,4.8001,4.8001,4.8001,4.8001,4.8001,4.8001,4.8001,4.8001,4.8001,4.8001,4.8001,4.8001,4.8001,4.8001,4.8001,4.8001,4.8001,4.8001,4.8001,4.8001,4.8001,4.8001,4.8001,4.8001,4.8001,4.8001,4.8001,4.7744,4.7439,4.6553,4.5766,4.4831,4.4036,4.378,4.3615,4.3615,4.3615,4.3615,4.3615,4.3615,4.3615,4.3615,4.3615,4.3615,5.2417,5.24,5.24,5.24,5.24,5.24,5.24,5.24,5.24,5.24,5.24,5.24,5.24,5.24,5.24,5.24,5.24,5.24,5.24,5.24,5.24,5.24,5.24,5.24,5.24,5.24,5.24,5.24,5.2384,5.2185,5.153,5.0551,5.0129,4.9268,4.8473,4.8075,4.8001,4.8001,4.8001,4.8001,4.8001,4.8001,4.8001,4.8001,4.8001,4.8001,4.8001,4.8001,4.8001,4.8001,4.8001,4.8001,4.8001,4.8001,4.8001,4.8001,4.8001,4.8001,4.8001,4.8001,4.8001,4.8001,4.8001,4.8001,4.8001,4.8001,4.8001,4.8001,4.8001,4.8001,4.8001,4.8001,4.8001,4.8001,4.8001,4.8001,4.8001,4.8001,4.8001,4.8001,4.8001,4.8001,4.8001,4.8001,4.8001,4.8001,4.8001,4.8001,4.8001,4.8001,4.8001,4.8001,4.8001,4.8001,4.8001,4.8001,4.8001,4.8001,4.7918,4.7587,4.6618,4.5658,4.4888,4.4242,4.3804,4.3615,4.3615,4.3615,4.3615,4.3615,4.3615,4.3615,4.3615,4.3615,4.3615,5.24,5.24,5.24,5.24,5.24,5.24,5.24,5.24,5.24,5.24,5.24,5.24,5.24,5.24,5.24,5.24,5.24,5.24,5.24,5.2367,5.2284,5.2367,5.2334,5.2259,5.2351,5.2325,5.2308,5.2192,5.2176,5.1953,5.0867,4.9641,4.9549,4.8837,4.8349,4.8001,4.8001,4.8001,4.8001,4.8001,4.8001,4.8001,4.8001,4.8001,4.8001,4.8001,4.8001,4.8001,4.8001,4.8001,4.8001,4.8001,4.8001,4.8001,4.8001,4.8001,4.8001,4.8001,4.8001,4.8001,4.8001,4.8001,4.8001,4.8001,4.8001,4.8001,4.8001,4.8001,4.8001,4.8001,4.8001,4.8001,4.8001,4.8001,4.8001,4.8001,4.8001,4.8001,4.8001,4.8001,4.8001,4.8001,4.8001,4.8001,4.8001,4.8001,4.8001,4.8001,4.8001,4.8001,4.8001,4.8001,4.8001,4.8001,4.8001,4.8001,4.8001,4.8001,4.7934,4.7537,4.6427,4.5549,4.4953,4.4366,4.3788,4.3615,4.3615,4.3615,4.3615,4.3615,4.3615,4.3615,4.3615,4.3615,4.3615,5.24,5.24,5.24,5.24,5.24,5.24,5.24,5.24,5.24,5.24,5.24,5.24,5.24,5.24,5.24,5.24,5.24,5.2375,5.2259,5.1887,5.1961,5.1662,5.1646,5.1571,5.1429,5.1529,5.1554,5.1339,5.1429,5.1123,5.0171,4.9268,4.9102,4.863,4.8208,4.8001,4.8001,4.8001,4.8001,4.8001,4.8001,4.8001,4.8001,4.8001,4.8001,4.8001,4.8001,4.8001,4.8001,4.8001,4.8001,4.8001,4.8001,4.8001,4.8001,4.8001,4.8001,4.8001,4.8001,4.8001,4.8001,4.8001,4.8001,4.8001,4.8001,4.8001,4.8001,4.8001,4.8001,4.8001,4.8001,4.8001,4.8001,4.8001,4.8001,4.8001,4.8001,4.8001,4.8001,4.8001,4.8001,4.8001,4.8001,4.8001,4.8001,4.8001,4.8001,4.8001,4.8001,4.8001,4.8001,4.8001,4.8001,4.8001,4.8001,4.8001,4.8001,4.8001,4.7984,4.7421,4.6269,4.5541,4.5036,4.4375,4.3681,4.3615,4.3615,4.3615,4.3615,4.3615,4.3615,4.3615,4.3615,4.3615,4.3615,5.24,5.24,5.24,5.24,5.24,5.24,5.24,5.24,5.24,5.24,5.24,5.24,5.24,5.24,5.24,5.24,5.2317,5.2242,5.1887,5.129,5.1215,5.0974,5.0618,5.0269,5.0626,5.0369,5.0311,5.0559,5.0203,4.9893,4.9485,4.9019,4.8769,4.8365,4.8051,4.777,4.7762,4.8001,4.8001,4.8001,4.8001,4.8001,4.8001,4.8001,4.8001,4.8001,4.8001,4.8001,4.8001,4.8001,4.8001,4.8001,4.8001,4.8001,4.8001,4.8001,4.8001,4.8001,4.8001,4.8001,4.8001,4.8001,4.8001,4.8001,4.8001,4.8001,4.8001,4.8001,4.8001,4.8001,4.8001,4.8001,4.8001,4.8001,4.8001,4.8001,4.8001,4.8001,4.8001,4.8001,4.8001,4.8001,4.8001,4.8001,4.8001,4.8001,4.8001,4.8001,4.8001,4.8001,4.8001,4.8001,4.8001,4.8001,4.8001,4.8001,4.8001,4.8001,4.8001,4.7504,4.6518,4.5806,4.5168,4.4375,4.3615,4.3615,4.3615,4.3615,4.3615,4.3615,4.3615,4.3615,4.3615,4.3615,4.3615,5.24,5.24,5.24,5.24,5.24,5.24,5.24,5.24,5.24,5.24,5.24,5.24,5.24,5.24,5.24,5.24,5.2334,5.1894,5.1505,5.1066,5.0759,5.0286,5.0111,4.982,4.9986,5.0203,5.0137,4.9662,4.9145,4.8725,4.8429,4.8183,4.7892,4.7576,4.7861,4.7538,4.7538,4.796,4.8001,4.8001,4.8001,4.8001,4.8001,4.8001,4.8001,4.8001,4.8001,4.8001,4.8001,4.8001,4.8001,4.8001,4.8001,4.8001,4.8001,4.8001,4.8001,4.8001,4.8001,4.8001,4.8001,4.8001,4.8001,4.8001,4.8001,4.8001,4.8001,4.8001,4.8001,4.8001,4.8001,4.8001,4.8001,4.8001,4.8001,4.8001,4.8001,4.8001,4.8001,4.8001,4.8001,4.8001,4.8001,4.8001,4.8001,4.8001,4.8001,4.8001,4.8001,4.8001,4.8001,4.8001,4.8001,4.8001,4.8001,4.8001,4.8001,4.8001,4.8001,4.7421,4.6717,4.5772,4.4878,4.4193,4.3615,4.3615,4.3615,4.3615,4.3615,4.3615,4.3615,4.3615,4.3615,4.3615,4.3615,5.24,5.24,5.24,5.24,5.24,5.24,5.24,5.24,5.24,5.24,5.24,5.24,5.24,5.24,5.24,5.2367,5.2235,5.1638,5.1132,5.0693,5.0045,4.9516,4.9316,4.8962,4.8569,4.8685,4.8626,4.8227,4.78,4.7636,4.7376,4.7115,4.6741,4.6956,4.7463,4.7312,4.7438,4.7976,4.7993,4.8001,4.8001,4.8001,4.8001,4.8001,4.8001,4.8001,4.8001,4.8001,4.8001,4.8001,4.8001,4.8001,4.8001,4.8001,4.8001,4.8001,4.8001,4.8001,4.8001,4.8001,4.8001,4.8001,4.8001,4.8001,4.8001,4.8001,4.8001,4.8001,4.8001,4.8001,4.8001,4.8001,4.8001,4.8001,4.8001,4.8001,4.8001,4.8001,4.8001,4.8001,4.8001,4.8001,4.8001,4.8001,4.8001,4.8001,4.8001,4.8001,4.8001,4.8001,4.8001,4.8001,4.8001,4.8001,4.8001,4.8001,4.8001,4.8001,4.8001,4.7487,4.6808,4.5557,4.453,4.4167,4.3845,4.3615,4.3615,4.3615,4.3615,4.3615,4.3615,4.3615,4.3615,4.3615,4.3615,5.24,5.24,5.24,5.24,5.24,5.24,5.24,5.24,5.24,5.24,5.2351,5.2259,5.2292,5.2375,5.24,5.2325,5.1994,5.1265,5.0726,4.9954,4.9115,4.8511,4.7821,4.7222,4.7069,4.6852,4.673,4.6493,4.6162,4.6186,4.6143,4.5875,4.6138,4.6595,4.6931,4.727,4.758,4.7902,4.8001,4.8001,4.8001,4.8001,4.8001,4.8001,4.8001,4.8001,4.8001,4.8001,4.8001,4.8001,4.8001,4.8001,4.8001,4.8001,4.8001,4.8001,4.8001,4.8001,4.8001,4.8001,4.8001,4.8001,4.8001,4.7984,4.7976,4.7984,4.7984,4.7984,4.7984,4.8001,4.8001,4.8001,4.8001,4.8001,4.8001,4.8001,4.8001,4.8001,4.8001,4.8001,4.8001,4.8001,4.7984,4.7984,4.7993,4.7993,4.8001,4.8001,4.8001,4.8001,4.8001,4.8001,4.8001,4.8001,4.8001,4.8001,4.8001,4.8001,4.7951,4.752,4.6924,4.5831,4.501,4.4554,4.4241,4.3788,4.3615,4.3615,4.3615,4.3615,4.3615,4.3615,4.3615,4.3615,4.3615,5.24,5.24,5.24,5.24,5.2384,5.2384,5.24,5.24,5.2351,5.24,5.2143,5.1762,5.1778,5.2384,5.24,5.2126,5.1372,5.069,4.9971,4.9234,4.799,4.7361,4.6843,4.6271,4.5987,4.5708,4.5438,4.5295,4.5184,4.512,4.5233,4.5551,4.4971,4.5565,4.6663,4.6887,4.6921,4.7446,4.7861,4.7861,4.7919,4.7935,4.7993,4.8001,4.8001,4.8001,4.8001,4.8001,4.8001,4.8001,4.8001,4.8001,4.8001,4.8001,4.8001,4.8001,4.8001,4.8001,4.8001,4.8001,4.8001,4.7902,4.7886,4.7894,4.7878,4.7894,4.7902,4.7943,4.7952,4.7993,4.8001,4.8001,4.8001,4.8001,4.8001,4.8001,4.8001,4.8001,4.8001,4.8001,4.8001,4.7968,4.7927,4.7943,4.7968,4.7976,4.7984,4.7984,4.8001,4.8001,4.8001,4.8001,4.8001,4.8001,4.8001,4.8001,4.8001,4.8001,4.7951,4.7653,4.7123,4.6278,4.5557,4.5044,4.4357,4.3771,4.3672,4.3615,4.3615,4.3615,4.3615,4.3615,4.3615,4.3615,4.3615]},{"header":{"parameterUnit":"m.s-1","parameterCategory":1,"la1":31.0,"la2":29.5877,"lo1":-88.7671,"lo2":-86.6584,"dy":0.0162,"dx":0.0185,"nx":115,"ny":88,"refTime":"2024-09-26T18:00:00:Z","depth":0,"parameterNumber":3,"parameterNumberName":"V-component_of_WINDS"},"data":[0.0,0.0,0.0,0.0,0.0,0.0,0.0,0.0,0.0,0.0,0.0,0.0,0.0,0.0,0.0,0.0,0.0,0.0,0.0,0.0,0.0,0.0,0.0,0.0,0.0,0.0,0.0,0.0,0.0,0.0,0.0,0.0,0.0,0.0,0.0,0.0,0.0,0.0,0.0,0.0,0.0,0.0,0.0,0.0,0.0,0.0,0.0,0.0,0.0,0.0,0.0,0.0,0.0,0.0,0.0,0.0,0.0,0.0,0.0,0.0,0.0,0.0,0.0,0.0,0.0,0.0,0.0,0.0,0.0,0.0,0.0,0.0,0.0,0.0,0.0,0.0,0.0,0.0,0.0,0.0,0.0,0.0,0.0,0.0,0.0,0.0,0.0,0.0,0.0,0.0,0.0,0.0,0.0,0.0,0.0,0.0,0.0,0.0,0.0,0.0,0.0,0.0,0.0,0.0,0.0,0.0,0.0,0.0,0.0,0.0,0.0,0.0,0.0,0.0,0.0,0.0,0.0,0.0,0.0,0.0,0.0,0.0,0.0,0.0,0.0,0.0,0.0,0.0,0.0,0.0,0.0,0.0,0.0,0.0,0.0,0.0,0.0,0.0,0.0,0.0,0.0,0.0,0.0,0.0,0.0,0.0,0.0,0.0,0.0,0.0,0.0,0.0,0.0,0.0,0.0,0.0,0.0,0.0,0.0,0.0,0.0,0.0,0.0,0.0,0.0,0.0,0.0,0.0,0.0,0.0,0.0,0.0,0.0,0.0,0.0,0.0,0.0,0.0,0.0,0.0,0.0,0.0,0.0,0.0,0.0,0.0,0.0,0.0,0.0,0.0,0.0,0.0,0.0,0.0,0.0,0.0,0.0,0.0,0.0,0.0,0.0,0.0,0.0,0.0,0.0,0.0,0.0,0.0,0.0,0.0,0.0,0.0,0.0,0.0,0.0,0.0,0.0,0.0,0.0,0.0,0.0,0.0,0.0,0.0,0.0,0.0,0.0,0.0,0.0,0.0,0.0,0.0,0.0,0.0,0.0,0.0,0.0,0.0,0.0,0.0,0.0,0.0,0.0,0.0,0.0,0.0,0.0,0.0,0.0,0.0,0.0,0.0,0.0,0.0,0.0,0.0,0.0,0.0,0.0,0.0,0.0,0.0,0.0,0.0,0.0,0.0,0.0,0.0,0.0,0.0,0.0,0.0,0.0,0.0,0.0,0.0,0.0,0.0,0.0,0.0,0.0,0.0,0.0,0.0,0.0,0.0,0.0,0.0,0.0,0.0,0.0,0.0,0.0,0.0,0.0,0.0,0.0,0.0,0.0,0.0,0.0,0.0,0.0,0.0,0.0,0.0,0.0,0.0,0.0,0.0,0.0,0.0,0.0,0.0,0.0,0.0,0.0,0.0,0.0,0.0,0.0,0.0,0.0,0.0,0.0,0.0,0.0,0.0,0.0,0.0,0.0,0.0,0.0,0.0,0.0,0.0,0.0,0.0,0.0,0.0,0.0,0.0,0.0,0.0,0.0,0.0,0.0,0.0,0.0,0.0,0.0,0.0,0.0,0.0,0.0,0.0,0.0,0.0,0.0,0.0,0.0,0.0,0.0,0.0,0.0,0.0,0.0,0.0,0.0,0.0,0.0,0.0,0.0,0.0,0.0,0.0,0.0,0.0,0.0,0.0,0.0,0.0,0.0,0.0,0.0,0.0,0.0,0.0,0.0,0.0,0.0,0.0,0.0,0.0,0.0,0.0,0.0,0.0,0.0,0.0,0.0,0.0,0.0,0.0,0.0,0.0,0.0,0.0,0.0,0.0,0.0,0.0,0.0,0.0,0.0,0.0,0.0,0.0,0.0,0.0,0.0,0.0,0.0,0.0,0.0,0.0,0.0,0.0,0.0,0.0,0.0,0.0,0.0,0.0,0.0,0.0,0.0,0.0,0.0,0.0,0.0,0.0,0.0,0.0,0.0,0.0,0.0,0.0,0.0,0.0,0.0,0.0,0.0,0.0,0.0,0.0,0.0,0.0,0.0,0.0,0.0,0.0,0.0,0.0,0.0,0.0,0.0,0.0,0.0,0.0,0.0,0.0,0.0,0.0,0.0,0.0,0.0,0.0,0.0,0.0,0.0,0.0,0.0,0.0,0.0,0.0,0.0,0.0,0.0,0.0,0.0,0.0,0.0,0.0,0.0,0.0,0.0,0.0,0.0,0.0,0.0,0.0,0.0,0.0,0.0,0.0,0.0,0.0,0.0,0.0,0.0,0.0,0.0,0.0,0.0,0.0,0.0,0.0,0.0,0.0,0.0,0.0,0.0,0.0,0.0,0.0,0.0,0.0,0.0,0.0,0.0,0.0,0.0,0.0,0.0,0.0,0.0,0.0,0.0,0.0,0.0,0.0,0.0,0.0,0.0,0.0,0.0,0.0,0.0,0.0,0.0,0.0,0.0,0.0,0.0,0.0,0.0,0.0,0.0,0.0,0.0,0.0,0.0,0.0,0.0,0.0,0.0,0.0,0.0,0.0,0.0,0.0,0.0,0.0,0.0,0.0,0.0,0.0,0.0,0.0,0.0,0.0,0.0,0.0,0.0,0.0,0.0,0.0,0.0,0.0,0.0,0.0,0.0,0.0,0.0,0.0,0.0,0.0,0.0,0.0,0.0,0.0,0.0,0.0,0.0,0.0,0.0,0.0,0.0,0.0,0.0,0.0,0.0,0.0,0.0,0.0,0.0,0.0,0.0,0.0,0.0,0.0,0.0,0.0,0.0,0.0,0.0,0.0,0.0,0.0,0.0,0.0,0.0,0.0,0.0,0.0,0.0,0.0,0.0,0.0,0.0,0.0,0.0,0.0,0.0,0.0,0.0,0.0,0.0,0.0,0.0,0.0,0.0,0.0,0.0,0.0,0.0,0.0,0.0,0.0,0.0,0.0,0.0,0.0,0.0,0.0,0.0,0.0,0.0,0.0,0.0,0.0,0.0,0.0,0.0,0.0,0.0,0.0,0.0,0.0,0.0,0.0,0.0,0.0,0.0,0.0,0.0,0.0,0.0,0.0,0.0,0.0,0.0,0.0,0.0,0.0,0.0,0.0,0.0,0.0,0.0,0.0,0.0,0.0,0.0,0.0,0.0,0.0,0.0,0.0,0.0,0.0,0.0,0.0,0.0,0.0,0.0,0.0,0.0,0.0,0.0,0.0,0.0,0.0,0.0,0.0,0.0,0.0,0.0,0.0,0.0,0.0,0.0,0.0,0.0,0.0,0.0,0.0,0.0,0.0,0.0,0.0,0.0,0.0,0.0,0.0,0.0,0.0,0.0,0.0,0.0,0.0,0.0,0.0,0.0,0.0,0.0,0.0,0.0,0.0,0.0,0.0,0.0,0.0,0.0,0.0,0.0,0.0,0.0,0.0,0.0,0.0,0.0,0.0,0.0,0.0,0.0,0.0,0.0,0.0,0.0,0.0,0.0,0.0,0.0,0.0,0.0,0.0,0.0,0.0,0.0,0.0,0.0,0.0,0.0,0.0,0.0,0.0,0.0,0.0,0.0,0.0,0.0,0.0,0.0,0.0,0.0,0.0,0.0,0.0,0.0,0.0,0.0,0.0,0.0,0.0,0.0,0.0,0.0,0.0,0.0,0.0,0.0,0.0,0.0,0.0,0.0,0.0,0.0,0.0,0.0,0.0,0.0,0.0,0.0,0.0,0.0,0.0,0.0,0.0,0.0,0.0,0.0,0.0,0.0,0.0,0.0,0.0,0.0,0.0,0.0,0.0,0.0,0.0,0.0,0.0,0.0,0.0,0.0,0.0,0.0,0.0,0.0,0.0,0.0,0.0,0.0,0.0,0.0,0.0,0.0,0.0,0.0,0.0,0.0,0.0,0.0,0.0,0.0,0.0,0.0,0.0,0.0,0.0,0.0,0.0,0.0,0.0,0.0,0.0,0.0,0.0,0.0,0.0,0.0,0.0,0.0,0.0,0.0,0.0,0.0,0.0,0.0,0.0,0.0,0.0,0.0,0.0,0.0,0.0,0.0,0.0,0.0,0.0,0.0,0.0,0.0,0.0,0.0,0.0,0.0,0.0,0.0,0.0,0.0,0.0,0.0,0.0,0.0,0.0,0.0,0.0,0.0,0.0,0.0,0.0,0.0,0.0,0.0,0.0,0.0,0.0,0.0,0.0,0.0,0.0,0.0,0.0,0.0,0.0,0.0,0.0,0.0,0.0,0.0,0.0,0.0,0.0,0.0,0.0,0.0,0.0,0.0,0.0,0.0,0.0,0.3107,0.0,0.0,0.0,0.0,0.0,0.0,0.0,0.0,0.0,0.0,0.0,0.0,0.0,0.0,0.0,0.0,0.0,0.0,0.0,0.0,0.0,0.0,0.0,0.0,0.0,0.0,0.0,0.0,0.0,0.0,0.0,0.0,0.0,0.0,0.0,0.0,0.0,0.0,0.0,0.0,0.0,0.0,0.0,0.0,0.0,0.0,0.0,0.0,0.0,0.0,0.0,0.0,0.0,0.0,0.0,0.0,0.0,0.0,0.0,0.0,0.0,0.0,0.0,0.0,0.0,0.0,0.0,0.0,0.0,0.0,0.0,0.0,0.0,0.0,0.0,0.0,0.0,0.0,0.0,0.0,0.0,0.0,0.0,0.0,0.0,0.0,0.0,0.0,0.0,0.0,0.0,0.0,0.0,0.0,0.0,0.0,0.0,0.0,0.0,0.0,0.0,0.0,0.0,0.0,0.0,0.0,0.0,0.0,0.0,0.0,0.36,0.3597,0.3264,0.3111,0.3107,0.0,0.0,0.0,0.0,0.0,0.0,0.0,0.0,0.0,0.0,0.0,0.0,0.0,0.0,0.0,0.0,0.0,0.0,0.0,0.0,0.0,0.0,0.0,0.0,0.0,0.0,0.0,0.0,0.0,0.0,0.0,0.0,0.0,0.0,0.0,0.0,0.0,0.0,0.0,0.0,0.0,0.0,0.0,0.0,0.0,0.0,0.0,0.0,0.0,0.0,0.0,0.0,0.0,0.0,0.0,0.0,0.0,0.0,0.0,0.0,0.0,0.0,0.0,0.0,0.0,0.0,0.0,0.0,0.0,0.0,0.0,0.0,0.0,0.0,0.0,0.0,0.0,0.0,0.0,0.0,0.0,0.0,0.0,0.0,0.0,0.0,0.0,0.0,0.0,0.0,0.0,0.0,0.0,0.0,0.0,0.0,0.0,0.0,0.0,0.0,0.0,0.0,0.0,0.0,0.0,0.0,0.0,0.0,0.0,0.0,0.0,0.0,0.3411,0.3241,0.319,0.0,0.0,0.0,0.0,0.0,0.0,0.0,0.0,0.0,0.0,0.0,0.0,0.0,0.0,0.0,0.0,0.0,0.0,0.0,0.0,0.0,0.0,0.0,0.0,0.0,0.0,0.0,0.0,0.0,0.0,0.0,0.0,0.0,0.0,0.0,0.0,0.0,0.0,0.0,0.0,0.0,0.0,0.0,0.0,0.0,0.0,0.0,0.0,0.0,0.0,0.0,0.0,0.0,0.0,0.0,0.0,0.0,0.0,0.0,0.0,0.0,0.0,0.0,0.0,0.0,0.0,0.0,0.0,0.0,0.0,0.0,0.0,0.0,0.0,0.0,0.0,0.0,0.0,0.0,0.0,0.0,0.0,0.0,0.0,0.0,0.0,0.0,0.0,0.0,0.0,0.0,0.0,0.0,0.0,0.0,0.0,0.0,0.0,0.0,0.0,0.0,0.0,0.0,0.0,0.0,0.0,0.0,0.0,0.0,0.0,0.3693,0.3855,0.3779,0.0,0.3487,0.0,0.0,0.0,0.0,0.0,0.0,0.0,0.0,0.0,0.0,0.0,0.0,0.0,0.0,0.0,0.0,0.0,0.0,0.0,0.0,0.0,0.0,0.0,0.0,0.0,0.0,0.0,0.0,0.0,0.0,0.0,0.0,0.0,0.0,0.0,0.0,0.0,0.0,0.0,0.0,0.0,0.0,0.0,0.0,0.0,0.0,0.0,0.0,0.0,0.0,0.0,0.0,0.0,0.0,0.0,0.0,0.0,0.0,0.0,0.0,0.0,0.0,0.0,0.0,0.0,0.0,0.0,0.0,0.0,0.0,0.0,0.0,0.0,0.0,0.0,0.0,0.0,0.0,0.0,0.0,0.0,0.0,0.0,0.0,0.0,0.0,0.0,0.0,0.0,0.0,0.0,0.0,0.0,0.0,0.0,0.0,0.0,0.0,0.0,0.0,0.0,0.0,0.0,0.0,0.0,0.0,0.0,0.0,0.0,0.0,0.3774,0.3769,0.368,0.3582,0.0,0.0,0.0,0.0,0.0,0.0,0.0,0.0,0.0,0.0,0.0,0.0,0.0,0.0,0.0,0.0,0.0,0.0,0.0,0.0,0.0,0.0,0.0,0.0,0.0,0.0,0.0,0.0,0.0,0.0,0.0,0.0,0.0,0.0,0.0,0.0,0.0,0.0,0.0,0.0,0.0,0.0,0.0,0.0,0.0,0.0,0.0,0.0,0.0,0.0,0.0,0.0,0.0,0.0,0.0,0.0,0.0,0.0,0.0,0.0,0.0,0.0,0.0,0.0,0.0,0.0,0.0,0.0,0.0,0.0,0.0,0.0,0.0,0.0,0.0,0.0,0.0,0.0,0.0,0.0,0.0,0.0,0.0,0.0,0.0,0.0,0.0,0.0,0.0,0.0,0.0,0.0,0.0,0.0,0.0,0.0,0.0,0.0,0.0,0.0,0.0,0.0,0.0,0.0,0.0,0.0,0.0,0.0,0.0,0.0,0.3745,0.3814,0.3807,0.3716,0.362,0.3549,0.0,0.0,0.0,0.0,0.0,0.0,0.0,0.0,0.0,0.0,0.0,0.0,0.0,0.0,0.0,0.0,0.0,0.0,0.0,0.0,0.0,0.0,0.0,0.0,0.0,0.0,0.0,0.0,0.0,0.0,0.0,0.0,0.0,0.0,0.0,0.0,0.0,0.0,0.0,0.0,0.0,0.0,0.0,0.0,0.0,0.0,0.0,0.0,0.0,0.0,0.0,0.0,0.0,0.0,0.0,0.0,0.0,0.0,0.0,0.0,0.0,0.0,0.0,0.0,0.0,0.0,0.0,0.0,0.0,0.0,0.0,0.0,0.0,0.0,0.0,0.0,0.0,0.0,0.0,0.0,0.0,0.0,0.0,0.0,0.0,0.0,0.0,0.0,0.0,0.0,0.0,0.0,0.0,0.0,0.0,0.0,0.0,0.0,0.0,0.0,0.0,0.0,0.0,0.0,0.0,0.0,0.0,0.0,0.0,0.3799,0.3759,0.4068,0.4059,0.3963,0.0,0.0,0.0,0.0,0.0,0.0,0.0,0.0,0.0,0.0,0.0,0.0,0.0,0.0,0.0,0.0,0.0,0.0,0.0,0.0,0.0,0.0,0.0,0.0,0.0,0.0,0.0,0.0,0.0,0.0,0.0,0.0,0.0,0.0,0.0,0.0,0.0,0.0,0.0,0.0,0.0,0.0,0.0,0.0,0.0,0.0,0.0,0.0,0.0,0.0,0.0,0.0,0.0,0.0,0.0,0.0,0.0,0.0,0.0,0.0,0.0,0.0,0.0,0.0,0.0,0.0,0.0,0.0,0.0,0.0,0.0,0.0,0.0,0.0,0.0,0.0,0.0,0.0,0.0,0.0,0.0,0.0,0.0,0.0,0.0,0.0,0.0,0.0,0.0,0.0,0.0,0.0,0.0,0.0,0.0,0.0,0.0,0.0,0.0,0.0,0.0,0.0,0.0,0.0,0.0,0.0,0.0,0.0,0.0,0.3359,0.3433,0.3797,0.442,0.3986,0.3773,0.0,0.0,0.0,0.0,0.0,0.0,0.0,0.0,0.0,0.0,0.0,0.0,0.0,0.0,0.0,0.0,0.0,0.0,0.0,0.0,0.0,0.0,0.0,0.0,0.0,0.0,0.0,0.0,0.0,0.0,0.0,0.0,0.0,0.0,0.0,0.0,0.0,0.0,0.0,0.0,0.0,0.0,0.0,0.0,0.0,0.0,0.0,0.0,0.0,0.0,0.0,0.0,0.0,0.0,0.0,0.0,0.0,0.0,0.0,0.0,0.0,0.0,0.0,0.0,0.0,0.0,0.0,0.0,0.0,0.0,0.0,0.0,0.0,0.0,0.0,0.0,0.0,0.0,0.0,0.0,0.0,0.0,0.0,0.0,0.0,0.0,0.0,0.0,0.0,0.0,0.0,0.0,0.0,0.0,0.0,0.0,0.0,0.0,0.0,0.0,0.0,0.0,0.0,0.0,0.0,0.0,0.0,0.0,0.0,0.3198,0.0,0.4003,0.0,0.4099,0.3891,0.0,0.0,0.0,0.0,0.0,0.0,0.0,0.0,0.0,0.0,0.0,0.0,0.0,0.0,0.0,0.0,0.0,0.0,0.0,0.0,0.0,0.0,0.0,0.0,0.0,0.0,0.0,0.0,0.0,0.0,0.0,0.0,0.0,0.0,0.0,0.0,0.0,0.0,0.0,0.0,0.0,0.0,0.0,0.0,0.0,0.0,0.0,0.0,0.0,0.0,0.0,0.0,0.0,0.0,0.0,0.0,0.0,0.0,0.0,0.0,0.0,0.0,0.0,0.0,0.0,0.0,0.0,0.0,0.0,0.0,0.0,0.0,0.0,0.0,0.0,0.0,0.0,0.0,0.0,0.0,0.0,0.0,0.0,0.0,0.0,0.0,0.0,0.0,0.0,0.0,0.0,0.0,0.0,0.0,0.0,0.0,0.0,0.0,0.0,0.0,0.0,0.0,0.0,0.0,0.0,0.0,0.0,0.0,0.3153,0.3769,0.4233,0.4338,0.4134,0.4448,0.4359,0.0,0.0,0.0,0.0,0.0,0.0,0.0,0.0,0.0,0.0,0.0,0.0,0.0,0.0,0.0,0.0,0.0,0.0,0.0,0.0,0.0,0.0,0.0,0.0,0.0,0.0,0.0,0.0,0.0,0.0,0.0,0.0,0.0,0.0,0.0,0.0,0.0,0.0,0.0,0.0,0.0,0.0,0.0,0.0,0.0,0.0,0.0,0.0,0.0,0.0,0.0,0.0,0.0,0.0,0.0,0.0,0.0,0.0,0.0,0.0,0.0,0.0,0.0,0.0,0.0,0.0,0.0,0.0,0.0,0.0,0.0,0.0,0.0,0.0,0.0,0.0,0.0,0.0,0.0,0.0,0.0,0.0,0.0,0.0,0.0,0.0,0.0,0.0,0.0,0.0,0.0,0.0,0.0,0.0,0.0,0.0,0.0,0.0,0.0,0.0,0.0,0.0,0.0,0.0,0.0,0.0,0.0,0.0,0.0,0.3863,0.4103,0.4361,0.4623,0.4233,0.4165,0.0,0.0,0.0,0.0,0.0,0.0,0.0,0.0,0.0,0.0,0.0,0.0,0.0,0.0,0.0,0.0,0.0,0.0,0.0,0.0,0.0,0.0,0.0,0.0,0.0,0.0,0.0,0.0,0.0,0.0,0.0,0.0,0.0,0.0,0.0,0.0,0.0,0.0,0.0,0.0,0.0,0.0,0.0,0.0,0.0,0.0,0.0,0.0,0.0,0.0,0.0,0.0,0.0,0.0,0.0,0.0,0.0,0.0,0.0,0.0,0.0,0.0,0.0,0.0,0.0,0.0,0.0,0.0,0.0,0.0,0.0,0.0,0.0,0.0,0.0,0.0,0.0,0.0,0.0,0.0,0.0,0.0,0.0,0.0,0.0,0.0,0.0,0.0,0.0,0.0,0.0,0.0,0.0,0.0,0.0,0.0,0.0,0.0,0.0,0.0,0.0,0.0,0.0,0.0,0.0,0.0,0.0,0.0,0.0,0.4759,0.4823,0.4944,0.5156,0.475,0.4546,0.4604,0.0,0.0,0.0,0.0,0.0,0.0,0.0,0.0,0.0,0.0,0.0,0.0,0.0,0.0,0.0,0.0,0.0,0.0,0.0,0.0,0.0,0.0,0.0,0.0,0.0,0.0,0.0,0.0,0.0,0.0,0.0,0.0,0.0,0.0,0.0,0.0,0.0,0.0,0.0,0.0,0.0,0.0,0.0,0.0,0.0,0.0,0.0,0.0,0.0,0.0,0.0,0.0,0.0,0.0,0.0,0.0,0.0,0.0,0.0,0.0,0.0,0.0,0.0,0.0,0.0,0.0,0.0,0.0,0.0,0.0,0.0,0.0,0.0,0.0,0.0,0.0,0.0,0.0,0.0,0.0,0.0,0.0,0.0,0.0,0.0,0.0,0.0,0.0,0.0,0.0,0.0,0.0,0.0,0.0,0.0,0.0,0.0,0.0,0.0,0.0,0.0,0.0,0.0,0.0,0.0,0.0,0.0,0.0,0.63,0.6365,0.6193,0.5738,0.5849,0.5469,0.0,0.0,0.0,0.0,0.0,0.0,0.0,0.0,0.0,0.0,0.0,0.0,0.0,0.0,0.0,0.0,0.0,0.0,0.0,0.0,0.0,0.0,0.0,0.0,0.0,0.0,0.0,0.0,0.0,0.0,0.0,0.0,0.0,0.0,0.0,0.0,0.0,0.0,0.0,0.0,0.0,0.0,0.0,0.0,0.0,0.0,0.0,0.0,0.0,0.0,0.0,0.0,0.0,0.0,0.0,0.0,0.0,0.0,0.0,0.0,0.0,0.0,0.0,0.0,0.0,0.0,0.0,0.0,0.0,0.0,0.0,0.0,0.0,0.0,0.0,0.0,0.0,0.0,0.0,0.0,0.0,0.0,0.0,0.0,0.0,0.0,0.0,0.0,0.0,0.0,0.0,0.0,0.0,0.0,0.0,0.0,0.0,0.0,0.0,0.0,0.0,0.0,0.0,0.0,0.0,0.0,0.0,0.0,0.0,0.7623,0.9171,0.9041,0.7086,0.6662,0.6396,0.0,0.0,0.0,0.0,0.0,0.0,0.0,0.0,0.0,0.0,0.0,0.0,0.0,0.0,0.0,0.0,0.0,0.0,0.0,0.0,0.0,0.0,0.0,0.0,0.0,0.0,0.0,0.0,0.0,0.0,0.0,0.0,0.0,0.0,0.0,0.0,0.0,0.0,0.0,0.0,0.0,0.0,0.0,0.0,0.0,0.0,0.0,0.0,0.0,0.0,0.0,0.0,0.0,0.0,0.0,0.0,0.0,0.0,0.0,0.0,0.0,0.0,0.0,0.0,0.0,0.0,0.0,0.0,0.0,0.0,0.0,0.0,0.0,0.0,0.0,0.0,0.0,0.0,0.0,0.0,0.0,0.0,0.0,0.0,0.0,0.0,0.0,0.0,0.0,0.0,0.0,0.0,0.0,0.0,0.0,0.0,0.0,0.0,0.0,0.0,0.0,0.0,0.0,0.0,0.0,0.0,0.0,0.0,0.7525,0.8382,1.0239,1.0465,0.8966,0.8448,0.7727,0.0,0.0,0.0,0.0,0.0,0.0,0.0,0.0,0.0,0.0,0.0,0.0,0.0,0.0,0.0,0.0,0.0,0.0,0.0,0.0,0.0,0.0,0.0,0.0,0.0,0.0,0.0,0.0,0.0,0.0,0.0,0.0,0.0,0.0,0.0,0.0,0.0,0.0,0.0,0.0,0.0,0.0,0.0,0.0,0.0,0.0,0.0,0.0,0.0,0.0,0.0,0.0,0.0,0.0,0.0,0.0,0.0,0.0,0.0,0.0,0.0,0.0,0.0,0.0,0.0,0.0,0.0,0.0,0.0,0.0,0.0,0.0,0.0,0.0,0.0,0.0,0.0,0.0,0.0,0.0,0.0,0.0,0.0,0.0,0.0,0.0,0.0,0.0,0.0,0.0,0.0,0.0,0.0,0.0,0.0,0.0,0.0,0.0,0.0,0.0,0.0,0.0,0.0,0.0,0.0,0.0,0.0,0.0,0.7954,0.9025,1.0585,1.1338,1.118,1.0624,0.9285,0.0,0.0,0.0,0.0,0.0,0.0,0.0,0.0,0.0,0.0,0.0,0.0,0.0,0.0,0.0,0.0,0.0,0.0,0.0,0.0,0.0,0.0,0.0,0.0,0.0,0.0,0.0,0.0,0.0,0.0,0.0,0.0,0.0,0.0,0.0,0.0,0.0,0.0,0.0,0.0,0.0,0.0,0.0,0.0,0.0,0.0,0.0,0.0,0.0,0.0,0.0,0.0,0.0,0.0,0.0,0.0,0.0,0.0,0.0,0.0,0.0,0.0,0.0,0.0,0.0,0.0,0.0,0.0,0.0,0.0,0.0,0.0,0.0,0.0,0.0,0.0,0.0,0.0,0.0,0.0,0.0,0.0,0.0,0.0,0.0,0.0,0.0,0.0,0.0,0.0,0.0,0.0,0.0,0.0,0.0,0.0,0.0,0.0,0.0,0.0,0.0,0.0,0.0,0.0,0.0,0.0,0.0,0.0,1.0367,1.0578,1.3306,1.4247,1.321,1.1754,1.0499,0.0,0.0,0.0,0.0,0.0,0.0,0.0,0.0,0.0,0.0,0.0,0.0,0.0,0.0,0.0,0.0,0.0,0.0,0.0,0.0,0.0,0.0,0.0,0.0,0.0,0.0,0.0,0.0,0.0,0.0,0.0,0.0,0.0,0.0,0.0,0.0,0.0,0.0,0.0,0.0,0.0,0.0,0.0,0.0,0.0,0.0,0.0,0.0,0.4486,0.0,0.0,0.0,0.0,0.0,0.0,0.0,0.0,0.0,0.0,0.0,0.0,0.0,0.0,0.0,0.0,0.0,0.0,0.0,0.0,0.0,0.0,0.0,0.0,0.0,0.0,0.0,0.0,0.0,0.0,0.0,0.0,0.0,0.0,0.0,0.0,0.0,0.0,0.0,0.0,0.0,0.0,0.0,0.0,0.0,0.0,0.0,0.0,0.0,0.0,0.0,0.0,0.0,0.0,0.0,0.0,0.0,0.0,0.0,1.116,1.1968,1.3988,1.475,1.4044,1.3082,1.1869,0.0,0.0,0.0,0.0,0.0,0.0,0.0,0.0,0.0,0.0,0.0,0.0,0.0,0.0,0.0,0.0,0.0,0.0,0.0,0.0,0.0,0.0,0.0,0.0,0.0,0.0,0.0,0.0,0.0,0.0,0.0,0.0,0.0,0.0,0.0,0.0,0.0,0.0,0.0,0.0,0.0,0.0,0.0,0.0,0.0,0.0,0.0,0.0,0.0,0.0,0.0,0.0,0.0,0.0,0.0,0.0,0.0,0.0,0.0,0.0,0.0,0.0,0.0,0.0,0.0,0.0,0.0,0.0,0.0,0.0,0.0,0.0,0.0,0.0,0.0,0.0,0.0,0.0,0.0,0.0,0.0,0.0,0.0,0.0,0.0,0.0,0.0,0.0,0.0,0.0,0.0,0.0,0.0,0.0,0.0,0.0,0.0,0.0,0.0,0.0,0.0,0.0,0.0,0.0,0.0,0.0,0.0,1.0102,1.1335,1.3136,1.4071,1.4538,1.4519,1.4259,1.3088,1.0973,0.0,0.0,0.0,0.0,0.0,0.0,0.0,0.0,0.0,0.0,0.0,0.0,0.0,0.0,0.0,0.0,0.0,0.0,0.0,0.0,0.0,0.0,0.0,0.0,0.0,0.0,0.0,0.0,0.0,0.0,0.0,0.0,0.0,0.0,0.0,0.0,0.0,0.0,0.371,0.42,0.0,0.0,0.0,0.0,0.0,0.0,0.0,0.0,0.4673,0.0,0.0,0.0,0.0,0.0,0.0,0.0,0.0,0.0,0.0,0.0,0.0,0.0,0.0,0.0,0.0,0.0,0.0,0.0,0.0,0.0,0.0,0.0,0.0,0.0,0.0,0.0,0.0,0.0,0.0,0.0,0.0,0.0,0.0,0.0,0.0,0.0,0.0,0.0,0.0,0.0,0.0,0.0,0.0,0.0,0.0,0.0,0.0,0.0,0.0,0.0,0.0,0.0,0.0,0.0,0.0,1.0473,1.0879,1.203,1.4044,1.5047,1.5552,1.5538,1.4608,1.335,1.1744,0.0,0.0,0.0,0.0,0.0,0.0,0.0,0.0,0.0,0.0,0.0,0.0,0.0,0.0,0.0,0.0,0.0,0.0,0.0,0.0,0.0,0.0,0.0,0.0,0.0,0.0,0.0,0.0,0.0,0.0,0.0,0.0,0.0,0.0,0.0,0.0,0.0,0.0,0.0,0.4794,0.4938,0.0,0.0,0.0,0.0,0.0,0.0,0.0,0.0,0.6203,0.0,0.0,0.0,0.0,0.0,0.0,0.0,0.0,0.0,0.0,0.0,0.0,0.0,0.0,0.0,0.0,0.0,0.0,0.0,0.0,0.0,0.0,0.0,0.0,0.0,0.0,0.0,0.0,0.0,0.0,0.0,0.0,0.0,0.0,0.0,0.0,0.0,0.0,0.0,0.0,0.0,0.0,0.0,0.0,0.0,0.0,0.0,0.0,0.0,0.0,0.0,0.0,0.0,0.0,0.0,1.0992,1.2157,1.3478,1.5023,1.5559,1.5813,1.5775,1.4391,1.3016,0.0,0.0,0.0,0.0,0.0,0.0,0.0,0.0,0.0,0.0,0.0,0.0,0.0,0.0,0.0,0.0,0.0,0.0,0.0,0.0,0.0,0.0,0.0,0.0,0.0,0.0,0.0,0.0,0.0,0.0,0.0,0.0,0.0,0.0,0.0,0.0,0.0,0.0,0.0,0.0,0.5668,0.6117,0.6122,0.0,0.0,0.0,0.0,0.0,0.0,0.6395,0.6468,0.0,0.0,0.0,0.0,0.0,0.0,0.0,0.0,0.0,0.0,0.0,0.0,0.0,0.0,0.0,0.0,0.0,0.0,0.0,0.0,0.0,0.0,0.0,0.0,0.0,0.0,0.0,0.0,0.0,0.0,0.0,0.0,0.0,0.0,0.0,0.0,0.0,0.0,0.0,0.0,0.0,0.0,0.0,0.0,0.0,0.0,0.0,0.0,0.0,0.0,0.0,0.0,0.0,0.0,0.0,1.1352,1.2962,1.4449,1.5735,1.5813,1.5813,1.5768,1.4058,1.2585,0.0,0.0,0.0,0.0,0.0,0.0,0.0,0.0,0.0,0.0,0.0,0.0,0.0,0.0,0.0,0.0,0.0,0.0,0.0,0.0,0.0,0.0,0.0,0.0,0.0,0.0,0.0,0.0,0.0,0.0,0.0,0.0,0.0,0.0,0.0,0.0,0.0,0.0,0.0,0.0,0.0,0.7213,0.6866,0.7079,0.0,0.0,0.0,0.0,0.6311,0.7029,0.0,0.0,0.0,0.0,0.0,0.0,0.0,0.0,0.0,0.0,0.0,0.0,0.0,0.0,0.0,0.0,0.0,0.0,0.0,0.0,0.0,0.0,0.0,0.0,0.0,0.0,0.0,0.0,0.0,0.0,0.0,0.0,0.0,0.0,0.0,0.0,0.0,0.0,0.0,0.0,0.0,0.0,0.0,0.0,0.0,0.0,0.0,0.0,0.0,0.0,0.0,0.0,0.0,0.0,0.0,0.0,1.1301,1.224,1.3704,1.5678,1.5813,1.5813,1.5775,1.3889,1.2402,0.0,0.0,0.0,0.0,0.0,0.0,0.0,0.0,0.0,0.0,0.0,0.0,0.0,0.0,0.0,0.0,0.0,0.0,0.0,0.0,0.0,0.0,0.0,0.0,0.0,0.0,0.0,0.0,0.0,0.0,0.0,0.0,0.0,0.0,0.0,0.0,0.0,0.0,0.0,0.0,0.0,0.749,0.7477,0.7376,0.744,0.0,0.0,0.8602,0.9254,1.0207,0.0,0.0,0.0,0.0,0.0,0.0,0.0,0.0,0.0,0.0,0.0,0.0,0.0,0.0,0.0,0.0,0.0,0.0,0.0,0.0,0.0,0.0,0.0,0.0,0.0,0.0,0.0,0.0,0.0,0.0,0.0,0.0,0.0,0.0,0.0,0.0,0.0,0.0,0.0,0.0,0.0,0.0,0.0,0.0,0.0,0.0,0.0,0.0,0.0,0.0,0.0,0.0,0.0,0.0,0.0,0.9528,1.1373,1.3064,1.4542,1.5743,1.5813,1.5728,1.5573,1.3514,1.197,0.0,0.0,0.0,0.0,0.0,0.0,0.0,0.0,0.0,0.0,0.0,0.0,0.0,0.0,0.0,0.0,0.0,0.0,0.0,0.0,0.0,0.0,0.0,0.0,0.0,0.0,0.0,0.0,0.0,0.0,0.0,0.0,0.0,0.0,0.0,0.0,0.0,0.0,0.0,0.0,0.0,0.0,0.8487,0.8981,0.0,0.0,0.0,0.9852,0.9613,0.0,0.0,0.0,0.0,0.0,0.0,0.0,0.0,0.0,0.0,0.0,0.0,0.0,0.0,0.0,0.0,0.0,0.0,0.0,0.0,0.0,0.0,0.0,0.0,0.0,0.0,0.0,0.0,0.0,0.0,0.0,0.0,0.0,0.0,0.0,0.0,0.0,0.0,0.0,0.0,0.0,0.0,0.0,0.0,0.0,0.0,0.0,0.0,0.0,0.0,0.0,0.0,0.0,0.0,0.0,0.0,0.0,1.1628,1.397,1.5449,1.5971,1.601,1.5879,1.5548,1.3619,0.0,0.0,0.0,0.0,0.0,0.0,0.0,0.0,0.0,0.0,0.0,0.0,0.0,0.0,0.0,0.0,0.0,0.0,0.0,0.0,0.0,0.0,0.0,0.0,0.0,0.0,0.0,0.2975,0.0,0.0,0.0,0.0,0.0,0.0,0.0,0.0,0.0,0.0,0.0,0.0,0.0,0.0,0.9913,0.9622,1.0512,1.125,0.0,0.0,1.1021,1.0378,1.1555,1.1733,0.0,0.0,0.0,0.0,0.0,0.0,0.0,0.0,0.0,0.0,0.0,0.0,0.0,0.0,0.0,0.0,0.0,0.0,0.0,0.0,0.0,0.0,0.0,0.0,0.0,0.0,0.0,0.0,0.0,0.0,0.0,0.0,0.0,0.0,0.0,0.0,0.0,0.0,0.0,0.0,0.0,0.0,0.0,0.0,0.0,0.0,0.0,0.0,0.0,0.0,0.0,0.0,0.0,0.0,0.0,1.2254,1.4486,1.5943,1.6513,1.6553,1.6388,1.6037,1.4573,1.3037,0.0,0.0,0.0,0.0,0.0,0.0,0.0,0.0,0.0,0.0,0.0,0.0,0.0,0.0,0.0,0.0,0.0,0.0,0.0,0.0,0.0,0.0,0.0,0.0,0.0,0.0,0.0,0.0,0.0,0.0,0.0,0.0,0.0,0.0,0.0,0.0,0.0,0.0,0.0,0.0,0.0,1.0913,1.0876,1.1425,1.2214,0.0,0.0,1.209,1.2827,1.3695,1.3447,1.0866,0.0,0.0,0.0,0.0,0.0,0.0,0.0,0.0,0.0,0.0,0.0,0.0,0.0,0.0,0.0,0.0,0.0,0.0,0.0,0.0,0.0,0.0,0.0,0.0,0.0,0.0,0.0,0.0,0.0,0.0,0.0,0.0,0.0,0.0,0.0,0.0,0.0,0.0,0.0,0.0,0.0,0.0,0.0,0.0,0.0,0.0,0.0,0.0,0.0,0.0,0.0,0.0,0.0,1.0796,1.2418,1.4583,1.5993,1.6572,1.66,1.6355,1.5865,1.4869,1.3379,0.0,0.0,0.0,0.0,0.0,0.0,0.0,0.0,0.0,0.0,0.0,0.0,0.0,0.0,0.0,0.0,0.0,0.0,0.0,0.0,0.0,0.0,0.0,0.0,0.0,0.0,0.0,0.0,0.4954,0.5241,0.4951,0.0,0.0,0.0,0.0,0.0,0.0,0.0,0.0,0.0,0.0,1.154,1.2146,1.2825,0.0,0.0,1.3772,1.3496,1.3453,1.3587,1.3002,1.0936,1.0107,0.0,0.0,0.0,0.0,0.0,0.0,0.0,0.0,0.0,0.0,0.0,0.0,0.0,0.0,0.0,0.0,0.0,0.0,0.0,0.0,0.0,0.0,0.0,0.0,0.0,0.0,0.0,0.0,0.0,0.0,0.0,0.0,0.0,0.0,0.0,0.0,0.0,0.0,0.0,0.0,0.0,0.0,0.0,0.0,0.0,0.0,0.0,0.0,0.0,0.0,0.0,0.0,1.0986,1.2671,1.4822,1.6196,1.6803,1.6805,1.655,1.6074,1.5361,1.4021,0.0,0.0,0.0,0.0,0.0,0.0,0.0,0.0,0.0,0.0,0.0,0.0,0.0,0.0,0.0,0.0,0.0,0.0,0.0,0.0,0.0,0.0,0.0,0.0,0.0,0.0,0.0,0.0,0.5847,0.6014,0.5293,0.0,0.0,0.0,0.0,0.0,0.0,0.0,0.0,0.0,0.0,1.2486,1.31,1.3811,1.431,1.4366,1.4179,1.3874,1.341,1.3303,1.2763,1.1207,0.0,0.0,0.0,0.0,0.0,0.0,0.0,0.0,0.0,0.0,0.0,0.0,0.0,0.0,0.0,0.0,0.0,0.0,0.0,0.0,0.0,0.0,0.0,0.0,0.0,0.0,0.0,0.0,0.0,0.0,0.5252,0.0,0.0,0.0,0.0,0.0,0.0,0.0,0.0,0.0,0.0,0.0,0.0,0.0,0.0,0.0,0.0,0.0,0.0,0.0,0.0,0.0,0.0,1.1357,1.3084,1.5262,1.667,1.7264,1.7286,1.7149,1.6847,1.6228,1.5106,1.3446,0.0,0.0,0.0,0.0,0.0,0.0,0.0,0.0,0.0,0.0,0.0,0.0,0.0,0.0,0.0,0.0,0.0,0.0,0.0,0.0,0.0,0.0,0.0,0.0,0.0,0.0,0.4922,0.5603,0.5994,0.0,0.0,0.0,0.0,0.0,0.0,0.0,0.0,0.0,0.0,1.2449,1.392,1.3646,1.421,1.4545,1.42,1.3499,1.2935,1.2891,1.3194,1.3101,0.0,0.0,0.0,0.0,0.0,0.0,0.0,0.0,0.0,0.0,0.0,0.0,0.0,0.0,0.0,0.0,0.0,0.0,0.0,0.0,0.0,0.0,0.0,0.0,0.0,0.0,0.0,0.7506,0.7413,0.0,0.0,0.0,0.0,0.0,0.0,0.0,0.0,0.0,0.0,0.0,1.1805,1.1844,0.0,0.0,0.0,0.0,0.0,0.0,0.0,0.0,0.0,0.0,0.0,0.0,1.1839,1.3397,1.5596,1.6913,1.7288,1.7309,1.7172,1.691,1.6474,1.5153,1.2896,0.0,0.0,0.0,0.0,0.0,0.0,0.0,0.0,0.0,0.0,0.0,0.0,0.0,0.0,0.0,0.0,0.0,0.0,0.0,0.0,0.0,0.0,0.0,0.0,0.0,0.6222,0.0,0.0,0.0,0.0,0.0,0.0,0.0,0.0,0.0,0.0,0.0,1.0767,1.1941,1.2826,1.3526,1.3926,1.4286,1.4628,0.0,0.0,0.0,0.0,0.0,0.0,0.0,0.0,0.0,0.0,0.0,0.0,0.0,0.0,1.3371,1.0787,1.0123,1.0108,1.0436,0.0,0.0,0.0,0.0,0.0,0.0,0.0,0.0,0.0,0.0,0.0,0.0,0.0,0.0,0.0,0.0,0.9212,0.0,0.0,0.0,0.0,0.0,0.0,0.0,0.0,1.2178,1.3193,1.4237,1.4245,1.4194,0.0,1.3326,1.1632,0.0,0.0,0.0,0.0,0.0,0.0,0.0,0.0,1.2273,1.3641,1.5778,1.7034,1.7288,1.7309,1.7207,1.7041,1.6514,1.5321,1.3391,1.2108,1.0909,0.0,0.0,0.0,0.0,0.0,0.0,0.0,0.0,0.0,0.0,0.0,0.0,0.0,0.0,0.0,0.0,0.0,0.0,0.0,0.0,0.0,0.0,0.0,0.6929,0.0,0.0,0.0,0.0,0.0,0.0,0.0,0.0,0.0,1.0138,1.1195,1.2363,1.3477,1.3787,1.3986,1.4204,0.0,0.0,0.0,0.0,0.0,0.0,0.0,1.2969,1.3232,1.312,1.3263,1.4047,1.4987,1.5527,1.524,0.0,0.0,1.2946,1.2413,1.2471,1.2689,1.2743,1.2803,1.3028,1.2083,1.1279,0.0,0.0,0.0,0.0,0.0,0.0,0.0,0.0,1.2644,1.2581,0.0,1.1629,0.0,0.0,0.0,0.0,0.0,1.1944,0.0,0.0,1.6104,1.6982,1.6477,1.644,1.629,1.5972,1.5608,1.474,1.3351,1.1205,0.0,0.0,0.0,0.0,0.0,0.0,1.2646,1.3891,1.5881,1.7037,1.7283,1.7309,1.7302,1.7251,1.6411,1.5625,1.49,1.3715,1.2621,1.1635,0.9816,0.0,0.0,0.0,0.0,0.0,0.0,0.0,0.0,0.0,0.0,0.0,0.0,0.0,0.0,0.0,0.0,0.0,0.0,0.0,0.0,0.7124,0.0,0.0,0.0,0.0,0.0,0.0,0.0,0.0,0.0,0.0,1.1135,1.2679,1.4103,1.468,0.0,0.0,0.0,0.0,1.4577,1.3688,1.3743,1.3754,1.3282,1.4051,1.4708,1.4747,0.0,0.0,1.6431,1.6448,1.6397,1.5622,1.6728,1.7268,1.6692,1.5886,1.5411,1.5421,1.5071,1.4813,1.4793,1.4497,1.4162,1.5852,0.0,0.0,0.0,0.0,1.3668,1.4293,1.5321,1.4982,1.465,1.4312,1.3697,0.0,0.0,0.0,0.0,0.0,0.0,1.4306,1.5637,1.6253,1.7083,1.8104,1.7872,1.7823,1.796,1.7375,1.6911,1.6487,1.5425,1.309,0.9612,0.0,0.0,0.0,0.0,1.3681,1.4943,1.6422,1.7226,1.7309,1.7309,1.7204,1.7019,1.6748,1.6184,1.5279,1.4906,1.3958,1.2313,1.1313,0.0,0.0,0.0,0.0,0.0,0.0,0.0,0.0,0.0,0.0,0.0,0.0,0.0,0.0,0.0,0.0,0.0,0.0,0.0,0.6992,0.773,0.8104,0.0,0.0,0.0,0.0,0.0,0.0,0.0,0.0,0.0,1.3937,1.3817,1.3893,0.0,0.0,1.4404,1.3812,1.4482,1.5164,1.5499,0.0,0.0,0.0,1.5585,1.5445,1.6159,1.7255,1.8189,1.874,1.926,1.9789,2.0254,2.0743,2.0871,2.0378,1.857,1.7242,1.7086,1.6997,1.6996,1.72,1.7258,1.7072,1.9281,1.7248,1.6116,1.5799,1.6021,1.6044,1.6656,1.7662,1.7419,1.7206,1.698,1.6366,1.5577,1.4691,1.42,0.0,0.0,0.0,1.5969,1.7356,1.7255,1.7858,1.8941,1.8794,1.8814,1.8975,1.8452,1.8203,1.8196,1.7569,1.5637,1.2505,0.0,0.0,1.2124,1.3656,1.4952,1.5987,1.6973,1.7499,1.7511,1.7375,1.7226,1.707,1.6957,1.662,1.6016,1.5742,1.5001,1.3707,1.2695,1.132,0.0,0.0,0.0,0.0,0.0,0.0,0.0,0.0,0.0,0.0,0.0,0.6036,0.484,0.0,0.0,0.0,0.6967,0.7762,0.8479,0.8993,0.0,0.0,0.0,0.0,0.0,0.0,0.0,1.2438,1.4112,1.5354,1.5628,1.5259,1.5119,1.5521,1.5499,1.5284,1.4896,0.0,1.6285,1.6554,1.669,1.705,1.7837,1.7523,1.7609,1.8914,1.9569,2.0147,2.0802,2.1274,2.1752,2.2316,2.2492,2.2428,2.2234,2.0782,1.9596,1.949,1.9569,1.9716,1.994,1.9408,1.8696,2.2045,2.1489,1.8485,1.7502,1.7888,1.82,1.8718,1.9424,1.973,1.9868,1.9795,1.9153,1.8533,1.7884,1.6736,0.0,1.6719,1.7289,1.8018,1.8899,1.8877,1.9049,1.9334,1.9305,1.9285,1.9285,1.8985,1.8845,1.8796,1.8206,1.745,1.6543,1.5632,1.4989,1.4672,1.5489,1.6272,1.6957,1.7528,1.7792,1.7784,1.7499,1.7339,1.7302,1.7041,1.6888,1.6833,1.6235,1.5717,1.5297,1.3892,1.2488,1.1195,0.0,0.0,0.0,0.0,0.0,0.0,0.0,0.0,0.0,0.0,0.0,0.0,0.0,0.0,0.0,0.9448,0.0,1.0733,1.0712,0.0,0.0,0.0,1.1706,1.2992,1.4046,1.4738,1.499,0.0,0.0,1.6554,1.6807,1.7243,1.7833,1.7558,1.7216,1.6935,1.7456,1.7764,1.7307,1.7511,1.813,1.9246,1.9713,2.048,2.1873,2.2492,2.2412,2.2533,2.2596,2.2622,2.2881,2.2768,2.2819,2.2781,2.2758,2.2668,2.2336,2.2296,2.2395,2.2235,2.0913,1.9618,2.2345,2.2015,2.1234,2.0695,2.0336,2.0147,2.0183,2.037,2.0457,2.0341,2.0085,1.9737,1.9466,1.9305,1.9005,1.9036,1.9297,1.945,1.9654,1.9845,1.9658,1.9611,1.9677,1.9422,1.9285,1.9298,1.9212,1.9188,1.918,1.9027,1.8575,1.7867,1.7611,1.6846,1.5643,1.6041,1.6704,1.7582,1.7723,1.7792,1.7792,1.7723,1.7551,1.7298,1.7041,1.6774,1.6514,1.6126,1.5533,1.4748,1.4108,1.3162,1.1844,0.9687,0.0,0.0,0.0,0.0,0.0,0.0,0.0,0.0,0.0,0.7812,0.5712,0.0,0.8679,0.0,0.9829,1.1229,1.217,1.2136,0.0,0.0,1.3247,1.3517,1.5009,1.5635,1.5961,1.6027,1.6872,1.7555,1.7828,1.7923,1.8208,1.8823,1.7986,1.7204,1.6995,1.8361,1.936,1.9315,2.0293,2.1341,2.1566,2.1772,2.2037,2.242,2.2517,2.2768,2.3592,2.3716,2.3961,2.4741,2.4934,2.4947,2.4885,2.4934,2.4882,2.4716,2.3609,2.2492,2.248,2.208,2.1257,2.2732,2.2586,2.244,2.1913,2.1203,2.1174,2.1152,2.113,2.0984,2.0809,2.0648,2.05,2.0339,2.0215,2.0354,2.0347,2.0211,2.035,2.0328,2.0203,2.0041,1.9974,1.9973,1.9671,1.9518,1.9523,1.9371,1.9285,1.9285,1.9285,1.9122,1.8745,1.875,1.8456,1.7899,1.7323,1.7359,1.8008,1.8028,1.8023,1.804,1.8315,1.7964,1.6961,1.7315,1.6937,1.5744,1.5416,1.4938,1.4234,1.3503,1.2715,1.1845,1.0097,0.8963,0.0,0.0,0.0,0.0,0.0,0.0,0.0,0.0,0.0,0.0,0.0,1.0001,0.9908,1.1647,1.3004,1.351,1.383,1.4435,1.5454,1.5338,1.5709,1.7032,1.7371,1.7525,1.7671,1.8138,1.8545,1.8708,1.873,1.9071,1.9891,1.9375,1.8851,1.8802,1.9682,2.0496,2.1032,2.187,2.2697,2.311,2.3617,2.3933,2.3911,2.3933,2.4143,2.4716,2.4817,2.502,2.5574,2.5696,2.5696,2.5696,2.5696,2.5696,2.555,2.4775,2.402,2.3899,2.3552,2.2848,2.3106,2.3068,2.2775,2.2191,2.1474,2.1701,2.1664,2.1372,2.1072,2.1013,2.1079,2.1152,2.1043,2.0794,2.1065,2.0889,2.0356,2.0641,2.0605,2.0334,2.0277,2.0255,2.0261,1.9988,1.9855,1.9833,1.9518,1.9351,1.9364,1.932,1.9361,1.9426,1.9452,1.9747,2.0256,1.8947,1.8418,1.8678,1.8619,1.8543,1.8442,1.895,1.8307,1.655,1.7473,1.7063,1.4982,1.4663,1.4298,1.3736,1.2874,1.2199,1.1791,1.0636,0.9853,0.0,0.8626,0.0,0.0,0.0,0.0,0.0,0.0,0.0,0.0,1.1349,1.1744,1.2375,1.4019,1.499,1.4934,1.5647,1.6411,1.7079,1.7347,1.785,1.8723,1.8867,1.8977,1.9268,1.9415,1.9519,1.9515,1.9596,2.0104,2.0923,2.1059,2.1064,2.1275,2.136,2.1727,2.2593,2.2831,2.3443,2.4184,2.5045,2.5564,2.5635,2.5528,2.5696,2.5623,2.5647,2.5684,2.5696,2.5696,2.5696,2.5696,2.5696,2.5696,2.5684,2.5586,2.5528,2.5489,2.4888,2.467,2.3106,2.3106,2.3024,2.2893,2.2717,2.252,2.1408,1.9759,1.9693,1.9924,2.0429,2.0962,2.1152,2.1109,2.1167,2.1116,2.1021,2.1072,2.1072,2.1006,2.0743,2.0619,2.0583,2.0269,2.0122,2.0107,1.9841,1.9714,1.9707,1.9443,1.9597,2.0183,2.0188,2.0127,2.0037,0.0,0.0,0.0,2.0274,1.9754,1.9209,1.8887,1.7983,1.6471,1.6677,0.0,1.5256,1.4906,1.4321,1.3477,1.4001,0.0,0.0,0.0,0.0,0.0,0.0,0.0,0.0,0.0,0.0,0.0,1.2438,1.2008,1.1592,1.2706,1.3814,1.4676,1.5341,1.6122,1.708,1.7321,1.7701,1.8348,1.8474,1.8686,1.9146,1.919,1.9239,1.929,2.006,2.0585,2.0547,2.1336,2.1899,2.2089,2.2202,2.2559,2.3368,2.3409,2.3543,2.3816,2.4424,2.5079,2.536,2.555,2.5696,2.5696,2.5696,2.5696,2.5696,2.5696,2.5696,2.5696,2.5696,2.5696,2.5696,2.5696,2.5696,2.5696,2.5696,2.5696,2.5696,2.555,2.5455,2.5017,0.0,2.4332,2.3802,0.0,2.2497,2.1233,1.9797,2.028,2.0559,2.0721,2.105,2.1211,2.1182,2.1028,2.0941,2.0948,2.0773,2.0795,2.094,2.0773,2.0794,2.094,2.0619,2.043,2.045,2.015,2.019,2.0563,2.0422,2.0444,2.0661,2.1186,2.135,2.123,2.2781,2.297,2.1705,2.1359,2.1122,2.0948,2.0982,2.0101,1.8241,0.0,0.0,0.0,0.0,0.0,0.0,0.0,0.0,0.0,0.0,0.0,1.3614,1.2796,1.2548,1.3177,1.3384,1.3887,1.4848,1.5193,1.4838,1.3572,1.4791,1.5906,1.652,1.7036,1.7596,1.8206,1.8438,1.8672,1.8999,1.9043,1.9129,1.9255,1.9285,1.9285,1.9324,1.9776,2.0104,2.013,2.1043,2.1912,2.2446,2.2981,2.3688,2.4596,2.4427,2.4236,2.4793,2.5299,2.5684,2.5696,2.5696,2.5696,2.5696,2.5696,2.5696,2.5696,2.5696,2.5696,2.5696,2.5696,2.5696,2.5696,2.5696,2.5696,2.5696,2.5696,2.5696,2.5696,2.5696,2.5696,2.6877,2.6559,2.5523,2.4481,2.3419,2.24,2.1445,2.067,0.0,0.0,0.0,2.1189,2.1211,2.1189,2.0897,2.078,2.0772,2.0502,2.051,2.0794,2.078,2.1046,2.1488,2.1222,2.1214,2.1387,2.1098,2.1254,2.1883,2.1767,2.1674,2.1667,2.2388,2.2885,2.3169,2.4618,2.4501,2.275,2.2427,2.2395,2.2614,2.3048,2.2249,2.0068,2.1095,2.0333,1.7536,1.7437,1.7064,1.6253,1.5301,1.5078,1.5731,1.4799,1.4591,1.5372,1.5044,1.4932,1.5248,1.5563,1.6027,1.6678,1.7443,1.7328,1.5983,1.6871,1.7628,1.795,1.8494,1.8816,1.8895,1.9124,1.9285,1.9285,1.9467,1.9602,1.9615,1.9783,1.997,1.9866,2.0194,2.0181,2.0388,2.1306,2.2059,2.2981,2.3899,2.4636,2.5357,2.4971,2.4756,2.5455,2.5659,2.5696,2.5696,2.5696,2.5696,2.5696,2.5696,2.5696,2.5696,2.5696,2.5696,2.5696,2.5696,2.5696,2.5696,2.5696,2.5696,2.5696,2.5696,2.5696,2.5696,2.5696,2.5696,2.639,2.534,2.5179,2.4363,2.3148,2.2985,2.2674,2.2198,2.1269,2.0809,2.0794,2.1072,2.1211,2.1211,2.1167,2.1145,2.1123,2.1079,2.1087,0.0,2.1137,2.17,2.2714,2.271,2.3189,2.4064,2.3851,2.3785,2.3809,2.3209,2.3319,2.4095,2.4009,2.4316,2.514,2.4646,2.4596,2.5142,2.399,2.3249,2.302,2.2655,2.1849,2.0599,2.0729,2.0235,1.9042,1.8646,1.8101,1.7495,1.8134,1.7862,1.647,1.7931,1.8002,1.6124,1.7103,1.752,1.6691,1.6868,1.7317,1.7962,1.816,1.8123,1.7921,1.8057,1.8306,1.8633,1.8765,1.8919,1.9175,1.9255,1.9285,1.9363,2.0138,2.0662,2.0649,2.1429,2.1916,2.1887,2.2885,2.3265,2.3145,2.4102,2.4776,2.5132,2.5201,2.5533,2.5625,2.5574,2.5538,2.5659,2.5696,2.5696,2.5696,2.5696,2.5696,2.5696,2.5696,2.5696,2.5696,2.5696,2.5696,2.5696,2.5696,2.5696,2.5696,2.5696,2.5696,2.5696,2.5696,2.5696,2.5696,2.5696,2.5696,2.8967,2.8179,2.7471,2.6806,2.6139,2.4771,2.4093,2.3818,2.2364,2.165,2.1496,2.1489,2.1474,2.1445,2.1087,2.0933,2.0912,2.0736,2.1114,2.1867,2.1902,2.2632,2.3838,2.393,2.4195,2.4682,2.4583,2.473,2.5107,2.4791,2.4699,2.4786,2.4324,2.471,2.5798,2.5289,2.535,2.6098,2.5216,2.4652,2.4517,2.4272,2.3777,2.3076,2.3051,2.2629,2.1778,2.1533,2.1187,2.0644,2.0446,2.0253,2.0133,1.995,1.9608,1.9096,1.9513,1.9589,1.9115,1.9553,1.9982,2.0275,1.9931,1.9714,1.9714,1.8997,1.8714,1.9028,1.9078,1.9137,1.9283,1.9285,1.9285,1.9285,2.0431,2.1101,2.1094,2.2065,2.271,2.2594,2.3118,2.3557,2.3536,2.4717,2.5541,2.556,2.5815,2.6066,2.605,2.5854,2.5696,2.5696,2.5696,2.5696,2.5696,2.5696,2.5696,2.5696,2.5696,2.5696,2.5696,2.5696,2.5696,2.5696,2.5696,2.5696,2.5696,2.5696,2.5696,2.5696,2.5696,2.5696,2.5696,2.5696,2.5696,3.1228,3.0501,2.9498,2.8848,2.831,2.6368,2.5523,2.5392,2.4138,2.3467,2.3217,2.2556,2.2345,2.2472,2.1998,2.1724,2.1576,2.1333,2.1863,2.2923,2.3002,2.3739,2.4991,2.5122,2.5246,2.548,2.5521,2.5842,2.6377,2.6398,2.6011,2.5301,2.4899,2.516,2.598,2.5795,2.5914,2.6267,2.5975,2.5805,2.5878,2.5878,2.5723,2.5447,2.524,2.4873,2.4224,2.4028,2.3779,2.3392,2.2451,2.23,2.3023,2.1813,2.1206,2.1631,2.158,2.1289,2.0864,2.1319,2.1678,2.1747,2.1224,2.1,2.1142,2.0279,1.9605,1.9661,1.9691,1.9698,1.9772,2.0053,2.0063,1.9943,2.1366,2.2362,2.2125,2.3147,2.3884,2.3601,2.3791,2.4067,2.4185,2.5012,2.5758,2.5914,2.6215,2.6518,2.6484,2.614,2.5884,2.5845,2.5774,2.5696,2.5696,2.5696,2.5696,2.5696,2.5696,2.5696,2.5696,2.5696,2.5696,2.5696,2.5696,2.5696,2.5696,2.5696,2.5696,2.5696,2.5696,2.5696,2.5696,2.5696,2.5696,3.1208,2.9809,2.9636,2.8612,2.7338,2.6952,2.6816,2.6801,2.6638,2.6597,2.6288,2.4677,2.4332,2.4997,2.4896,2.4603,2.4241,2.4296,2.4307,2.4479,2.451,2.5156,2.6273,2.6327,2.6907,2.7762,2.7856,2.7824,2.7921,2.7878,2.7425,2.6707,2.6557,2.6271,2.5837,2.5752,2.5742,2.5781,2.5965,2.6173,2.6412,2.6424,2.6416,2.6374,2.5771,2.5438,2.5296,2.4686,2.4334,2.4284,2.4156,2.3769,2.3236,2.396,2.3671,2.1778,2.2673,2.2545,2.0757,2.052,2.0859,2.0942,2.1088,2.14,2.224,2.2198,2.1731,2.108,2.0811,2.0776,2.085,2.187,2.2176,2.1505,2.3414,2.5032,2.4933,2.5971,2.6631,2.6602,2.633,2.6615,2.6445,2.6667,2.6814,2.683,2.6872,2.6976,2.6924,2.6602,2.6299,2.624,2.5991,2.5735,2.5706,2.5696,2.5696,2.5696,2.5696,2.5696,2.5696,2.5696,2.5696,2.5696,2.5696,2.5696,2.5696,2.5696,2.5696,2.5696,2.5696,2.5696,2.5696,2.5696,2.5696,3.2016,3.1106,3.0828,3.0187,2.9257,2.8468,2.8116,2.8056,2.7323,2.7405,2.7991,2.7271,2.6622,2.6032,2.5612,2.5297,2.5097,2.483,2.5086,2.5708,2.5776,2.6409,2.7484,2.7736,2.8,2.8291,2.8461,2.8438,2.8293,2.8157,2.7981,2.7792,2.7578,2.735,2.7139,2.6774,2.6727,2.6978,2.6712,2.67,2.6892,2.652,2.6257,2.6225,2.5994,2.5928,2.606,2.5773,2.5565,2.5415,2.5186,2.4816,2.428,2.453,2.4252,2.3334,2.4006,2.4214,2.3592,2.3537,2.3588,2.3725,2.3131,2.301,2.3356,2.2881,2.2641,2.308,2.2588,2.219,2.2288,2.3013,2.3321,2.3188,2.4614,2.5683,2.5444,2.6603,2.7324,2.7064,2.7236,2.7402,2.7454,2.7617,2.7754,2.7734,2.7588,2.7428,2.7386,2.7031,2.667,2.6438,2.6233,2.6013,2.5786,2.5696,2.5696,2.5696,2.5696,2.5696,2.5696,2.5696,2.5696,2.5696,2.5696,2.5696,2.5696,2.5696,2.5696,2.5696,2.5696,2.5696,2.5696,2.5696,2.5696,3.273,3.2316,3.1748,3.1333,3.0981,2.9921,2.9457,2.9368,2.8462,2.8611,2.9412,2.9457,2.8818,2.7723,2.7013,2.665,2.6499,2.6074,2.6363,2.7215,2.7176,2.7615,2.8491,2.8714,2.8714,2.8571,2.8717,2.8744,2.8638,2.8568,2.8547,2.8564,2.8309,2.815,2.8071,2.7607,2.7479,2.7623,2.7275,2.7095,2.7018,2.6592,2.6354,2.6414,2.6354,2.6412,2.659,2.6532,2.6424,2.6223,2.5853,2.5587,2.5367,2.4977,2.4764,2.4783,2.5068,2.5259,2.5292,2.5262,2.5262,2.5201,2.4501,2.4224,2.4362,2.3937,2.4099,2.4949,2.469,2.4301,2.3803,2.4415,2.4738,2.4575,2.5729,2.6489,2.6366,2.7276,2.7728,2.7451,2.7689,2.7845,2.7897,2.808,2.8232,2.8203,2.8021,2.7858,2.7809,2.7484,2.7041,2.6631,2.6487,2.6201,2.5806,2.5696,2.5696,2.5696,2.5696,2.5696,2.5696,2.5696,2.5696,2.5696,2.5696,2.5696,2.5696,2.5696,2.5696,2.5696,2.5696,2.5696,2.5696,2.5696,2.5696,3.3139,3.2666,3.185,3.1514,3.144,3.0952,3.0777,3.0733,3.0645,3.0718,3.0747,3.0777,3.0738,3.0543,2.9978,2.9728,2.9316,2.8779,2.8717,2.9065,2.8734,2.8741,2.9042,2.9069,2.9066,2.8999,2.9066,2.9224,2.9462,2.95,2.9322,2.8913,2.8883,2.8566,2.8109,2.7981,2.7665,2.7476,2.7539,2.7293,2.6729,2.6811,2.7023,2.7172,2.6974,2.6841,2.6853,2.6639,2.6496,2.6496,2.6218,2.6063,2.6027,2.579,2.5603,2.5635,2.5662,2.5248,2.447,2.4381,2.4356,2.4282,2.4344,2.4559,2.5459,2.5763,2.6026,2.6291,2.6805,2.6634,2.5683,2.6414,2.6834,2.6121,2.7226,2.7964,2.806,2.8011,2.8239,2.8184,2.8174,2.8193,2.8232,2.8285,2.8291,2.8304,2.8275,2.8249,2.8207,2.7933,2.7523,2.705,2.6656,2.624,2.5815,2.5696,2.5696,2.5696,2.5696,2.5696,2.5696,2.5696,2.5696,2.5696,2.5696,2.5696,2.5696,2.5696,2.5696,2.5696,2.5696,2.5696,2.5696,2.5696,2.5698,3.3148,3.2785,3.2421,3.2107,3.1757,3.1177,3.1112,3.146,3.1233,3.1276,3.146,3.1465,3.1489,3.1455,3.131,3.0892,3.0291,2.982,2.9626,2.965,2.9483,2.9293,2.9115,2.9317,2.9303,2.9145,2.933,2.9475,2.958,2.9606,2.96,2.9631,2.9606,2.9471,2.9229,2.8962,2.8701,2.8529,2.8373,2.8113,2.7826,2.7945,2.7911,2.7674,2.7177,2.6984,2.7153,2.7059,2.6928,2.677,2.6651,2.652,2.6366,2.6267,2.6217,2.6205,2.6217,2.5967,2.5465,2.538,2.5316,2.5145,2.5282,2.5559,2.6069,2.646,2.6805,2.7183,2.7457,2.7437,2.7486,2.7793,2.7924,2.7664,2.793,2.8291,2.8301,2.8301,2.8301,2.8301,2.8301,2.8301,2.8301,2.8301,2.8301,2.8318,2.8438,2.8541,2.8558,2.842,2.8062,2.7418,2.6979,2.6543,2.5786,2.5706,2.5696,2.5696,2.5696,2.5696,2.5696,2.572,2.5732,2.5759,2.5735,2.5793,2.5817,2.5781,2.5769,2.5781,2.5769,2.5769,2.5696,2.5737,2.572,3.3566,3.3306,3.3121,3.2784,3.2291,3.1682,3.1492,3.1649,3.1513,3.1527,3.1657,3.1744,3.1802,3.1802,3.1802,3.1618,3.1158,3.0625,3.0381,3.0352,3.0214,3.0035,2.9879,2.9916,2.9831,2.9642,2.9668,2.9735,2.9735,2.9722,2.9827,2.9994,2.9994,2.9994,2.9932,2.9673,2.9466,2.928,2.8978,2.8758,2.8636,2.8593,2.8448,2.8113,2.7679,2.7383,2.7329,2.732,2.7214,2.7046,2.6948,2.6781,2.6544,2.6496,2.6496,2.6496,2.6484,2.6424,2.6257,2.6221,2.6218,2.6197,2.6351,2.6568,2.6868,2.7174,2.7539,2.7867,2.8101,2.8285,2.8472,2.8561,2.8504,2.8344,2.8301,2.8344,2.8421,2.8438,2.8424,2.8424,2.8344,2.8304,2.8291,2.8301,2.8341,2.8421,2.8604,2.8701,2.8807,2.8804,2.8515,2.7699,2.7298,2.6748,2.6097,2.5805,2.5732,2.572,2.5696,2.5696,2.5745,2.5769,2.5817,2.5832,2.5868,2.5917,2.5917,2.5878,2.5878,2.5914,2.5927,2.5941,2.5861,2.5795,2.58,3.4392,3.426,3.3966,3.3493,3.3015,3.2553,3.2004,3.1553,3.1711,3.1711,3.161,3.173,3.1913,3.186,3.1917,3.2008,3.204,3.1475,3.1266,3.1425,3.1078,3.1021,3.1158,3.0813,3.0619,3.0514,3.0175,2.9991,2.9968,2.9955,2.9981,2.9994,2.9994,2.9994,2.9994,2.9932,2.9746,2.9446,2.9309,2.9114,2.8688,2.8719,2.8698,2.8616,2.8562,2.8158,2.7422,2.736,2.7327,2.725,2.7058,2.677,2.6604,2.6568,2.6544,2.6568,2.6532,2.652,2.6506,2.6536,2.6748,2.6958,2.7175,2.7364,2.7756,2.8156,2.8405,2.8501,2.8768,2.9056,2.9029,2.9026,2.8864,2.8424,2.8384,2.8501,2.8648,2.8701,2.8687,2.8674,2.8531,2.8344,2.8318,2.8384,2.8491,2.8661,2.8791,2.8887,2.9076,2.9115,2.8713,2.8035,2.7537,2.7052,2.6436,2.5905,2.5808,2.5745,2.572,2.5708,2.583,2.589,2.6014,2.6062,2.6195,2.6243,2.6219,2.6193,2.6195,2.6219,2.6183,2.6159,2.6139,2.6095,2.5929,3.46,3.4404,3.4207,3.3882,3.339,3.2776,3.2395,3.225,3.2201,3.2201,3.2258,3.2373,3.2426,3.2412,3.2426,3.2469,3.2549,3.2295,3.2089,3.1872,3.1721,3.156,3.1412,3.1263,3.1001,3.066,3.0212,2.9994,2.9994,2.9994,2.9994,2.9994,2.9994,2.9994,2.9994,2.9994,2.9901,2.9821,2.9787,2.9704,2.958,2.9559,2.9404,2.9112,2.9083,2.8794,2.8212,2.7871,2.7584,2.7327,2.7214,2.7131,2.707,2.7047,2.7047,2.7037,2.7037,2.6964,2.6845,2.7067,2.723,2.7311,2.7631,2.7993,2.8296,2.8611,2.8821,2.8899,2.9048,2.9119,2.9119,2.9119,2.9039,2.888,2.885,2.8864,2.8956,2.896,2.8983,2.897,2.8893,2.8854,2.884,2.884,2.884,2.897,2.9155,2.934,2.9419,2.9422,2.908,2.8272,2.7852,2.7365,2.6673,2.6231,2.6147,2.6036,2.5939,2.5893,2.5977,2.611,2.6231,2.6378,2.6508,2.6556,2.652,2.6484,2.6484,2.6472,2.6424,2.6436,2.6472,2.6408,2.6298,3.4953,3.4782,3.4718,3.4446,3.4005,3.336,3.2965,3.2759,3.2545,3.2483,3.2555,3.2655,3.2684,3.2684,3.2684,3.2684,3.2684,3.2684,3.2553,3.2291,3.225,3.2098,3.1857,3.1692,3.1267,3.0753,3.0401,3.016,2.9994,2.9994,2.9994,2.9994,2.9994,2.9994,2.9994,2.9994,2.9994,2.9994,2.9994,2.9994,2.9994,2.9994,2.986,2.9601,2.9547,2.9321,2.8874,2.8551,2.8235,2.7864,2.7783,2.7793,2.7783,2.7779,2.7783,2.7783,2.7769,2.7707,2.7579,2.7813,2.8002,2.8029,2.8361,2.8735,2.9007,2.9247,2.9348,2.9424,2.9448,2.9432,2.9435,2.9435,2.9432,2.9456,2.9208,2.9171,2.9227,2.929,2.93,2.9264,2.9171,2.9132,2.9119,2.9119,2.9171,2.9277,2.9462,2.9672,2.9709,2.9735,2.9178,2.8612,2.8149,2.756,2.6833,2.6568,2.6484,2.6352,2.6229,2.6207,2.6255,2.6412,2.6556,2.6762,2.6918,2.694,2.6904,2.6736,2.6676,2.6652,2.67,2.6748,2.6818,2.6868,2.6814,3.5387,3.5412,3.5387,3.5097,3.4698,3.4227,3.3589,3.2977,3.2744,3.2555,3.2445,3.2612,3.2684,3.2684,3.2684,3.2684,3.2684,3.2684,3.2688,3.2632,3.2622,3.257,3.2502,3.2129,3.1533,3.0887,3.0701,3.0432,3.0015,2.9994,2.9994,2.9994,2.9994,2.9994,2.9994,2.9994,2.9994,2.9994,2.9994,2.9994,2.9994,2.9994,2.9984,2.9953,2.9945,2.9756,2.9391,2.9278,2.9063,2.8657,2.8481,2.846,2.8553,2.8595,2.8502,2.8481,2.8574,2.8522,2.8551,2.8557,2.8754,2.9051,2.9193,2.9508,2.9784,2.9833,2.9856,2.9892,2.9916,2.9942,2.9929,2.9929,2.9916,2.9905,2.9538,2.9383,2.9567,2.9619,2.9606,2.9554,2.9356,2.9185,2.9251,2.9237,2.9369,2.9527,2.9646,2.9774,2.9879,2.9815,2.9492,2.8967,2.8361,2.7803,2.711,2.6878,2.6796,2.676,2.6628,2.6568,2.6568,2.67,2.6844,2.7071,2.718,2.7238,2.7202,2.7012,2.6964,2.7035,2.7071,2.7105,2.7117,2.7129,2.7141,3.5412,3.5412,3.5412,3.5169,3.477,3.4299,3.3773,3.3256,3.2866,3.2641,3.2627,3.2669,3.2684,3.2684,3.2684,3.2684,3.2684,3.2684,3.2684,3.2684,3.2684,3.2684,3.2615,3.2219,3.1736,3.1239,3.0901,3.0453,3.0025,3.0005,2.9994,2.9994,2.9994,2.9994,2.9994,2.9994,2.9994,2.9994,2.9994,2.9994,2.9994,2.9994,2.9994,2.9994,2.9994,2.9932,2.9818,2.9818,2.9427,2.8678,2.8593,2.8593,2.8657,2.8667,2.8675,2.8675,2.8647,2.8613,2.8675,2.8936,2.9187,2.9311,2.9611,2.9873,2.9973,2.9994,2.9994,2.9994,2.9994,2.9994,2.9994,2.9994,2.9994,2.9994,2.9811,2.9748,2.984,2.9903,2.9903,2.9889,2.9787,2.9732,2.9709,2.9709,2.9748,2.984,2.9866,2.9903,2.9968,2.9963,2.9673,2.9032,2.8437,2.7952,2.7517,2.7256,2.7131,2.7143,2.7059,2.6964,2.6952,2.7,2.7119,2.7262,2.725,2.7274,2.7296,2.7213,2.7286,2.7286,2.7262,2.7225,2.7248,2.726,2.7248,3.5412,3.5412,3.5412,3.5273,3.4977,3.4371,3.3936,3.359,3.2992,3.2684,3.2684,3.2684,3.2684,3.2684,3.2684,3.2684,3.2684,3.2684,3.2684,3.2684,3.2684,3.2684,3.2611,3.2363,3.2057,3.165,3.1198,3.0753,3.0339,3.0121,3.0005,2.9994,2.9994,2.9994,2.9994,2.9994,2.9994,2.9994,2.9994,2.9994,2.9994,2.9994,2.9994,2.9994,2.9994,2.9994,3.0007,2.9994,2.9715,2.9288,2.9185,2.9197,2.9187,2.9187,2.9174,2.9185,2.9197,2.9195,2.9226,2.9443,2.9567,2.9632,2.988,2.9963,2.9994,2.9994,2.9994,2.9994,2.9994,2.9994,2.9994,2.9994,2.9994,2.9994,2.9994,2.9994,2.9994,2.9981,2.9994,2.9994,2.9994,2.9994,2.9994,2.9994,2.9994,2.9994,2.9968,2.9981,2.9994,2.9963,2.9787,2.9156,2.8649,2.8198,2.7743,2.744,2.7245,2.7282,2.7262,2.7213,2.7201,2.7201,2.7238,2.7297,2.7308,2.732,2.732,2.732,2.732,2.7297,2.732,2.732,2.732,2.732,2.732,3.5412,3.5412,3.5412,3.5412,3.5247,3.447,3.4081,3.3915,3.3095,3.2684,3.2684,3.2684,3.2684,3.2684,3.2684,3.2684,3.2684,3.2684,3.2684,3.2684,3.2684,3.2684,3.2673,3.2632,3.2357,3.1933,3.1592,3.1115,3.0629,3.0201,3.0015,2.9994,2.9994,2.9994,2.9994,2.9994,2.9994,2.9994,2.9994,2.9994,2.9994,2.9994,2.9994,2.9994,2.9994,2.9994,2.9994,2.9994,2.9942,2.9984,2.9994,2.9911,2.9922,2.9963,2.9942,2.9901,2.9849,2.987,2.9956,2.9901,2.9963,2.9953,2.9963,2.9994,2.9994,2.9994,2.9994,2.9994,2.9994,2.9994,2.9994,2.9994,2.9994,2.9994,2.9994,2.9994,2.9994,2.9994,2.9994,2.9994,2.9994,2.9994,2.9994,2.9994,2.9994,2.9994,2.9994,2.9994,2.9994,2.9984,2.9756,2.9309,2.8874,2.8479,2.8024,2.7602,2.7417,2.7329,2.7308,2.7272,2.7272,2.7284,2.7296,2.732,2.732,2.732,2.732,2.732,2.732,2.732,2.732,2.732,2.732,2.732,2.732,3.5412,3.5412,3.5412,3.5412,3.5257,3.447,3.4087,3.4004,3.3105,3.2684,3.2684,3.2684,3.2684,3.2684,3.2684,3.2684,3.2684,3.2684,3.2684,3.2684,3.2684,3.2684,3.2684,3.2684,3.245,3.2026,3.1612,3.1181,3.0722,3.0328,2.9994,2.9994,2.9994,2.9994,2.9994,2.9994,2.9994,2.9994,2.9994,2.9994,2.9994,2.9994,2.9994,2.9994,2.9994,2.9994,2.9994,2.9994,2.9994,2.9994,2.9994,2.9994,2.9994,2.9994,2.9994,2.9994,2.9994,2.9994,2.9994,2.9994,2.9994,2.9994,2.9994,2.9994,2.9994,2.9994,2.9994,2.9994,2.9994,2.9994,2.9994,2.9994,2.9994,2.9994,2.9994,2.9994,2.9994,2.9994,2.9994,2.9994,2.9994,2.9994,2.9994,2.9994,2.9994,2.9994,2.9994,2.9994,2.9994,2.9994,2.9777,2.9466,2.9164,2.876,2.8202,2.7748,2.7472,2.7339,2.733,2.732,2.732,2.732,2.732,2.732,2.732,2.732,2.732,2.732,2.732,2.732,2.732,2.732,2.732,2.732,2.7352,3.5412,3.5412,3.5412,3.5412,3.5257,3.4491,3.4087,3.3911,3.3105,3.2684,3.2684,3.2684,3.2684,3.2684,3.2684,3.2684,3.2684,3.2684,3.2684,3.2684,3.2684,3.2684,3.2684,3.2684,3.2543,3.2274,3.1895,3.1454,3.1022,3.0566,3.0212,3.0005,2.9994,2.9994,2.9994,2.9994,2.9994,2.9994,2.9994,2.9994,2.9994,2.9994,2.9994,2.9994,2.9994,2.9994,2.9994,2.9994,2.9994,2.9994,2.9994,2.9994,2.9994,2.9994,2.9994,2.9994,2.9994,2.9994,2.9994,2.9994,2.9994,2.9994,2.9994,2.9994,2.9994,2.9994,2.9994,2.9994,2.9994,2.9994,2.9994,2.9994,2.9994,2.9994,2.9994,2.9994,2.9994,2.9994,2.9994,2.9994,2.9994,2.9994,2.9994,2.9994,2.9994,2.9994,2.9994,2.9994,2.9994,2.9984,2.9945,2.9707,2.9435,2.9021,2.8411,2.7916,2.7482,2.736,2.732,2.732,2.732,2.732,2.732,2.732,2.732,2.732,2.732,2.732,2.732,2.732,2.732,2.732,2.7355,2.7427,2.7385,3.5412,3.5412,3.5412,3.5412,3.5257,3.447,3.4087,3.3967,3.3105,3.2684,3.2684,3.2684,3.2684,3.2684,3.2684,3.2684,3.2684,3.2684,3.2684,3.2684,3.2684,3.2684,3.2684,3.2684,3.2688,3.2632,3.2181,3.1771,3.1422,3.0984,3.0473,3.016,3.0028,3.0005,2.9994,2.9994,2.9994,2.9994,2.9994,2.9994,2.9994,2.9994,2.9994,2.9994,2.9994,2.9994,2.9994,2.9994,2.9994,2.9994,2.9994,2.9994,2.9994,2.9994,2.9994,2.9994,2.9994,2.9994,2.9994,2.9994,2.9994,2.9994,2.9994,2.9994,2.9994,2.9994,2.9994,2.9994,2.9994,2.9994,2.9994,2.9994,2.9994,2.9994,2.9994,2.9994,2.9994,2.9994,2.9994,2.9994,2.9994,2.9994,2.9994,2.9994,2.9994,2.9994,2.9994,2.9994,2.9994,2.9984,2.9956,2.9935,2.9697,2.9197,2.8576,2.8038,2.7605,2.7391,2.734,2.732,2.732,2.732,2.732,2.732,2.732,2.732,2.732,2.732,2.732,2.732,2.7369,2.7428,2.7487,2.7557,2.7566,3.5412,3.5412,3.5412,3.5402,3.5257,3.447,3.4081,3.3932,3.3085,3.2694,3.2684,3.2684,3.2684,3.2684,3.2684,3.2684,3.2684,3.2684,3.2684,3.2684,3.2684,3.2684,3.2684,3.2684,3.2684,3.257,3.227,3.2005,3.1695,3.1133,3.0753,3.0535,3.0225,3.0046,3.0005,2.9994,2.9994,2.9994,2.9994,2.9994,2.9994,2.9994,2.9994,2.9994,2.9994,2.9994,2.9994,2.9994,2.9994,2.9994,2.9994,2.9994,2.9994,2.9994,2.9994,2.9994,2.9994,2.9994,2.9994,2.9994,2.9994,2.9994,2.9994,2.9994,2.9994,2.9994,2.9994,2.9994,2.9994,2.9994,2.9994,2.9994,2.9994,2.9994,2.9994,2.9994,2.9994,2.9994,2.9994,2.9994,2.9994,2.9994,2.9994,2.9994,2.9994,2.9994,2.9994,2.9994,2.9994,2.9994,2.9984,2.9987,2.9956,2.9363,2.8719,2.8202,2.7748,2.7472,2.737,2.732,2.732,2.732,2.732,2.732,2.732,2.732,2.732,2.732,2.7464,2.756,2.7572,2.7548,2.7888,2.8159,2.8166,3.5412,3.5412,3.5412,3.5283,3.4983,3.4402,3.3957,3.3642,3.3012,3.2684,3.2684,3.2684,3.2684,3.2684,3.2684,3.2684,3.2684,3.2684,3.2684,3.2684,3.2684,3.2684,3.2684,3.2684,3.2684,3.2632,3.2471,3.2198,3.1981,3.1623,3.1109,3.0711,3.0442,3.0256,3.0046,2.9994,2.9994,2.9994,2.9994,2.9994,2.9994,2.9994,2.9994,2.9994,2.9994,2.9994,2.9994,2.9994,2.9994,2.9994,2.9994,2.9994,2.9994,2.9994,2.9994,2.9994,2.9994,2.9994,2.9994,2.9994,2.9994,2.9994,2.9994,2.9994,2.9994,2.9994,2.9994,2.9994,2.9994,2.9994,2.9994,2.9994,2.9994,2.9994,2.9994,2.9994,2.9994,2.9994,2.9994,2.9994,2.9994,2.9994,2.9994,2.9994,2.9994,2.9994,2.9994,2.9994,2.9994,2.9994,2.9994,2.9966,2.9924,2.9518,2.8936,2.8471,2.8036,2.774,2.7451,2.7401,2.7329,2.7349,2.733,2.732,2.732,2.732,2.732,2.7332,2.756,2.7739,2.7597,2.7665,2.8391,2.8768,2.8686,3.5412,3.5412,3.5412,3.5169,3.477,3.4299,3.3858,3.3362,3.2909,3.2684,3.2684,3.2684,3.2684,3.2684,3.2684,3.2684,3.2684,3.2684,3.2684,3.2684,3.2684,3.2684,3.2684,3.2684,3.2684,3.2684,3.2657,3.2502,3.2229,3.1971,3.1509,3.104,3.0794,3.0463,3.0087,2.9994,2.9994,2.9994,2.9994,2.9994,2.9994,2.9994,2.9994,2.9994,2.9994,2.9994,2.9994,2.9994,2.9994,2.9994,2.9994,2.9994,2.9994,2.9994,2.9994,2.9994,2.9994,2.9994,2.9994,2.9994,2.9994,2.9994,2.9994,2.9994,2.9994,2.9994,2.9994,2.9994,2.9994,2.9994,2.9994,2.9994,2.9994,2.9994,2.9994,2.9994,2.9994,2.9994,2.9994,2.9994,2.9994,2.9994,2.9994,2.9994,2.9994,2.9994,2.9994,2.9994,2.9994,2.9994,2.9984,2.9924,2.9811,2.957,2.9153,2.8791,2.8419,2.814,2.779,2.7584,2.7482,2.7401,2.736,2.732,2.732,2.732,2.732,2.7321,2.7477,2.7538,2.7477,2.7773,2.8464,2.8916,2.9001,3.5412,3.5412,3.5412,3.5169,3.4734,3.4288,3.3832,3.3341,3.2888,3.2694,3.2684,3.2684,3.2684,3.2684,3.2684,3.2684,3.2684,3.2684,3.2684,3.2684,3.2684,3.2684,3.2684,3.2684,3.2684,3.2684,3.2684,3.2688,3.2487,3.2198,3.1823,3.1353,3.0946,3.047,3.0139,3.0108,2.9994,3.0005,2.9994,2.9994,2.9994,2.9994,2.9994,2.9994,2.9994,2.9994,2.9994,2.9994,2.9994,2.9994,2.9994,2.9994,2.9994,2.9994,2.9994,2.9994,2.9994,2.9994,2.9994,2.9994,2.9994,2.9994,2.9994,2.9994,2.9994,2.9994,2.9994,2.9994,2.9994,2.9994,2.9994,2.9994,2.9994,2.9994,2.9994,2.9994,2.9994,2.9994,2.9994,2.9994,2.9994,2.9994,2.9994,2.9994,2.9994,2.9994,2.9994,2.9994,2.9994,2.9994,2.9994,2.9942,2.9914,2.9694,2.9466,2.9081,2.8812,2.8531,2.8109,2.7769,2.7646,2.7513,2.7349,2.732,2.732,2.732,2.732,2.7333,2.7382,2.7465,2.7536,2.7952,2.8515,2.8837,2.8938,3.5412,3.5412,3.5412,3.5004,3.4413,3.4164,3.3658,3.3054,3.2781,3.2684,3.2684,3.2684,3.2684,3.2684,3.2684,3.2684,3.2684,3.2684,3.2684,3.2684,3.2684,3.2684,3.2684,3.2684,3.2684,3.2684,3.2684,3.2684,3.2591,3.2477,3.2185,3.175,3.1492,3.1078,3.0419,3.039,3.0235,3.01,2.9994,2.9994,2.9994,2.9994,2.9994,2.9994,2.9994,2.9994,2.9994,2.9994,2.9994,2.9994,2.9994,2.9994,2.9994,2.9994,2.9994,2.9994,2.9994,2.9994,2.9994,2.9994,2.9994,2.9994,2.9994,2.9994,2.9994,2.9994,2.9994,2.9994,2.9994,2.9994,2.9994,2.9994,2.9994,2.9994,2.9994,2.9994,2.9994,2.9994,2.9994,2.9994,2.9994,2.9994,2.9994,2.9994,2.9994,2.9994,2.9994,2.9994,2.9994,2.9994,2.9994,2.9994,2.9963,2.9901,2.9704,2.9435,2.9205,2.8874,2.8253,2.7943,2.7788,2.7645,2.7462,2.734,2.732,2.732,2.732,2.7369,2.743,2.7548,2.7678,2.7998,2.8257,2.7974,2.8065,3.5412,3.5392,3.5304,3.4801,3.4091,3.3992,3.3451,3.2735,3.2694,3.2684,3.2684,3.2684,3.2684,3.2684,3.2684,3.2684,3.2684,3.2684,3.2684,3.2684,3.2684,3.2684,3.2684,3.2684,3.2684,3.2684,3.2684,3.2684,3.2684,3.2611,3.2405,3.2022,3.1902,3.145,3.0895,3.0618,3.0453,3.0038,2.9994,2.9994,2.9994,2.9994,2.9994,2.9994,2.9994,2.9994,2.9994,2.9994,2.9994,2.9994,2.9994,2.9994,2.9994,2.9994,2.9994,2.9994,2.9994,2.9994,2.9994,2.9994,2.9994,2.9994,2.9994,2.9994,2.9994,2.9994,2.9994,2.9994,2.9994,2.9994,2.9994,2.9994,2.9994,2.9994,2.9994,2.9994,2.9994,2.9994,2.9994,2.9994,2.9994,2.9994,2.9994,2.9994,2.9994,2.9994,2.9994,2.9994,2.9994,2.9994,2.9994,2.9994,2.9994,2.9973,2.988,2.9694,2.9508,2.9259,2.8616,2.8235,2.8143,2.7833,2.7533,2.7443,2.733,2.732,2.732,2.7393,2.7476,2.7489,2.7548,2.7715,2.7786,2.7501,2.7394,3.5412,3.5371,3.4993,3.4547,3.406,3.3611,3.3186,3.2694,3.2684,3.2684,3.2684,3.2684,3.2684,3.2684,3.2684,3.2684,3.2684,3.2684,3.2684,3.2684,3.2684,3.2684,3.2684,3.2684,3.2684,3.2684,3.2684,3.2684,3.2684,3.2684,3.2405,3.2074,3.214,3.1512,3.0957,3.0636,3.0398,3.0067,2.9994,2.9994,2.9994,2.9994,2.9994,2.9994,2.9994,2.9994,2.9994,2.9994,2.9994,2.9994,2.9994,2.9994,2.9994,2.9994,2.9994,2.9994,2.9994,2.9994,2.9994,2.9994,2.9994,2.9994,2.9994,2.9994,2.9994,2.9994,2.9994,2.9994,2.9994,2.9994,2.9994,2.9994,2.9994,2.9994,2.9994,2.9994,2.9994,2.9994,2.9994,2.9994,2.9994,2.9994,2.9994,2.9994,2.9994,2.9994,2.9994,2.9994,2.9994,2.9994,2.9994,2.9994,2.9994,2.9994,2.9994,2.986,2.9756,2.9591,2.9166,2.8806,2.8593,2.8209,2.7657,2.7432,2.732,2.732,2.732,2.7357,2.7381,2.7345,2.7394,2.7548,2.7584,2.7416,2.7333,3.5044,3.4957,3.4257,3.3998,3.406,3.3594,3.3145,3.2739,3.2684,3.2684,3.2684,3.2684,3.2684,3.2684,3.2684,3.2684,3.2684,3.2684,3.2684,3.2684,3.2684,3.2684,3.2684,3.2684,3.2684,3.2684,3.2684,3.2684,3.2684,3.2684,3.2632,3.2456,3.2367,3.1885,3.1319,3.0574,3.0201,3.0087,2.9994,2.9994,2.9994,2.9994,2.9994,2.9994,2.9994,2.9994,2.9994,2.9994,2.9994,2.9994,2.9994,2.9994,2.9994,2.9994,2.9994,2.9994,2.9994,2.9994,2.9994,2.9994,2.9994,2.9994,2.9994,2.9994,2.9994,2.9994,2.9994,2.9994,2.9994,2.9994,2.9994,2.9994,2.9994,2.9994,2.9994,2.9994,2.9994,2.9994,2.9994,2.9994,2.9994,2.9994,2.9994,2.9994,2.9994,2.9994,2.9994,2.9994,2.9994,2.9994,2.9994,2.9994,2.9994,2.9994,2.9994,2.9994,2.9994,2.9829,2.9622,2.9235,2.8813,2.8257,2.7767,2.7524,2.732,2.732,2.732,2.732,2.7309,2.7309,2.7309,2.7345,2.7344,2.732,2.732,3.4593,3.45,3.3744,3.3584,3.3797,3.3393,3.3016,3.2725,3.2684,3.2684,3.2684,3.2684,3.2684,3.2684,3.2684,3.2684,3.2684,3.2684,3.2684,3.2684,3.2684,3.2684,3.2684,3.2684,3.2684,3.2684,3.2684,3.2684,3.2684,3.2684,3.2663,3.2636,3.2512,3.1967,3.1364,3.0525,3.0005,2.9994,2.9994,2.9994,2.9994,2.9994,2.9994,2.9994,2.9994,2.9994,2.9994,2.9994,2.9994,2.9994,2.9994,2.9994,2.9994,2.9994,2.9994,2.9994,2.9994,2.9994,2.9994,2.9994,2.9994,2.9994,2.9994,2.9994,2.9994,2.9994,2.9994,2.9994,2.9994,2.9994,2.9994,2.9994,2.9994,2.9994,2.9994,2.9994,2.9994,2.9994,2.9994,2.9994,2.9994,2.9994,2.9994,2.9994,2.9994,2.9994,2.9994,2.9994,2.9994,2.9994,2.9994,2.9994,2.9994,2.9994,2.9994,2.9994,2.9994,2.9976,2.9728,2.9331,2.8875,2.8351,2.7841,2.7462,2.732,2.732,2.732,2.732,2.732,2.732,2.732,2.732,2.732,2.732,2.732,3.4112,3.406,3.3594,3.3397,3.3362,3.2919,3.2704,3.2684,3.2684,3.2684,3.2684,3.2684,3.2684,3.2684,3.2684,3.2684,3.2684,3.2684,3.2684,3.2684,3.2684,3.2684,3.2684,3.2684,3.2684,3.2684,3.2684,3.2684,3.2684,3.2684,3.2684,3.2533,3.2267,3.1795,3.1346,3.0487,3.0038,2.9994,2.9994,2.9994,2.9994,2.9994,2.9994,2.9994,2.9994,2.9994,2.9994,2.9994,2.9994,2.9994,2.9994,2.9994,2.9994,2.9994,2.9994,2.9994,2.9994,2.9994,2.9994,2.9994,2.9994,2.9994,2.9994,2.9994,2.9994,2.9994,2.9994,2.9994,2.9994,2.9994,2.9994,2.9994,2.9994,2.9994,2.9994,2.9994,2.9994,2.9994,2.9994,2.9994,2.9994,2.9994,2.9994,2.9994,2.9994,2.9994,2.9994,2.9994,2.9994,2.9994,2.9994,2.9994,2.9994,2.9994,2.9994,2.9994,2.9994,2.9997,2.9857,2.9468,2.9064,2.8601,2.8073,2.7506,2.732,2.732,2.732,2.732,2.732,2.732,2.732,2.732,2.732,2.732,2.732,3.3646,3.3605,3.313,3.293,3.2909,3.2781,3.2684,3.2684,3.2684,3.2684,3.2684,3.2684,3.2684,3.2684,3.2684,3.2684,3.2684,3.2684,3.2684,3.2684,3.2684,3.2684,3.2684,3.2684,3.2684,3.2684,3.2684,3.2684,3.2684,3.2684,3.2684,3.2553,3.1981,3.1405,3.0908,3.0318,3.0005,2.9994,2.9994,2.9994,2.9994,2.9994,2.9994,2.9994,2.9994,2.9994,2.9994,2.9994,2.9994,2.9994,2.9994,2.9994,2.9994,2.9994,2.9994,2.9994,2.9994,2.9994,2.9994,2.9994,2.9994,2.9994,2.9994,2.9994,2.9994,2.9994,2.9994,2.9994,2.9994,2.9994,2.9994,2.9994,2.9994,2.9994,2.9994,2.9994,2.9994,2.9994,2.9994,2.9994,2.9994,2.9994,2.9994,2.9994,2.9994,2.9994,2.9994,2.9994,2.9994,2.9994,2.9994,2.9994,2.9994,2.9994,2.9994,2.9994,2.9994,2.9994,2.9888,2.966,2.9253,2.8736,2.8145,2.7494,2.7392,2.732,2.732,2.732,2.732,2.732,2.732,2.732,2.732,2.732,2.732,3.3161,3.3134,3.2836,3.2684,3.2684,3.2684,3.2684,3.2684,3.2684,3.2684,3.2684,3.2684,3.2684,3.2684,3.2684,3.2684,3.2684,3.2684,3.2684,3.2684,3.2684,3.2684,3.2684,3.2684,3.2684,3.2684,3.2684,3.2684,3.2684,3.2684,3.2481,3.2092,3.1685,3.1094,3.0577,3.0142,2.9994,2.9994,2.9994,2.9994,2.9994,2.9994,2.9994,2.9994,2.9994,2.9994,2.9994,2.9994,2.9994,2.9994,2.9994,2.9994,2.9994,2.9994,2.9994,2.9994,2.9994,2.9994,2.9994,2.9994,2.9994,2.9994,2.9994,2.9994,2.9994,2.9994,2.9994,2.9994,2.9994,2.9994,2.9994,2.9994,2.9994,2.9994,2.9994,2.9994,2.9994,2.9994,2.9994,2.9994,2.9994,2.9994,2.9994,2.9994,2.9994,2.9994,2.9994,2.9994,2.9994,2.9994,2.9994,2.9994,2.9994,2.9994,2.9994,2.9994,2.9994,2.9994,2.9888,2.9751,2.9178,2.8632,2.8064,2.7567,2.7423,2.732,2.732,2.732,2.732,2.732,2.732,2.732,2.732,2.732,2.732,3.2694,3.2684,3.2684,3.2684,3.2684,3.2684,3.2684,3.2684,3.2684,3.2684,3.2684,3.2684,3.2684,3.2684,3.2684,3.2684,3.2684,3.2684,3.2684,3.2684,3.2684,3.2684,3.2684,3.2684,3.2684,3.2684,3.2684,3.2684,3.2673,3.2549,3.216,3.1588,3.1343,3.0805,3.0308,3.0059,2.9994,2.9994,2.9994,2.9994,2.9994,2.9994,2.9994,2.9994,2.9994,2.9994,2.9994,2.9994,2.9994,2.9994,2.9994,2.9994,2.9994,2.9994,2.9994,2.9994,2.9994,2.9994,2.9994,2.9994,2.9994,2.9994,2.9994,2.9994,2.9994,2.9994,2.9994,2.9994,2.9994,2.9994,2.9994,2.9994,2.9994,2.9994,2.9994,2.9994,2.9994,2.9994,2.9994,2.9994,2.9994,2.9994,2.9994,2.9994,2.9994,2.9994,2.9994,2.9994,2.9994,2.9994,2.9994,2.9994,2.9994,2.9994,2.9994,2.9994,2.9994,2.9994,2.9942,2.9772,2.9148,2.8547,2.8083,2.7679,2.7422,2.732,2.732,2.732,2.732,2.732,2.732,2.732,2.732,2.732,2.732,3.2684,3.2684,3.2684,3.2684,3.2684,3.2684,3.2684,3.2684,3.2684,3.2684,3.2684,3.2684,3.2684,3.2684,3.2684,3.2684,3.2684,3.2684,3.2684,3.2663,3.2611,3.2663,3.2642,3.2615,3.2653,3.2657,3.2646,3.2574,3.2564,3.2405,3.1747,3.1019,3.0981,3.0535,3.0212,2.9994,2.9994,2.9994,2.9994,2.9994,2.9994,2.9994,2.9994,2.9994,2.9994,2.9994,2.9994,2.9994,2.9994,2.9994,2.9994,2.9994,2.9994,2.9994,2.9994,2.9994,2.9994,2.9994,2.9994,2.9994,2.9994,2.9994,2.9994,2.9994,2.9994,2.9994,2.9994,2.9994,2.9994,2.9994,2.9994,2.9994,2.9994,2.9994,2.9994,2.9994,2.9994,2.9994,2.9994,2.9994,2.9994,2.9994,2.9994,2.9994,2.9994,2.9994,2.9994,2.9994,2.9994,2.9994,2.9994,2.9994,2.9994,2.9994,2.9994,2.9994,2.9994,2.9994,2.9953,2.9704,2.9011,2.8462,2.809,2.774,2.7411,2.732,2.732,2.732,2.732,2.732,2.732,2.732,2.732,2.732,2.732,3.2684,3.2684,3.2684,3.2684,3.2684,3.2684,3.2684,3.2684,3.2684,3.2684,3.2684,3.2684,3.2684,3.2684,3.2684,3.2684,3.2684,3.2688,3.2615,3.2363,3.2429,3.2243,3.2233,3.2205,3.2137,3.2199,3.2195,3.2061,3.2137,3.1926,3.135,3.0805,3.0701,3.0424,3.0142,2.9994,2.9994,2.9994,2.9994,2.9994,2.9994,2.9994,2.9994,2.9994,2.9994,2.9994,2.9994,2.9994,2.9994,2.9994,2.9994,2.9994,2.9994,2.9994,2.9994,2.9994,2.9994,2.9994,2.9994,2.9994,2.9994,2.9994,2.9994,2.9994,2.9994,2.9994,2.9994,2.9994,2.9994,2.9994,2.9994,2.9994,2.9994,2.9994,2.9994,2.9994,2.9994,2.9994,2.9994,2.9994,2.9994,2.9994,2.9994,2.9994,2.9994,2.9994,2.9994,2.9994,2.9994,2.9994,2.9994,2.9994,2.9994,2.9994,2.9994,2.9994,2.9994,2.9994,2.9984,2.9632,2.8895,2.844,2.8142,2.7762,2.7361,2.732,2.732,2.732,2.732,2.732,2.732,2.732,2.732,2.732,2.732,3.2684,3.2684,3.2684,3.2684,3.2684,3.2684,3.2684,3.2684,3.2684,3.2684,3.2684,3.2684,3.2684,3.2684,3.2684,3.2684,3.2632,3.2605,3.2363,3.1991,3.1964,3.1833,3.1629,3.145,3.1654,3.1512,3.1457,3.1612,3.1446,3.1461,3.1412,3.0723,3.0827,3.059,3.0098,3.0323,3.03,2.9994,2.9994,2.9994,2.9994,2.9994,2.9994,2.9994,2.9994,2.9994,2.9994,2.9994,2.9994,2.9994,2.9994,2.9994,2.9994,2.9994,2.9994,2.9994,2.9994,2.9994,2.9994,2.9994,2.9994,2.9994,2.9994,2.9994,2.9994,2.9994,2.9994,2.9994,2.9994,2.9994,2.9994,2.9994,2.9994,2.9994,2.9994,2.9994,2.9994,2.9994,2.9994,2.9994,2.9994,2.9994,2.9994,2.9994,2.9994,2.9994,2.9994,2.9994,2.9994,2.9994,2.9994,2.9994,2.9994,2.9994,2.9994,2.9994,2.9994,2.9994,2.9994,2.9684,2.905,2.8605,2.8224,2.7762,2.732,2.732,2.732,2.732,2.732,2.732,2.732,2.732,2.732,2.732,2.732,3.2684,3.2684,3.2684,3.2684,3.2684,3.2684,3.2684,3.2684,3.2684,3.2684,3.2684,3.2684,3.2684,3.2684,3.2684,3.2684,3.2642,3.2388,3.2126,3.1871,3.1698,3.1422,3.1408,3.1358,3.1387,3.1408,3.1367,3.1315,3.1365,3.1548,3.1431,3.0512,3.0786,3.0915,3.0253,3.0614,3.0614,3.006,2.9994,2.9994,2.9994,2.9994,2.9994,2.9994,2.9994,2.9994,2.9994,2.9994,2.9994,2.9994,2.9994,2.9994,2.9994,2.9994,2.9994,2.9994,2.9994,2.9994,2.9994,2.9994,2.9994,2.9994,2.9994,2.9994,2.9994,2.9994,2.9994,2.9994,2.9994,2.9994,2.9994,2.9994,2.9994,2.9994,2.9994,2.9994,2.9994,2.9994,2.9994,2.9994,2.9994,2.9994,2.9994,2.9994,2.9994,2.9994,2.9994,2.9994,2.9994,2.9994,2.9994,2.9994,2.9994,2.9994,2.9994,2.9994,2.9994,2.9994,2.9994,2.9632,2.9174,2.8584,2.8026,2.7648,2.732,2.732,2.732,2.732,2.732,2.732,2.732,2.732,2.732,2.732,2.732,3.2684,3.2684,3.2684,3.2684,3.2684,3.2684,3.2684,3.2684,3.2684,3.2684,3.2684,3.2684,3.2684,3.2684,3.2684,3.2663,3.258,3.2208,3.1912,3.1657,3.1367,3.096,3.0985,3.1324,3.1466,3.1503,3.1522,3.1525,3.1713,3.1642,3.1469,3.1296,3.1713,3.1394,3.0731,3.0927,3.0733,3.0033,3.0007,2.9994,2.9994,2.9994,2.9994,2.9994,2.9994,2.9994,2.9994,2.9994,2.9994,2.9994,2.9994,2.9994,2.9994,2.9994,2.9994,2.9994,2.9994,2.9994,2.9994,2.9994,2.9994,2.9994,2.9994,2.9994,2.9994,2.9994,2.9994,2.9994,2.9994,2.9994,2.9994,2.9994,2.9994,2.9994,2.9994,2.9994,2.9994,2.9994,2.9994,2.9994,2.9994,2.9994,2.9994,2.9994,2.9994,2.9994,2.9994,2.9994,2.9994,2.9994,2.9994,2.9994,2.9994,2.9994,2.9994,2.9994,2.9994,2.9994,2.9994,2.9673,2.9249,2.845,2.7809,2.7615,2.7431,2.732,2.732,2.732,2.732,2.732,2.732,2.732,2.732,2.732,2.732,3.2684,3.2684,3.2684,3.2684,3.2684,3.2684,3.2684,3.2684,3.2684,3.2684,3.2653,3.2615,3.2636,3.2688,3.2684,3.2657,3.245,3.1995,3.1678,3.1328,3.1083,3.0979,3.1111,3.1348,3.1786,3.2106,3.2248,3.2555,3.2889,3.2754,3.2781,3.2987,3.2551,3.1893,3.1432,3.0991,3.0586,3.0151,2.9994,2.9994,2.9994,2.9994,2.9994,2.9994,2.9994,2.9994,2.9994,2.9994,2.9994,2.9994,2.9994,2.9994,2.9994,2.9994,2.9994,2.9994,2.9994,2.9994,2.9994,2.9994,2.9994,2.9994,2.9994,3.002,3.0033,3.002,3.002,3.002,3.002,2.9994,2.9994,2.9994,2.9994,2.9994,2.9994,2.9994,2.9994,2.9994,2.9994,2.9994,2.9994,2.9994,3.002,3.002,3.0007,3.0007,2.9994,2.9994,2.9994,2.9994,2.9994,2.9994,2.9994,2.9994,2.9994,2.9994,2.9994,2.9994,2.9963,2.9694,2.9321,2.8638,2.8109,2.7807,2.7645,2.7411,2.732,2.732,2.732,2.732,2.732,2.732,2.732,2.732,2.732,3.2684,3.2684,3.2684,3.2684,3.2673,3.2673,3.2684,3.2684,3.2653,3.2684,3.2543,3.2305,3.2315,3.2673,3.2684,3.2533,3.2081,3.1771,3.1301,3.0858,3.1389,3.1385,3.1633,3.2362,3.2764,3.3152,3.3488,3.3747,3.3895,3.3981,3.3797,3.34,3.4177,3.3314,3.1828,3.1533,3.1481,3.0757,3.018,3.018,3.0125,3.0099,3.0007,2.9994,2.9994,2.9994,2.9994,2.9994,2.9994,2.9994,2.9994,2.9994,2.9994,2.9994,2.9994,2.9994,2.9994,2.9994,2.9994,2.9994,2.9994,3.0115,3.0141,3.0164,3.0154,3.0128,3.0115,3.0086,3.0073,3.0007,2.9994,2.9994,2.9994,2.9994,2.9994,2.9994,2.9994,2.9994,2.9994,2.9994,2.9994,3.0047,3.0112,3.0086,3.0047,3.0033,3.002,3.002,2.9994,2.9994,2.9994,2.9994,2.9994,2.9994,2.9994,2.9994,2.9994,2.9994,2.9963,2.9777,2.9446,2.8918,2.845,2.8129,2.7717,2.7401,2.7339,2.732,2.732,2.732,2.732,2.732,2.732,2.732,2.732]}]]